[[{"header":{"parameterUnit":"m.s-1","parameterCategory":1,"la1":31.0,"la2":29.5877,"lo1":-88.7671,"lo2":-86.6584,"dy":0.0162,"dx":0.0185,"nx":115,"ny":88,"refTime":"2023-09-05T06:00:00:Z","depth":0,"parameterNumber":2,"parameterNumberName":"U-component_of_WINDS"},"data":[0.0,0.0,0.0,0.0,0.0,0.0,0.0,0.0,0.0,0.0,0.0,0.0,0.0,0.0,0.0,0.0,0.0,0.0,0.0,0.0,0.0,0.0,0.0,0.0,0.0,0.0,0.0,0.0,0.0,0.0,0.0,0.0,0.0,0.0,0.0,0.0,0.0,0.0,0.0,0.0,0.0,0.0,0.0,0.0,0.0,0.0,0.0,0.0,0.0,0.0,0.0,0.0,0.0,0.0,0.0,0.0,0.0,0.0,0.0,0.0,0.0,0.0,0.0,0.0,0.0,0.0,0.0,0.0,0.0,0.0,0.0,0.0,0.0,0.0,0.0,0.0,0.0,0.0,0.0,0.0,0.0,0.0,0.0,0.0,0.0,0.0,0.0,0.0,0.0,0.0,0.0,0.0,0.0,0.0,0.0,0.0,0.0,0.0,0.0,0.0,0.0,0.0,0.0,0.0,0.0,0.0,0.0,0.0,0.0,0.0,0.0,0.0,0.0,0.0,0.0,0.0,0.0,0.0,0.0,0.0,0.0,0.0,0.0,0.0,0.0,0.0,0.0,0.0,0.0,0.0,0.0,0.0,0.0,0.0,0.0,0.0,0.0,0.0,0.0,0.0,0.0,0.0,0.0,0.0,0.0,0.0,0.0,0.0,0.0,0.0,0.0,0.0,0.0,0.0,0.0,0.0,0.0,0.0,0.0,0.0,0.0,0.0,0.0,0.0,0.0,0.0,0.0,0.0,0.0,0.0,0.0,0.0,0.0,0.0,0.0,0.0,0.0,0.0,0.0,0.0,0.0,0.0,0.0,0.0,0.0,0.0,0.0,0.0,0.0,0.0,0.0,0.0,0.0,0.0,0.0,0.0,0.0,0.0,0.0,0.0,0.0,0.0,0.0,0.0,0.0,0.0,0.0,0.0,0.0,0.0,0.0,0.0,0.0,0.0,0.0,0.0,0.0,0.0,0.0,0.0,0.0,0.0,0.0,0.0,0.0,0.0,0.0,0.0,0.0,0.0,0.0,0.0,0.0,0.0,0.0,0.0,0.0,0.0,0.0,0.0,0.0,0.0,0.0,0.0,0.0,0.0,0.0,0.0,0.0,0.0,0.0,0.0,0.0,0.0,0.0,0.0,0.0,0.0,0.0,0.0,0.0,0.0,0.0,0.0,0.0,0.0,0.0,0.0,0.0,0.0,0.0,0.0,0.0,0.0,0.0,0.0,0.0,0.0,0.0,0.0,0.0,0.0,0.0,0.0,0.0,0.0,0.0,0.0,0.0,0.0,0.0,0.0,0.0,0.0,0.0,0.0,0.0,0.0,0.0,0.0,0.0,0.0,0.0,0.0,0.0,0.0,0.0,0.0,0.0,0.0,0.0,0.0,0.0,0.0,0.0,0.0,0.0,0.0,0.0,0.0,0.0,0.0,0.0,0.0,0.0,0.0,0.0,0.0,0.0,0.0,0.0,0.0,0.0,0.0,0.0,0.0,0.0,0.0,0.0,0.0,0.0,0.0,0.0,0.0,0.0,0.0,0.0,0.0,0.0,0.0,0.0,0.0,0.0,0.0,0.0,0.0,0.0,0.0,0.0,0.0,0.0,0.0,0.0,0.0,0.0,0.0,0.0,0.0,0.0,0.0,0.0,0.0,0.0,0.0,0.0,0.0,0.0,0.0,0.0,0.0,0.0,0.0,0.0,0.0,0.0,0.0,0.0,0.0,0.0,0.0,0.0,0.0,0.0,0.0,0.0,0.0,0.0,0.0,0.0,0.0,0.0,0.0,0.0,0.0,0.0,0.0,0.0,0.0,0.0,0.0,0.0,0.0,0.0,0.0,0.0,0.0,0.0,0.0,0.0,0.0,0.0,0.0,0.0,0.0,0.0,0.0,0.0,0.0,0.0,0.0,0.0,0.0,0.0,0.0,0.0,0.0,0.0,0.0,0.0,0.0,0.0,0.0,0.0,0.0,0.0,0.0,0.0,0.0,0.0,0.0,0.0,0.0,0.0,0.0,0.0,0.0,0.0,0.0,0.0,0.0,0.0,0.0,0.0,0.0,0.0,0.0,0.0,0.0,0.0,0.0,0.0,0.0,0.0,0.0,0.0,0.0,0.0,0.0,0.0,0.0,0.0,0.0,0.0,0.0,0.0,0.0,0.0,0.0,0.0,0.0,0.0,0.0,0.0,0.0,0.0,0.0,0.0,0.0,0.0,0.0,0.0,0.0,0.0,0.0,0.0,0.0,0.0,0.0,0.0,0.0,0.0,0.0,0.0,0.0,0.0,0.0,0.0,0.0,0.0,0.0,0.0,0.0,0.0,0.0,0.0,0.0,0.0,0.0,0.0,0.0,0.0,0.0,0.0,0.0,0.0,0.0,0.0,0.0,0.0,0.0,0.0,0.0,0.0,0.0,0.0,0.0,0.0,0.0,0.0,0.0,0.0,0.0,0.0,0.0,0.0,0.0,0.0,0.0,0.0,0.0,0.0,0.0,0.0,0.0,0.0,0.0,0.0,0.0,0.0,0.0,0.0,0.0,0.0,0.0,0.0,0.0,0.0,0.0,0.0,0.0,0.0,0.0,0.0,0.0,0.0,0.0,0.0,0.0,0.0,0.0,0.0,0.0,0.0,0.0,0.0,0.0,0.0,0.0,0.0,0.0,0.0,0.0,0.0,0.0,0.0,0.0,0.0,0.0,0.0,0.0,0.0,0.0,0.0,0.0,0.0,0.0,0.0,0.0,0.0,0.0,0.0,0.0,0.0,0.0,0.0,0.0,0.0,0.0,0.0,0.0,0.0,0.0,0.0,0.0,0.0,0.0,0.0,0.0,0.0,0.0,0.0,0.0,0.0,0.0,0.0,0.0,0.0,0.0,0.0,0.0,0.0,0.0,0.0,0.0,0.0,0.0,0.0,0.0,0.0,0.0,0.0,0.0,0.0,0.0,0.0,0.0,0.0,0.0,0.0,0.0,0.0,0.0,0.0,0.0,0.0,0.0,0.0,0.0,0.0,0.0,0.0,0.0,0.0,0.0,0.0,0.0,0.0,0.0,0.0,0.0,0.0,0.0,0.0,0.0,0.0,0.0,0.0,0.0,0.0,0.0,0.0,0.0,0.0,0.0,0.0,0.0,0.0,0.0,0.0,0.0,0.0,0.0,0.0,0.0,0.0,0.0,0.0,0.0,0.0,0.0,0.0,0.0,0.0,0.0,0.0,0.0,0.0,0.0,0.0,0.0,0.0,0.0,0.0,0.0,0.0,0.0,0.0,0.0,0.0,0.0,0.0,0.0,0.0,0.0,0.0,0.0,0.0,0.0,0.0,0.0,0.0,0.0,0.0,0.0,0.0,0.0,0.0,0.0,0.0,0.0,0.0,0.0,0.0,0.0,0.0,0.0,0.0,0.0,0.0,0.0,0.0,0.0,0.0,0.0,0.0,0.0,0.0,0.0,0.0,0.0,0.0,0.0,0.0,0.0,0.0,0.0,0.0,0.0,0.0,0.0,0.0,0.0,0.0,0.0,0.0,0.0,0.0,0.0,0.0,0.0,0.0,0.0,0.0,0.0,0.0,0.0,0.0,0.0,0.0,0.0,0.0,0.0,0.0,0.0,0.0,0.0,0.0,0.0,0.0,0.0,0.0,0.0,0.0,0.0,0.0,0.0,0.0,0.0,0.0,0.0,0.0,0.0,0.0,0.0,0.0,0.0,0.0,0.0,0.0,0.0,0.0,0.0,0.0,0.0,0.0,0.0,0.0,0.0,0.0,0.0,0.0,0.0,0.0,0.0,0.0,0.0,0.0,0.0,0.0,0.0,0.0,0.0,0.0,0.0,0.0,0.0,0.0,0.0,0.0,0.0,0.0,0.0,0.0,0.0,0.0,0.0,0.0,0.0,0.0,0.0,0.0,0.0,0.0,0.0,0.0,0.0,0.0,0.0,0.0,0.0,0.0,0.0,0.0,0.0,0.0,0.0,0.0,0.0,0.0,0.0,0.0,0.0,0.0,0.0,0.0,0.0,0.0,0.0,0.0,0.0,0.0,0.0,0.0,0.0,0.0,0.0,0.0,0.0,0.0,0.0,0.0,0.0,0.0,0.0,0.0,0.0,0.0,0.0,0.0,0.0,0.0,0.0,0.0,0.0,0.0,0.0,0.0,0.0,0.0,0.0,0.0,0.0,0.0,0.0,0.0,0.0,0.0,0.0,0.0,0.0,0.0,0.0,0.0,0.0,0.0,0.0,0.0,0.0,0.0,0.0,0.0,0.0,0.0,0.0,0.0,0.0,0.1737,0.0,0.0,0.0,0.0,0.0,0.0,0.0,0.0,0.0,0.0,0.0,0.0,0.0,0.0,0.0,0.0,0.0,0.0,0.0,0.0,0.0,0.0,0.0,0.0,0.0,0.0,0.0,0.0,0.0,0.0,0.0,0.0,0.0,0.0,0.0,0.0,0.0,0.0,0.0,0.0,0.0,0.0,0.0,0.0,0.0,0.0,0.0,0.0,0.0,0.0,0.0,0.0,0.0,0.0,0.0,0.0,0.0,0.0,0.0,0.0,0.0,0.0,0.0,0.0,0.0,0.0,0.0,0.0,0.0,0.0,0.0,0.0,0.0,0.0,0.0,0.0,0.0,0.0,0.0,0.0,0.0,0.0,0.0,0.0,0.0,0.0,0.0,0.0,0.0,0.0,0.0,0.0,0.0,0.0,0.0,0.0,0.0,0.0,0.0,0.0,0.0,0.0,0.0,0.0,0.0,0.0,0.0,0.0,0.0,0.0,0.2471,0.2442,0.2252,0.1987,0.1631,0.0,0.0,0.0,0.0,0.0,0.0,0.0,0.0,0.0,0.0,0.0,0.0,0.0,0.0,0.0,0.0,0.0,0.0,0.0,0.0,0.0,0.0,0.0,0.0,0.0,0.0,0.0,0.0,0.0,0.0,0.0,0.0,0.0,0.0,0.0,0.0,0.0,0.0,0.0,0.0,0.0,0.0,0.0,0.0,0.0,0.0,0.0,0.0,0.0,0.0,0.0,0.0,0.0,0.0,0.0,0.0,0.0,0.0,0.0,0.0,0.0,0.0,0.0,0.0,0.0,0.0,0.0,0.0,0.0,0.0,0.0,0.0,0.0,0.0,0.0,0.0,0.0,0.0,0.0,0.0,0.0,0.0,0.0,0.0,0.0,0.0,0.0,0.0,0.0,0.0,0.0,0.0,0.0,0.0,0.0,0.0,0.0,0.0,0.0,0.0,0.0,0.0,0.0,0.0,0.0,0.0,0.0,0.0,0.0,0.0,0.0,0.0,0.2171,0.1842,0.1394,0.0,0.0,0.0,0.0,0.0,0.0,0.0,0.0,0.0,0.0,0.0,0.0,0.0,0.0,0.0,0.0,0.0,0.0,0.0,0.0,0.0,0.0,0.0,0.0,0.0,0.0,0.0,0.0,0.0,0.0,0.0,0.0,0.0,0.0,0.0,0.0,0.0,0.0,0.0,0.0,0.0,0.0,0.0,0.0,0.0,0.0,0.0,0.0,0.0,0.0,0.0,0.0,0.0,0.0,0.0,0.0,0.0,0.0,0.0,0.0,0.0,0.0,0.0,0.0,0.0,0.0,0.0,0.0,0.0,0.0,0.0,0.0,0.0,0.0,0.0,0.0,0.0,0.0,0.0,0.0,0.0,0.0,0.0,0.0,0.0,0.0,0.0,0.0,0.0,0.0,0.0,0.0,0.0,0.0,0.0,0.0,0.0,0.0,0.0,0.0,0.0,0.0,0.0,0.0,0.0,0.0,0.0,0.0,0.0,0.0,0.2436,0.2302,0.2048,0.0,0.0826,0.0,0.0,0.0,0.0,0.0,0.0,0.0,0.0,0.0,0.0,0.0,0.0,0.0,0.0,0.0,0.0,0.0,0.0,0.0,0.0,0.0,0.0,0.0,0.0,0.0,0.0,0.0,0.0,0.0,0.0,0.0,0.0,0.0,0.0,0.0,0.0,0.0,0.0,0.0,0.0,0.0,0.0,0.0,0.0,0.0,0.0,0.0,0.0,0.0,0.0,0.0,0.0,0.0,0.0,0.0,0.0,0.0,0.0,0.0,0.0,0.0,0.0,0.0,0.0,0.0,0.0,0.0,0.0,0.0,0.0,0.0,0.0,0.0,0.0,0.0,0.0,0.0,0.0,0.0,0.0,0.0,0.0,0.0,0.0,0.0,0.0,0.0,0.0,0.0,0.0,0.0,0.0,0.0,0.0,0.0,0.0,0.0,0.0,0.0,0.0,0.0,0.0,0.0,0.0,0.0,0.0,0.0,0.0,0.0,0.0,0.2426,0.2243,0.1745,0.1227,0.0,0.0,0.0,0.0,0.0,0.0,0.0,0.0,0.0,0.0,0.0,0.0,0.0,0.0,0.0,0.0,0.0,0.0,0.0,0.0,0.0,0.0,0.0,0.0,0.0,0.0,0.0,0.0,0.0,0.0,0.0,0.0,0.0,0.0,0.0,0.0,0.0,0.0,0.0,0.0,0.0,0.0,0.0,0.0,0.0,0.0,0.0,0.0,0.0,0.0,0.0,0.0,0.0,0.0,0.0,0.0,0.0,0.0,0.0,0.0,0.0,0.0,0.0,0.0,0.0,0.0,0.0,0.0,0.0,0.0,0.0,0.0,0.0,0.0,0.0,0.0,0.0,0.0,0.0,0.0,0.0,0.0,0.0,0.0,0.0,0.0,0.0,0.0,0.0,0.0,0.0,0.0,0.0,0.0,0.0,0.0,0.0,0.0,0.0,0.0,0.0,0.0,0.0,0.0,0.0,0.0,0.0,0.0,0.0,0.0,0.2461,0.2303,0.2033,0.1469,0.0991,0.062,0.0,0.0,0.0,0.0,0.0,0.0,0.0,0.0,0.0,0.0,0.0,0.0,0.0,0.0,0.0,0.0,0.0,0.0,0.0,0.0,0.0,0.0,0.0,0.0,0.0,0.0,0.0,0.0,0.0,0.0,0.0,0.0,0.0,0.0,0.0,0.0,0.0,0.0,0.0,0.0,0.0,0.0,0.0,0.0,0.0,0.0,0.0,0.0,0.0,0.0,0.0,0.0,0.0,0.0,0.0,0.0,0.0,0.0,0.0,0.0,0.0,0.0,0.0,0.0,0.0,0.0,0.0,0.0,0.0,0.0,0.0,0.0,0.0,0.0,0.0,0.0,0.0,0.0,0.0,0.0,0.0,0.0,0.0,0.0,0.0,0.0,0.0,0.0,0.0,0.0,0.0,0.0,0.0,0.0,0.0,0.0,0.0,0.0,0.0,0.0,0.0,0.0,0.0,0.0,0.0,0.0,0.0,0.0,0.249,0.2318,0.2038,0.1653,0.1286,0.0944,0.0,0.0,0.0,0.0,0.0,0.0,0.0,0.0,0.0,0.0,0.0,0.0,0.0,0.0,0.0,0.0,0.0,0.0,0.0,0.0,0.0,0.0,0.0,0.0,0.0,0.0,0.0,0.0,0.0,0.0,0.0,0.0,0.0,0.0,0.0,0.0,0.0,0.0,0.0,0.0,0.0,0.0,0.0,0.0,0.0,0.0,0.0,0.0,0.0,0.0,0.0,0.0,0.0,0.0,0.0,0.0,0.0,0.0,0.0,0.0,0.0,0.0,0.0,0.0,0.0,0.0,0.0,0.0,0.0,0.0,0.0,0.0,0.0,0.0,0.0,0.0,0.0,0.0,0.0,0.0,0.0,0.0,0.0,0.0,0.0,0.0,0.0,0.0,0.0,0.0,0.0,0.0,0.0,0.0,0.0,0.0,0.0,0.0,0.0,0.0,0.0,0.0,0.0,0.0,0.0,0.0,0.0,0.0,0.0,0.2371,0.2173,0.1946,0.1673,0.1329,0.0969,0.0,0.0,0.0,0.0,0.0,0.0,0.0,0.0,0.0,0.0,0.0,0.0,0.0,0.0,0.0,0.0,0.0,0.0,0.0,0.0,0.0,0.0,0.0,0.0,0.0,0.0,0.0,0.0,0.0,0.0,0.0,0.0,0.0,0.0,0.0,0.0,0.0,0.0,0.0,0.0,0.0,0.0,0.0,0.0,0.0,0.0,0.0,0.0,0.0,0.0,0.0,0.0,0.0,0.0,0.0,0.0,0.0,0.0,0.0,0.0,0.0,0.0,0.0,0.0,0.0,0.0,0.0,0.0,0.0,0.0,0.0,0.0,0.0,0.0,0.0,0.0,0.0,0.0,0.0,0.0,0.0,0.0,0.0,0.0,0.0,0.0,0.0,0.0,0.0,0.0,0.0,0.0,0.0,0.0,0.0,0.0,0.0,0.0,0.0,0.0,0.0,0.0,0.0,0.0,0.0,0.0,0.0,0.0,0.0,0.2201,0.0,0.1886,0.1649,0.1304,0.093,0.0,0.0,0.0,0.0,0.0,0.0,0.0,0.0,0.0,0.0,0.0,0.0,0.0,0.0,0.0,0.0,0.0,0.0,0.0,0.0,0.0,0.0,0.0,0.0,0.0,0.0,0.0,0.0,0.0,0.0,0.0,0.0,0.0,0.0,0.0,0.0,0.0,0.0,0.0,0.0,0.0,0.0,0.0,0.0,0.0,0.0,0.0,0.0,0.0,0.0,0.0,0.0,0.0,0.0,0.0,0.0,0.0,0.0,0.0,0.0,0.0,0.0,0.0,0.0,0.0,0.0,0.0,0.0,0.0,0.0,0.0,0.0,0.0,0.0,0.0,0.0,0.0,0.0,0.0,0.0,0.0,0.0,0.0,0.0,0.0,0.0,0.0,0.0,0.0,0.0,0.0,0.0,0.0,0.0,0.0,0.0,0.0,0.0,0.0,0.0,0.0,0.0,0.0,0.0,0.0,0.0,0.0,0.0,0.213,0.2019,0.199,0.1841,0.151,0.1182,0.0839,0.0,0.0,0.0,0.0,0.0,0.0,0.0,0.0,0.0,0.0,0.0,0.0,0.0,0.0,0.0,0.0,0.0,0.0,0.0,0.0,0.0,0.0,0.0,0.0,0.0,0.0,0.0,0.0,0.0,0.0,0.0,0.0,0.0,0.0,0.0,0.0,0.0,0.0,0.0,0.0,0.0,0.0,0.0,0.0,0.0,0.0,0.0,0.0,0.0,0.0,0.0,0.0,0.0,0.0,0.0,0.0,0.0,0.0,0.0,0.0,0.0,0.0,0.0,0.0,0.0,0.0,0.0,0.0,0.0,0.0,0.0,0.0,0.0,0.0,0.0,0.0,0.0,0.0,0.0,0.0,0.0,0.0,0.0,0.0,0.0,0.0,0.0,0.0,0.0,0.0,0.0,0.0,0.0,0.0,0.0,0.0,0.0,0.0,0.0,0.0,0.0,0.0,0.0,0.0,0.0,0.0,0.0,0.0,0.0,0.2199,0.1979,0.1746,0.1511,0.1119,0.0778,0.0,0.0,0.0,0.0,0.0,0.0,0.0,0.0,0.0,0.0,0.0,0.0,0.0,0.0,0.0,0.0,0.0,0.0,0.0,0.0,0.0,0.0,0.0,0.0,0.0,0.0,0.0,0.0,0.0,0.0,0.0,0.0,0.0,0.0,0.0,0.0,0.0,0.0,0.0,0.0,0.0,0.0,0.0,0.0,0.0,0.0,0.0,0.0,0.0,0.0,0.0,0.0,0.0,0.0,0.0,0.0,0.0,0.0,0.0,0.0,0.0,0.0,0.0,0.0,0.0,0.0,0.0,0.0,0.0,0.0,0.0,0.0,0.0,0.0,0.0,0.0,0.0,0.0,0.0,0.0,0.0,0.0,0.0,0.0,0.0,0.0,0.0,0.0,0.0,0.0,0.0,0.0,0.0,0.0,0.0,0.0,0.0,0.0,0.0,0.0,0.0,0.0,0.0,0.0,0.0,0.0,0.0,0.0,0.0,0.1924,0.1773,0.1577,0.1353,0.0957,0.0632,0.0362,0.0,0.0,0.0,0.0,0.0,0.0,0.0,0.0,0.0,0.0,0.0,0.0,0.0,0.0,0.0,0.0,0.0,0.0,0.0,0.0,0.0,0.0,0.0,0.0,0.0,0.0,0.0,0.0,0.0,0.0,0.0,0.0,0.0,0.0,0.0,0.0,0.0,0.0,0.0,0.0,0.0,0.0,0.0,0.0,0.0,0.0,0.0,0.0,0.0,0.0,0.0,0.0,0.0,0.0,0.0,0.0,0.0,0.0,0.0,0.0,0.0,0.0,0.0,0.0,0.0,0.0,0.0,0.0,0.0,0.0,0.0,0.0,0.0,0.0,0.0,0.0,0.0,0.0,0.0,0.0,0.0,0.0,0.0,0.0,0.0,0.0,0.0,0.0,0.0,0.0,0.0,0.0,0.0,0.0,0.0,0.0,0.0,0.0,0.0,0.0,0.0,0.0,0.0,0.0,0.0,0.0,0.0,0.0,0.125,0.1333,0.1273,0.1042,0.0658,0.0415,0.0,0.0,0.0,0.0,0.0,0.0,0.0,0.0,0.0,0.0,0.0,0.0,0.0,0.0,0.0,0.0,0.0,0.0,0.0,0.0,0.0,0.0,0.0,0.0,0.0,0.0,0.0,0.0,0.0,0.0,0.0,0.0,0.0,0.0,0.0,0.0,0.0,0.0,0.0,0.0,0.0,0.0,0.0,0.0,0.0,0.0,0.0,0.0,0.0,0.0,0.0,0.0,0.0,0.0,0.0,0.0,0.0,0.0,0.0,0.0,0.0,0.0,0.0,0.0,0.0,0.0,0.0,0.0,0.0,0.0,0.0,0.0,0.0,0.0,0.0,0.0,0.0,0.0,0.0,0.0,0.0,0.0,0.0,0.0,0.0,0.0,0.0,0.0,0.0,0.0,0.0,0.0,0.0,0.0,0.0,0.0,0.0,0.0,0.0,0.0,0.0,0.0,0.0,0.0,0.0,0.0,0.0,0.0,0.0,0.0505,0.0137,0.0075,0.0336,0.0154,0.0059,0.0,0.0,0.0,0.0,0.0,0.0,0.0,0.0,0.0,0.0,0.0,0.0,0.0,0.0,0.0,0.0,0.0,0.0,0.0,0.0,0.0,0.0,0.0,0.0,0.0,0.0,0.0,0.0,0.0,0.0,0.0,0.0,0.0,0.0,0.0,0.0,0.0,0.0,0.0,0.0,0.0,0.0,0.0,0.0,0.0,0.0,0.0,0.0,0.0,0.0,0.0,0.0,0.0,0.0,0.0,0.0,0.0,0.0,0.0,0.0,0.0,0.0,0.0,0.0,0.0,0.0,0.0,0.0,0.0,0.0,0.0,0.0,0.0,0.0,0.0,0.0,0.0,0.0,0.0,0.0,0.0,0.0,0.0,0.0,0.0,0.0,0.0,0.0,0.0,0.0,0.0,0.0,0.0,0.0,0.0,0.0,0.0,0.0,0.0,0.0,0.0,0.0,0.0,0.0,0.0,0.0,0.0,0.0,0.0411,-0.0244,-0.0796,-0.1019,-0.0862,-0.0571,-0.0329,0.0,0.0,0.0,0.0,0.0,0.0,0.0,0.0,0.0,0.0,0.0,0.0,0.0,0.0,0.0,0.0,0.0,0.0,0.0,0.0,0.0,0.0,0.0,0.0,0.0,0.0,0.0,0.0,0.0,0.0,0.0,0.0,0.0,0.0,0.0,0.0,0.0,0.0,0.0,0.0,0.0,0.0,0.0,0.0,0.0,0.0,0.0,0.0,0.0,0.0,0.0,0.0,0.0,0.0,0.0,0.0,0.0,0.0,0.0,0.0,0.0,0.0,0.0,0.0,0.0,0.0,0.0,0.0,0.0,0.0,0.0,0.0,0.0,0.0,0.0,0.0,0.0,0.0,0.0,0.0,0.0,0.0,0.0,0.0,0.0,0.0,0.0,0.0,0.0,0.0,0.0,0.0,0.0,0.0,0.0,0.0,0.0,0.0,0.0,0.0,0.0,0.0,0.0,0.0,0.0,0.0,0.0,0.0,-0.0086,-0.0963,-0.1537,-0.1958,-0.2178,-0.1416,-0.0767,0.0,0.0,0.0,0.0,0.0,0.0,0.0,0.0,0.0,0.0,0.0,0.0,0.0,0.0,0.0,0.0,0.0,0.0,0.0,0.0,0.0,0.0,0.0,0.0,0.0,0.0,0.0,0.0,0.0,0.0,0.0,0.0,0.0,0.0,0.0,0.0,0.0,0.0,0.0,0.0,0.0,0.0,0.0,0.0,0.0,0.0,0.0,0.0,0.0,0.0,0.0,0.0,0.0,0.0,0.0,0.0,0.0,0.0,0.0,0.0,0.0,0.0,0.0,0.0,0.0,0.0,0.0,0.0,0.0,0.0,0.0,0.0,0.0,0.0,0.0,0.0,0.0,0.0,0.0,0.0,0.0,0.0,0.0,0.0,0.0,0.0,0.0,0.0,0.0,0.0,0.0,0.0,0.0,0.0,0.0,0.0,0.0,0.0,0.0,0.0,0.0,0.0,0.0,0.0,0.0,0.0,0.0,0.0,-0.086,-0.1583,-0.2322,-0.2637,-0.2433,-0.1787,-0.1202,0.0,0.0,0.0,0.0,0.0,0.0,0.0,0.0,0.0,0.0,0.0,0.0,0.0,0.0,0.0,0.0,0.0,0.0,0.0,0.0,0.0,0.0,0.0,0.0,0.0,0.0,0.0,0.0,0.0,0.0,0.0,0.0,0.0,0.0,0.0,0.0,0.0,0.0,0.0,0.0,0.0,0.0,0.0,0.0,0.0,0.0,0.0,0.0,0.3187,0.0,0.0,0.0,0.0,0.0,0.0,0.0,0.0,0.0,0.0,0.0,0.0,0.0,0.0,0.0,0.0,0.0,0.0,0.0,0.0,0.0,0.0,0.0,0.0,0.0,0.0,0.0,0.0,0.0,0.0,0.0,0.0,0.0,0.0,0.0,0.0,0.0,0.0,0.0,0.0,0.0,0.0,0.0,0.0,0.0,0.0,0.0,0.0,0.0,0.0,0.0,0.0,0.0,0.0,0.0,0.0,0.0,0.0,0.0,-0.1437,-0.2166,-0.2769,-0.2974,-0.2735,-0.2091,-0.137,0.0,0.0,0.0,0.0,0.0,0.0,0.0,0.0,0.0,0.0,0.0,0.0,0.0,0.0,0.0,0.0,0.0,0.0,0.0,0.0,0.0,0.0,0.0,0.0,0.0,0.0,0.0,0.0,0.0,0.0,0.0,0.0,0.0,0.0,0.0,0.0,0.0,0.0,0.0,0.0,0.0,0.0,0.0,0.0,0.0,0.0,0.0,0.0,0.0,0.0,0.0,0.0,0.0,0.0,0.0,0.0,0.0,0.0,0.0,0.0,0.0,0.0,0.0,0.0,0.0,0.0,0.0,0.0,0.0,0.0,0.0,0.0,0.0,0.0,0.0,0.0,0.0,0.0,0.0,0.0,0.0,0.0,0.0,0.0,0.0,0.0,0.0,0.0,0.0,0.0,0.0,0.0,0.0,0.0,0.0,0.0,0.0,0.0,0.0,0.0,0.0,0.0,0.0,0.0,0.0,0.0,0.0,-0.1021,-0.1917,-0.262,-0.3054,-0.3166,-0.2914,-0.2229,-0.1375,-0.0367,0.0,0.0,0.0,0.0,0.0,0.0,0.0,0.0,0.0,0.0,0.0,0.0,0.0,0.0,0.0,0.0,0.0,0.0,0.0,0.0,0.0,0.0,0.0,0.0,0.0,0.0,0.0,0.0,0.0,0.0,0.0,0.0,0.0,0.0,0.0,0.0,0.0,0.0,0.1284,0.1956,0.0,0.0,0.0,0.0,0.0,0.0,0.0,0.0,0.2102,0.0,0.0,0.0,0.0,0.0,0.0,0.0,0.0,0.0,0.0,0.0,0.0,0.0,0.0,0.0,0.0,0.0,0.0,0.0,0.0,0.0,0.0,0.0,0.0,0.0,0.0,0.0,0.0,0.0,0.0,0.0,0.0,0.0,0.0,0.0,0.0,0.0,0.0,0.0,0.0,0.0,0.0,0.0,0.0,0.0,0.0,0.0,0.0,0.0,0.0,0.0,0.0,0.0,0.0,0.0,0.0,-0.0311,-0.1655,-0.247,-0.2777,-0.3323,-0.3271,-0.2512,-0.1935,-0.1156,-0.0127,0.0,0.0,0.0,0.0,0.0,0.0,0.0,0.0,0.0,0.0,0.0,0.0,0.0,0.0,0.0,0.0,0.0,0.0,0.0,0.0,0.0,0.0,0.0,0.0,0.0,0.0,0.0,0.0,0.0,0.0,0.0,0.0,0.0,0.0,0.0,0.0,0.0,0.0,0.0,0.1165,0.1662,0.0,0.0,0.0,0.0,0.0,0.0,0.0,0.0,0.0847,0.0,0.0,0.0,0.0,0.0,0.0,0.0,0.0,0.0,0.0,0.0,0.0,0.0,0.0,0.0,0.0,0.0,0.0,0.0,0.0,0.0,0.0,0.0,0.0,0.0,0.0,0.0,0.0,0.0,0.0,0.0,0.0,0.0,0.0,0.0,0.0,0.0,0.0,0.0,0.0,0.0,0.0,0.0,0.0,0.0,0.0,0.0,0.0,0.0,0.0,0.0,0.0,0.0,0.0,0.0,-0.0849,-0.2024,-0.2759,-0.2959,-0.3393,-0.3222,-0.2427,-0.1783,-0.0964,0.0,0.0,0.0,0.0,0.0,0.0,0.0,0.0,0.0,0.0,0.0,0.0,0.0,0.0,0.0,0.0,0.0,0.0,0.0,0.0,0.0,0.0,0.0,0.0,0.0,0.0,0.0,0.0,0.0,0.0,0.0,0.0,0.0,0.0,0.0,0.0,0.0,0.0,0.0,0.0,-0.0428,-0.0066,0.0566,0.0,0.0,0.0,0.0,0.0,0.0,0.0835,0.0134,0.0,0.0,0.0,0.0,0.0,0.0,0.0,0.0,0.0,0.0,0.0,0.0,0.0,0.0,0.0,0.0,0.0,0.0,0.0,0.0,0.0,0.0,0.0,0.0,0.0,0.0,0.0,0.0,0.0,0.0,0.0,0.0,0.0,0.0,0.0,0.0,0.0,0.0,0.0,0.0,0.0,0.0,0.0,0.0,0.0,0.0,0.0,0.0,0.0,0.0,0.0,0.0,0.0,0.0,0.0,-0.1278,-0.2368,-0.2977,-0.3103,-0.3348,-0.3095,-0.2341,-0.1636,-0.0813,0.0,0.0,0.0,0.0,0.0,0.0,0.0,0.0,0.0,0.0,0.0,0.0,0.0,0.0,0.0,0.0,0.0,0.0,0.0,0.0,0.0,0.0,0.0,0.0,0.0,0.0,0.0,0.0,0.0,0.0,0.0,0.0,0.0,0.0,0.0,0.0,0.0,0.0,0.0,0.0,0.0,-0.1959,-0.0928,-0.1264,0.0,0.0,0.0,0.0,0.0801,-0.0071,0.0,0.0,0.0,0.0,0.0,0.0,0.0,0.0,0.0,0.0,0.0,0.0,0.0,0.0,0.0,0.0,0.0,0.0,0.0,0.0,0.0,0.0,0.0,0.0,0.0,0.0,0.0,0.0,0.0,0.0,0.0,0.0,0.0,0.0,0.0,0.0,0.0,0.0,0.0,0.0,0.0,0.0,0.0,0.0,0.0,0.0,0.0,0.0,0.0,0.0,0.0,0.0,0.0,0.0,0.0,0.0,-0.158,-0.2721,-0.326,-0.3114,-0.3237,-0.2913,-0.2064,-0.1446,-0.071,0.0,0.0,0.0,0.0,0.0,0.0,0.0,0.0,0.0,0.0,0.0,0.0,0.0,0.0,0.0,0.0,0.0,0.0,0.0,0.0,0.0,0.0,0.0,0.0,0.0,0.0,0.0,0.0,0.0,0.0,0.0,0.0,0.0,0.0,0.0,0.0,0.0,0.0,0.0,0.0,0.0,-0.3571,-0.2783,-0.2892,-0.3289,0.0,0.0,-0.04,-0.0322,-0.1212,0.0,0.0,0.0,0.0,0.0,0.0,0.0,0.0,0.0,0.0,0.0,0.0,0.0,0.0,0.0,0.0,0.0,0.0,0.0,0.0,0.0,0.0,0.0,0.0,0.0,0.0,0.0,0.0,0.0,0.0,0.0,0.0,0.0,0.0,0.0,0.0,0.0,0.0,0.0,0.0,0.0,0.0,0.0,0.0,0.0,0.0,0.0,0.0,0.0,0.0,0.0,0.0,0.0,0.0,0.0,-0.1416,-0.2,-0.2929,-0.3355,-0.3276,-0.3296,-0.2905,-0.2067,-0.1394,-0.0654,0.0,0.0,0.0,0.0,0.0,0.0,0.0,0.0,0.0,0.0,0.0,0.0,0.0,0.0,0.0,0.0,0.0,0.0,0.0,0.0,0.0,0.0,0.0,0.0,0.0,0.0,0.0,0.0,0.0,0.0,0.0,0.0,0.0,0.0,0.0,0.0,0.0,0.0,0.0,0.0,0.0,0.0,-0.4425,-0.4499,0.0,0.0,0.0,-0.1741,-0.2489,0.0,0.0,0.0,0.0,0.0,0.0,0.0,0.0,0.0,0.0,0.0,0.0,0.0,0.0,0.0,0.0,0.0,0.0,0.0,0.0,0.0,0.0,0.0,0.0,0.0,0.0,0.0,0.0,0.0,0.0,0.0,0.0,0.0,0.0,0.0,0.0,0.0,0.0,0.0,0.0,0.0,0.0,0.0,0.0,0.0,0.0,0.0,0.0,0.0,0.0,0.0,0.0,0.0,0.0,0.0,0.0,0.0,-0.2446,-0.3224,-0.3549,-0.3406,-0.3407,-0.2991,-0.2124,-0.1416,0.0,0.0,0.0,0.0,0.0,0.0,0.0,0.0,0.0,0.0,0.0,0.0,0.0,0.0,0.0,0.0,0.0,0.0,0.0,0.0,0.0,0.0,0.0,0.0,0.0,0.0,0.0,0.0863,0.0,0.0,0.0,0.0,0.0,0.0,0.0,0.0,0.0,0.0,0.0,0.0,0.0,0.0,-0.675,-0.6225,-0.6159,-0.6464,0.0,0.0,-0.3238,-0.4803,-0.5185,-0.4627,0.0,0.0,0.0,0.0,0.0,0.0,0.0,0.0,0.0,0.0,0.0,0.0,0.0,0.0,0.0,0.0,0.0,0.0,0.0,0.0,0.0,0.0,0.0,0.0,0.0,0.0,0.0,0.0,0.0,0.0,0.0,0.0,0.0,0.0,0.0,0.0,0.0,0.0,0.0,0.0,0.0,0.0,0.0,0.0,0.0,0.0,0.0,0.0,0.0,0.0,0.0,0.0,0.0,0.0,-0.2176,-0.2864,-0.3768,-0.3972,-0.3436,-0.3581,-0.3163,-0.213,-0.151,-0.0844,0.0,0.0,0.0,0.0,0.0,0.0,0.0,0.0,0.0,0.0,0.0,0.0,0.0,0.0,0.0,0.0,0.0,0.0,0.0,0.0,0.0,0.0,0.0,0.0,0.0,0.0,0.0,0.0,0.0,0.0,0.0,0.0,0.0,0.0,0.0,0.0,0.0,0.0,0.0,0.0,0.0,-0.8464,-0.8476,-0.7854,-0.7879,0.0,-0.6566,-0.5014,-0.698,-0.6925,-0.5856,-0.3513,0.0,0.0,0.0,0.0,0.0,0.0,0.0,0.0,0.0,0.0,0.0,0.0,0.0,0.0,0.0,0.0,0.0,0.0,0.0,0.0,0.0,0.0,0.0,0.0,0.0,0.0,0.0,0.0,0.0,0.0,0.0,0.0,0.0,0.0,0.0,0.0,0.0,0.0,0.0,0.0,0.0,0.0,0.0,0.0,0.0,0.0,0.0,0.0,0.0,0.0,0.0,0.0,0.0,-0.2704,-0.3687,-0.4412,-0.4639,-0.4332,-0.4289,-0.3684,-0.2506,-0.1751,-0.1017,0.0,0.0,0.0,0.0,0.0,0.0,0.0,0.0,0.0,0.0,0.0,0.0,0.0,0.0,0.0,0.0,0.0,0.0,0.0,0.0,0.0,0.0,0.0,0.0,0.0,0.0,0.0,0.0,-0.0084,-0.0131,-0.0034,0.0,0.0,0.0,0.0,0.0,0.0,0.0,0.0,0.0,0.0,-0.9775,-1.0345,-1.0029,0.0,0.0,-0.8912,-0.8234,-0.941,-0.8329,-0.6826,-0.5295,-0.4814,0.0,0.0,0.0,0.0,0.0,0.0,0.0,0.0,0.0,0.0,0.0,0.0,0.0,0.0,0.0,0.0,0.0,0.0,0.0,0.0,0.0,0.0,0.0,0.0,0.0,0.0,0.0,0.0,0.0,0.0,0.0,0.0,0.0,0.0,0.0,0.0,0.0,0.0,0.0,0.0,0.0,0.0,0.0,0.0,0.0,0.0,0.0,0.0,0.0,0.0,0.0,0.0,-0.3345,-0.4406,-0.5179,-0.5402,-0.5029,-0.4898,-0.4208,-0.2918,-0.2096,-0.1297,0.0,0.0,0.0,0.0,0.0,0.0,0.0,0.0,0.0,0.0,0.0,0.0,0.0,0.0,0.0,0.0,0.0,0.0,0.0,0.0,0.0,0.0,0.0,0.0,0.0,0.0,0.0,0.0,-0.0606,-0.0472,-0.0524,0.0,0.0,0.0,0.0,0.0,0.0,0.0,0.0,0.0,0.0,-1.0763,-1.1472,-1.1418,-1.1175,-1.0875,-1.0435,-1.0261,-1.0553,-0.9197,-0.789,-0.7246,0.0,0.0,0.0,0.0,0.0,0.0,0.0,0.0,0.0,0.0,0.0,0.0,0.0,0.0,0.0,0.0,0.0,0.0,0.0,0.0,0.0,0.0,0.0,0.0,0.0,0.0,0.0,0.1709,0.0,0.0,0.1673,0.0,0.0,0.0,0.0,0.0,0.0,0.0,0.0,0.0,0.0,0.0,0.0,0.0,0.0,0.0,0.0,0.0,0.0,0.0,0.0,0.0,0.0,-0.4159,-0.489,-0.6054,-0.623,-0.5364,-0.5355,-0.4722,-0.3355,-0.2517,-0.1712,-0.0897,0.0,0.0,0.0,0.0,0.0,0.0,0.0,0.0,0.0,0.0,0.0,0.0,0.0,0.0,0.0,0.0,0.0,0.0,0.0,0.0,0.0,0.0,0.0,0.0,0.0,0.0,-0.1651,-0.1036,-0.0748,0.0,0.0,0.0,0.0,0.0,0.0,0.0,0.0,0.0,-0.972,-1.0504,-1.1324,-1.1714,-1.1768,-1.1619,-1.1183,-1.0916,-1.0537,-1.0058,-0.9457,-0.9122,0.0,0.0,0.0,0.0,0.0,0.0,0.0,0.0,0.0,0.0,0.0,0.0,0.0,0.0,0.0,0.0,0.0,0.0,0.0,0.0,0.0,0.0,0.0,0.0,0.0,0.0,0.0,0.0802,0.077,0.0,0.0,0.0,0.0,0.0,0.0,0.0,0.0,0.0,0.0,0.0,-0.5086,-0.5837,0.0,0.0,0.0,0.0,0.0,0.0,0.0,0.0,0.0,0.0,0.0,0.0,-0.5073,-0.6389,-0.704,-0.7244,-0.6956,-0.6637,-0.586,-0.4587,-0.3509,-0.2185,-0.0564,0.0,0.0,0.0,0.0,0.0,0.0,0.0,0.0,0.0,0.0,0.0,0.0,0.0,0.0,0.0,0.0,0.0,0.0,0.0,0.0,0.0,0.0,0.0,0.0,0.0,-0.3438,0.0,0.0,0.0,0.0,0.0,0.0,0.0,0.0,0.0,0.0,-0.9526,-1.0933,-1.1756,-1.1508,-1.1362,-1.1637,-1.1747,-1.1993,0.0,0.0,0.0,0.0,0.0,0.0,0.0,0.0,0.0,0.0,0.0,0.0,0.0,0.0,-0.9241,-0.4499,-0.3992,-0.4804,-0.6433,0.0,0.0,0.0,0.0,0.0,0.0,0.0,0.0,0.0,0.0,0.0,0.0,0.0,0.0,-0.0974,-0.0811,-0.0722,0.0,0.0,0.0,0.0,0.0,0.0,0.0,0.0,-0.6515,-0.7563,-0.8094,-0.8895,-0.9079,-0.8743,-0.8565,-0.734,0.0,0.0,0.0,0.0,0.0,0.0,0.0,0.0,-0.6282,-0.7413,-0.8027,-0.8197,-0.7947,-0.7511,-0.6676,-0.5435,-0.3951,-0.2417,-0.0763,0.0185,0.0933,0.0,0.0,0.0,0.0,0.0,0.0,0.0,0.0,0.0,0.0,0.0,0.0,0.0,0.0,0.0,0.0,0.0,0.0,0.0,0.0,0.0,0.0,0.0,-0.5088,0.0,0.0,0.0,0.0,0.0,0.0,0.0,0.0,0.0,-0.9183,-1.0924,-1.2278,-1.2898,-1.2355,-1.1954,-1.2105,0.0,0.0,0.0,0.0,0.0,0.0,0.0,-1.1749,-1.3459,-1.3882,-1.3599,-1.2538,-1.1495,-1.1601,-1.4003,0.0,0.0,-0.746,-0.6613,-0.744,-0.9692,-0.8362,-0.6955,-0.7376,-0.7551,-0.751,0.0,0.0,0.0,0.0,-0.1711,0.0,0.0,0.0,-0.354,-0.3471,0.0,-0.2937,0.0,0.0,0.0,0.0,-0.4235,-0.5814,0.0,0.0,-0.9638,-1.0697,-1.1358,-1.1881,-1.213,-1.2109,-1.1684,-1.1285,-1.0785,-0.7586,0.0,0.0,0.0,0.0,0.0,0.0,-0.7763,-0.8018,-0.8977,-0.9093,-0.829,-0.7982,-0.7197,-0.5826,-0.3922,-0.2488,-0.1567,-0.0459,0.0401,0.0969,0.1631,0.0,0.0,0.0,0.0,0.0,0.0,0.0,0.0,0.0,0.0,0.0,0.0,0.0,0.0,0.0,0.0,0.0,0.0,0.0,0.0,-0.6114,0.0,0.0,0.0,0.0,0.0,0.0,0.0,0.0,0.0,-0.8406,-0.9968,-1.2621,-1.4148,-1.3193,0.0,0.0,0.0,0.0,-1.5283,-1.5254,-1.5298,-1.4819,-1.3467,-1.3051,-1.3474,-1.5213,0.0,0.0,-1.359,-1.3467,-1.4084,-1.5866,-1.6119,-1.4805,-1.0466,-1.0058,-1.0983,-1.2649,-1.1269,-0.9892,-0.9945,-0.9742,-0.9548,-0.6634,0.0,0.0,0.0,0.0,-0.491,-0.5523,-0.648,-0.6604,-0.6401,-0.5965,-0.604,0.0,0.0,0.0,0.0,0.0,0.0,-1.0095,-1.1166,-1.2635,-1.376,-1.4575,-1.4926,-1.497,-1.4753,-1.418,-1.3677,-1.3202,-1.1971,-1.0272,-0.8228,0.0,0.0,0.0,0.0,-0.916,-0.9718,-0.977,-0.969,-0.9488,-0.8793,-0.7694,-0.6102,-0.4798,-0.3566,-0.2464,-0.1377,-0.0434,0.0343,0.126,0.0,0.0,0.0,0.0,0.0,0.0,0.0,0.0,0.0,0.0,0.0,0.0,0.0,0.0,0.0,0.0,0.0,0.0,0.0,-0.9059,-0.8579,-0.7971,0.0,0.0,0.0,0.0,0.0,0.0,0.0,0.0,0.0,-1.2822,-1.3874,-1.4439,0.0,0.0,-1.3319,-1.4193,-1.4691,-1.498,-1.5073,-1.5208,0.0,-1.4776,-1.4645,-1.4877,-1.5709,-1.5855,-1.5706,-1.5274,-1.524,-1.5486,-1.612,-1.6208,-1.5736,-1.4574,-1.3311,-1.3257,-1.4648,-1.4495,-1.3372,-1.1796,-1.1251,-1.095,-1.1244,-0.909,-0.7645,-0.7511,-0.8259,-0.8429,-0.9015,-0.9882,-0.9882,-0.9631,-0.9221,-0.9342,-0.9159,-0.8813,-0.9207,0.0,0.0,0.0,-1.34,-1.4212,-1.5428,-1.6302,-1.6882,-1.7165,-1.7068,-1.6679,-1.629,-1.5802,-1.5265,-1.4909,-1.3801,-1.1959,0.0,-1.0701,-1.063,-1.0799,-1.1041,-1.1293,-1.1118,-1.0893,-1.0627,-0.9526,-0.8343,-0.7182,-0.5879,-0.4708,-0.3669,-0.2466,-0.1475,-0.0685,0.0377,0.1369,0.0,0.0,0.0,0.0,0.0,0.0,0.0,0.0,0.0,0.0,0.0,-0.144,-0.2424,0.0,0.0,0.0,-0.6292,-0.9251,-1.0866,-1.0218,0.0,0.0,0.0,0.0,0.0,0.0,0.0,-1.3361,-1.2659,-1.2676,-1.4095,-1.4383,-1.4483,-1.4655,-1.4132,-1.3965,-1.471,0.0,-1.4825,-1.4904,-1.5012,-1.5162,-1.5283,-1.5343,-1.5536,-1.5925,-1.5912,-1.5913,-1.6053,-1.6081,-1.6095,-1.6166,-1.6153,-1.6137,-1.6194,-1.5288,-1.4821,-1.5857,-1.6011,-1.5199,-1.3041,-1.2359,-1.1841,-1.5331,-1.4793,-1.2101,-1.1265,-1.1752,-1.232,-1.2811,-1.3215,-1.323,-1.3059,-1.2667,-1.2688,-1.2512,-1.2268,-1.3517,0.0,-1.4714,-1.5794,-1.6547,-1.711,-1.7873,-1.8338,-1.8554,-1.8763,-1.8581,-1.8072,-1.7969,-1.7605,-1.6995,-1.6684,-1.6309,-1.5853,-1.4128,-1.3045,-1.2746,-1.3109,-1.3112,-1.2737,-1.2742,-1.2383,-1.164,-1.0213,-0.9207,-0.8698,-0.7141,-0.5909,-0.5057,-0.3731,-0.2684,-0.1973,-0.0941,0.0235,0.1511,0.0,0.0,0.0,0.0,0.0,0.0,0.0,0.0,0.0,0.0,0.0,0.0,0.0,0.0,-0.4763,-0.9411,0.0,-1.1591,-1.1388,0.0,0.0,0.0,-1.0376,-1.0957,-1.2839,-1.4066,-1.4062,0.0,0.0,-1.4219,-1.4382,-1.4501,-1.4605,-1.4725,-1.4793,-1.4793,-1.4793,-1.4836,-1.4991,-1.4878,-1.4902,-1.5178,-1.5343,-1.5522,-1.5797,-1.5886,-1.5975,-1.6157,-1.638,-1.6348,-1.6196,-1.6067,-1.6011,-1.6123,-1.6063,-1.6196,-1.6204,-1.6199,-1.57,-1.4124,-1.3262,-1.2502,-1.7672,-1.7912,-1.696,-1.5696,-1.4392,-1.4541,-1.5128,-1.6025,-1.6247,-1.6098,-1.5729,-1.5425,-1.4794,-1.3962,-1.5024,-1.5659,-1.5997,-1.6764,-1.7684,-1.8628,-1.8949,-1.9425,-1.9971,-1.9596,-1.943,-1.9422,-1.8528,-1.8009,-1.7869,-1.7196,-1.6883,-1.6845,-1.6293,-1.5477,-1.4444,-1.441,-1.4201,-1.3737,-1.3451,-1.2846,-1.1902,-1.1187,-1.0409,-0.9538,-0.8545,-0.7488,-0.6386,-0.5289,-0.4296,-0.3425,-0.2389,-0.121,0.0045,-0.0311,0.0,0.0,0.0,0.0,0.0,0.0,0.0,0.0,0.0,-0.4622,-0.6016,0.0,-0.6745,0.0,-1.1884,-1.4431,-1.4328,-1.3927,0.0,0.0,-1.2758,-1.2602,-1.3649,-1.5318,-1.6388,-1.6388,-1.4787,-1.3825,-1.4252,-1.5101,-1.5684,-1.571,-1.5087,-1.4683,-1.4779,-1.4793,-1.5159,-1.5977,-1.5469,-1.4838,-1.4917,-1.5027,-1.5178,-1.5225,-1.5889,-1.6308,-1.6102,-1.6996,-1.7378,-1.6312,-1.5941,-1.5827,-1.5784,-1.5898,-1.614,-1.6351,-1.6307,-1.588,-1.4761,-1.4342,-1.3646,-1.9273,-1.9608,-1.9489,-1.8836,-1.7875,-1.7485,-1.7874,-1.8779,-1.8317,-1.8134,-1.8163,-1.7788,-1.7505,-1.7302,-1.7852,-1.8164,-1.8329,-1.8706,-1.9241,-1.9869,-1.9945,-2.0187,-2.0574,-2.0237,-2.0023,-1.9893,-1.9205,-1.8737,-1.8503,-1.8048,-1.7761,-1.7641,-1.7578,-1.7029,-1.6099,-1.586,-1.5483,-1.5051,-1.4363,-1.3728,-1.3079,-1.2416,-1.1712,-1.101,-0.9908,-0.8872,-0.7935,-0.6732,-0.578,-0.5069,-0.4089,-0.292,-0.1633,-0.217,-0.3129,0.0,0.0,0.0,0.0,0.0,0.0,0.0,0.0,0.0,0.0,0.0,-0.9328,-1.1638,-1.4424,-1.5859,-1.5282,-1.4931,-1.478,-1.4813,-1.4293,-1.4223,-1.4968,-1.6325,-1.7212,-1.7199,-1.5204,-1.3871,-1.408,-1.5536,-1.659,-1.659,-1.5775,-1.5051,-1.486,-1.5613,-1.6719,-1.7351,-1.6902,-1.5986,-1.5033,-1.5112,-1.5397,-1.5607,-1.6108,-1.655,-1.6621,-1.7269,-1.7556,-1.6741,-1.604,-1.5699,-1.5917,-1.5787,-1.5905,-1.6638,-1.704,-1.6686,-1.5445,-1.5189,-1.4656,-2.0641,-2.0895,-2.0986,-2.1218,-2.1502,-2.0673,-2.059,-2.1005,-1.9748,-1.9497,-1.9991,-1.9695,-1.9982,-2.0686,-2.0633,-2.0633,-2.0699,-2.0633,-2.0646,-2.0699,-2.0699,-2.0699,-2.0699,-2.0699,-2.0425,-1.9917,-1.9839,-1.9514,-1.9005,-1.8937,-1.8695,-1.8297,-1.8284,-1.8021,-1.7508,-1.7182,-1.6782,-1.621,-1.5276,-1.4697,-1.4489,-1.363,-1.2991,-1.2582,-1.1274,-1.02,-0.9504,-0.8202,-0.7252,-0.6758,-0.5902,-0.4777,-0.3451,-0.4344,-0.566,0.0,-0.6432,0.0,0.0,0.0,0.0,0.0,0.0,0.0,0.0,-1.0323,-1.185,-1.5413,-1.6611,-1.6692,-1.5466,-1.5369,-1.5395,-1.5453,-1.5441,-1.5511,-1.5742,-1.6557,-1.7136,-1.7199,-1.5453,-1.4236,-1.4393,-1.5958,-1.7102,-1.6972,-1.6461,-1.5801,-1.5291,-1.6709,-1.7991,-1.8389,-1.8478,-1.7469,-1.5878,-1.5729,-1.6118,-1.6386,-1.6508,-1.6737,-1.7113,-1.7466,-1.7466,-1.6913,-1.5933,-1.5482,-1.6171,-1.5709,-1.5725,-1.6754,-1.7628,-1.7663,-1.6147,-1.5758,-1.5548,-2.2846,-2.3388,-2.3238,-2.353,-2.4036,-2.322,-2.2185,-2.1074,-2.0591,-2.0445,-2.0536,-2.0495,-2.0557,-2.0673,-2.019,-2.0242,-2.0673,-2.0203,-2.0242,-2.0699,-2.0699,-2.0699,-2.0699,-2.0699,-2.0646,-2.0491,-2.0022,-1.9747,-1.9616,-1.9133,-1.8845,-1.8764,-1.8764,-1.8511,-1.7992,0.0,0.0,0.0,-1.5657,-1.521,-1.4949,-1.4413,-1.3863,-1.3252,-1.2652,0.0,-1.0565,-0.9822,-0.9035,-0.8154,-0.7487,0.0,0.0,0.0,0.0,0.0,0.0,0.0,0.0,0.0,0.0,0.0,-1.1179,-1.1372,-1.1487,-1.2952,-1.4738,-1.668,-1.7081,-1.7086,-1.6837,-1.679,-1.6824,-1.6818,-1.6818,-1.6852,-1.6878,-1.6747,-1.6778,-1.7144,-1.6807,-1.6532,-1.6453,-1.6653,-1.6637,-1.6616,-1.6683,-1.6766,-1.6856,-1.6818,-1.713,-1.8007,-1.8248,-1.8064,-1.7421,-1.7168,-1.701,-1.7083,-1.6991,-1.6876,-1.6721,-1.7707,-1.7591,-1.5929,-1.5068,-1.4996,-1.5124,-1.5202,-1.5486,-1.619,-1.7202,-1.7628,-1.6371,-1.618,-1.6066,-2.3863,-2.4454,-2.4532,-2.4804,0.0,-2.4133,-2.3286,-2.2508,-2.1524,-2.0949,-2.0725,-2.0975,-2.1106,-2.1106,-2.1106,-2.1263,-2.1498,-2.1223,-2.1237,-2.1538,-2.1524,-2.155,-2.1537,-2.155,-2.1406,-2.1093,-2.078,-2.0505,-2.0242,-1.9954,-1.9653,-1.9355,-1.9355,-1.9068,-1.8493,-1.8231,-1.7561,-1.65,-1.6066,-1.5703,-1.539,-1.4971,-1.4528,-1.4069,-1.3516,0.0,0.0,0.0,0.0,0.0,0.0,0.0,0.0,-0.9338,0.0,-1.2324,-1.1476,-1.1033,-1.1368,-1.1651,-1.1978,-1.2366,-1.2984,-1.3222,-1.29,-1.4118,-1.5527,-1.7027,-1.7212,-1.7212,-1.7212,-1.7212,-1.7212,-1.7212,-1.7212,-1.7212,-1.7115,-1.6358,-1.6098,-1.6723,-1.6863,-1.6863,-1.6842,-1.6445,-1.6132,-1.6044,-1.6328,-1.662,-1.6824,-1.6903,-1.7231,-1.7947,-1.8228,-1.8189,-1.7788,-1.7509,-1.7331,-1.7209,-1.7175,-1.7082,-1.6929,-1.7577,-1.7705,-1.6559,-1.633,-1.6045,-1.481,-1.4829,-1.5226,-1.5811,-1.6346,-1.6526,-1.5884,-1.6215,-1.6372,-2.4587,-2.5071,-2.546,-2.5698,-2.5825,-2.4814,-2.4281,-2.3965,-2.2374,0.0,0.0,-2.1603,-2.1877,-2.1982,-2.2388,-2.2531,-2.2544,-2.244,-2.2414,-2.2413,-2.2401,-2.2401,-2.2401,-2.2401,-2.2139,-2.1681,-2.1668,-2.1368,-2.0844,-2.0856,-2.0556,-2.0009,-1.9956,-1.9656,-1.9068,-1.8519,-1.7804,-1.6905,-1.6433,-1.6057,-1.5703,-1.5345,-1.5006,-1.4743,-1.4205,-1.3773,-1.3486,-1.2729,-1.223,-1.2073,-1.1697,-1.1522,-1.1661,-1.1818,-1.2438,-1.3455,-1.3086,-1.2883,-1.3054,-1.3225,-1.3374,-1.3479,-1.4118,-1.4411,-1.4196,-1.47,-1.557,-1.6975,-1.7157,-1.7199,-1.7178,-1.7199,-1.7212,-1.7212,-1.7212,-1.7212,-1.7136,-1.6054,-1.5558,-1.6141,-1.6371,-1.6436,-1.6371,-1.6035,-1.5681,-1.5536,-1.5802,-1.6078,-1.621,-1.682,-1.7375,-1.7727,-1.8029,-1.8149,-1.7611,-1.7206,-1.7081,-1.7052,-1.7039,-1.7165,-1.7372,-1.7455,-1.7537,-1.7565,-1.7782,-1.6711,-1.4792,-1.4409,-1.4849,-1.5474,-1.5517,-1.5367,-1.5267,-1.5933,-1.6182,-2.5605,-2.603,-2.654,-2.6876,-2.7017,-2.6544,-2.5484,-2.4005,-2.282,-2.2493,-2.2858,-2.2908,-2.3234,-2.3733,-2.3289,-2.3093,-2.3039,-2.261,-2.2414,-2.2413,-2.2414,-2.2401,-2.24,-2.2401,-2.2362,-2.2283,-2.2283,-2.1982,-2.1446,-2.1394,-2.1106,-2.066,-2.0581,-2.0255,-1.9669,-1.9081,-1.8384,-1.7562,-1.6726,-1.612,-1.5792,-1.5447,-1.5165,-1.488,-1.4767,-1.444,-1.385,-1.3587,-1.3238,-1.2785,-1.2584,-1.2659,-1.299,-1.3161,-1.3673,-1.4575,-1.4438,-1.4347,-1.4495,-1.4541,-1.4575,-1.4665,-1.4767,-1.4857,-1.4957,-1.5235,-1.5743,-1.6543,-1.6947,-1.7157,-1.7052,-1.7136,-1.7212,-1.7212,-1.7212,-1.7212,-1.7178,-1.6306,-1.5558,-1.5401,-1.5846,-1.6122,-1.5913,-1.5691,-1.5446,-1.5266,-1.5424,-1.5669,-1.5891,-1.65,-1.7023,-1.7316,-1.7686,-1.7747,-1.7323,-1.6871,-1.6637,-1.6607,-1.6629,-1.6757,-1.7115,-1.722,-1.7248,-1.7282,-1.73,-1.6447,-1.4467,-1.3898,-1.4315,-1.4849,-1.5094,-1.5153,-1.4963,-1.5194,-1.5192,-2.5676,-2.6072,-2.6496,-2.6871,-2.7103,-2.6811,-2.6015,-2.4849,-2.4303,-2.3556,-2.2805,-2.308,-2.3339,-2.36,-2.3652,-2.3665,-2.3665,-2.3433,-2.3315,-2.33,-2.3315,-2.3315,-2.33,-2.3315,-2.3145,-2.2843,-2.2817,-2.2544,-2.2022,-2.1655,-2.1381,-2.1106,-2.0831,-2.0568,-2.0268,-1.9682,-1.9123,-1.8605,-1.7478,-1.6547,-1.5826,-1.5547,-1.5266,-1.5028,-1.5006,-1.4869,-1.4564,-1.4418,-1.4239,-1.3994,-1.3873,-1.3917,-1.415,-1.4227,-1.4485,-1.496,-1.4914,-1.4914,-1.496,-1.4971,-1.496,-1.5006,-1.5006,-1.504,-1.5097,-1.5221,-1.5513,-1.6066,-1.6543,-1.6863,-1.6939,-1.7094,-1.7212,-1.7212,-1.7212,-1.7157,-1.6981,-1.6219,-1.5503,-1.5198,-1.5379,-1.5536,-1.5424,-1.5334,-1.5198,-1.5006,-1.5131,-1.5311,-1.5424,-1.5714,-1.6132,-1.6607,-1.722,-1.7393,-1.6997,-1.6466,-1.6219,-1.6331,-1.6262,-1.6371,-1.6629,-1.682,-1.6947,-1.685,-1.6811,-1.6563,-1.5587,-1.5117,-1.495,-1.5,-1.5399,-1.5409,-1.4928,-1.4576,-1.4346,-2.5407,-2.5793,-2.6129,-2.6598,-2.7035,-2.6746,-2.6316,-2.5773,-2.5586,-2.4641,-2.3341,-2.3545,-2.3754,-2.3835,-2.4295,-2.4461,-2.4491,-2.4374,-2.4308,-2.4295,-2.4148,-2.4125,-2.4125,-2.4125,-2.3848,-2.343,-2.342,-2.3119,-2.2584,-2.21,-2.1838,-2.1681,-2.1302,-2.1001,-2.087,-2.0414,-1.9915,-1.9337,-1.8282,-1.7148,-1.6063,-1.5758,-1.5462,-1.5142,-1.5119,-1.5119,-1.5085,-1.5006,-1.4926,-1.4937,-1.4891,-1.4903,-1.4926,-1.4949,-1.4983,-1.5085,-1.5119,-1.5119,-1.5119,-1.5119,-1.5119,-1.5119,-1.5119,-1.5119,-1.5119,-1.5119,-1.5244,-1.5637,-1.6066,-1.6457,-1.6757,-1.7052,-1.7212,-1.7212,-1.7212,-1.717,-1.6939,-1.6197,-1.5491,-1.5198,-1.5119,-1.5119,-1.5119,-1.5119,-1.5028,-1.4926,-1.4983,-1.5097,-1.5119,-1.5119,-1.5356,-1.5913,-1.6659,-1.6976,-1.6595,-1.611,-1.5915,-1.6069,-1.5991,-1.5957,-1.6088,-1.6371,-1.6522,-1.6358,-1.633,-1.6447,-1.6818,-1.6199,-1.5532,-1.5417,-1.563,-1.5636,-1.5021,-1.4319,-1.3907,-2.5052,-2.5394,-2.5781,-2.6487,-2.717,-2.6673,-2.6499,-2.6498,-2.5812,-2.5545,-2.544,-2.5351,-2.5382,-2.5558,-2.5558,-2.5584,-2.5532,-2.5149,-2.4913,-2.4861,-2.436,-2.4125,-2.4178,-2.4122,-2.4099,-2.4018,-2.4031,-2.3799,-2.3263,-2.3093,-2.2792,-2.2347,-2.2269,-2.1943,-2.1485,-2.1381,-2.0668,-1.9267,-1.8882,-1.7994,-1.6688,-1.6221,-1.5742,-1.5131,-1.5119,-1.5119,-1.5119,-1.5085,-1.5085,-1.5085,-1.5062,-1.5074,-1.5085,-1.5085,-1.5085,-1.5119,-1.5119,-1.5119,-1.5119,-1.5119,-1.5119,-1.5119,-1.5119,-1.5119,-1.5119,-1.5119,-1.5108,-1.5266,-1.5614,-1.6044,-1.6513,-1.6947,-1.7199,-1.7191,-1.7199,-1.7212,-1.7073,-1.6543,-1.5859,-1.5164,-1.5131,-1.5119,-1.5119,-1.5085,-1.504,-1.4903,-1.4949,-1.5051,-1.5074,-1.5051,-1.5062,-1.5311,-1.5846,-1.6219,-1.6054,-1.578,-1.5637,-1.5703,-1.5637,-1.558,-1.5625,-1.5647,-1.5669,-1.5891,-1.5891,-1.6076,-1.6298,-1.603,-1.5619,-1.5621,-1.5646,-1.5552,-1.5291,-1.4642,-1.4057,-2.5218,-2.5253,-2.5676,-2.6396,-2.704,-2.6989,-2.6998,-2.6979,-2.6739,-2.6615,-2.6668,-2.6602,-2.6304,-2.5793,-2.578,-2.578,-2.5767,-2.5576,-2.5471,-2.5458,-2.5223,-2.5101,-2.5101,-2.5132,-2.5088,-2.5101,-2.5088,-2.4984,-2.4657,-2.407,-2.3459,-2.291,-2.257,-2.2283,-2.2034,-2.1914,-2.1442,-2.0701,-1.9927,-1.9005,-1.7937,-1.6726,-1.5927,-1.5567,-1.5257,-1.5119,-1.5119,-1.5119,-1.5119,-1.5119,-1.5119,-1.5119,-1.5119,-1.5119,-1.5119,-1.5119,-1.5119,-1.5119,-1.5119,-1.5119,-1.5119,-1.5119,-1.5119,-1.5119,-1.5119,-1.5119,-1.5119,-1.5131,-1.5289,-1.5647,-1.6275,-1.6854,-1.7191,-1.7115,-1.7149,-1.7212,-1.7212,-1.6714,-1.6132,-1.5614,-1.5266,-1.5119,-1.5062,-1.4983,-1.4903,-1.4823,-1.4777,-1.4754,-1.488,-1.48,-1.4766,-1.4949,-1.53,-1.558,-1.5691,-1.5491,-1.5379,-1.5435,-1.539,-1.5266,-1.5289,-1.5266,-1.5311,-1.5401,-1.5536,-1.578,-1.6253,-1.6375,-1.6231,-1.6167,-1.6075,-1.6042,-1.6036,-1.5369,-1.4833,-2.5414,-2.5394,-2.5828,-2.643,-2.7024,-2.7201,-2.7335,-2.7335,-2.7302,-2.7335,-2.7335,-2.7335,-2.6914,-2.6328,-2.6295,-2.625,-2.6237,-2.6138,-2.6073,-2.6033,-2.5871,-2.578,-2.578,-2.578,-2.578,-2.578,-2.5754,-2.5767,-2.5702,-2.501,-2.4331,-2.3887,-2.3537,-2.3184,-2.2882,-2.2676,-2.2272,-2.1582,-2.068,-1.9815,-1.8932,-1.7549,-1.6591,-1.6156,-1.5613,-1.5338,-1.536,-1.5211,-1.5119,-1.5119,-1.5119,-1.5085,-1.5062,-1.5085,-1.5119,-1.5085,-1.5062,-1.5085,-1.5097,-1.5119,-1.5119,-1.5119,-1.5119,-1.5119,-1.5119,-1.5119,-1.5119,-1.5119,-1.5119,-1.5379,-1.5925,-1.6671,-1.7031,-1.6981,-1.7094,-1.7199,-1.7178,-1.6778,-1.6349,-1.6013,-1.5603,-1.521,-1.5028,-1.4834,-1.4684,-1.4696,-1.4546,-1.4454,-1.4627,-1.4546,-1.45,-1.4753,-1.4926,-1.5119,-1.5356,-1.5255,-1.5176,-1.5221,-1.5176,-1.5131,-1.5119,-1.5108,-1.5108,-1.5266,-1.5379,-1.5702,-1.6219,-1.6522,-1.6757,-1.6904,-1.6811,-1.6605,-1.6631,-1.6192,-1.5918,-2.5338,-2.5873,-2.6233,-2.6611,-2.7024,-2.7227,-2.7382,-2.7535,-2.7408,-2.7382,-2.7496,-2.7369,-2.733,-2.7359,-2.7307,-2.7398,-2.7307,-2.6857,-2.6667,-2.6582,-2.6125,-2.5819,-2.578,-2.578,-2.5832,-2.5936,-2.595,-2.591,-2.5871,-2.5772,-2.5715,-2.5623,-2.548,-2.504,-2.4122,-2.3807,-2.3055,-2.1722,-2.1027,-2.0366,-1.9598,-1.8868,-1.7885,-1.694,-1.6216,-1.5973,-1.5986,-1.5441,-1.5142,-1.5131,-1.5131,-1.5063,-1.4949,-1.5074,-1.5165,-1.512,-1.5028,-1.5006,-1.5108,-1.5143,-1.5108,-1.5085,-1.5097,-1.5108,-1.5131,-1.5119,-1.5142,-1.5108,-1.5142,-1.5221,-1.5491,-1.6284,-1.682,-1.6876,-1.7052,-1.7178,-1.7199,-1.6778,-1.6556,-1.6362,-1.5991,-1.547,-1.4925,-1.4604,-1.45,-1.4523,-1.4477,-1.443,-1.443,-1.443,-1.4534,-1.4707,-1.4822,-1.4857,-1.4926,-1.5153,-1.5198,-1.5221,-1.5289,-1.5142,-1.5119,-1.5119,-1.5119,-1.521,-1.5468,-1.5834,-1.6272,-1.6586,-1.6778,-1.6942,-1.711,-1.7055,-1.6984,-1.7107,-1.6872,-2.6106,-2.6405,-2.6314,-2.6533,-2.7028,-2.7499,-2.7812,-2.8072,-2.8038,-2.8038,-2.8007,-2.7639,-2.7456,-2.7503,-2.7503,-2.7503,-2.7477,-2.7268,-2.721,-2.7163,-2.6981,-2.6876,-2.6889,-2.6889,-2.6889,-2.6876,-2.6889,-2.6889,-2.6837,-2.6556,-2.6373,-2.6282,-2.5981,-2.5419,-2.4732,-2.4275,-2.353,-2.2421,-2.155,-2.0848,-2.0358,-1.9528,-1.8947,-1.8797,-1.7599,-1.6907,-1.6871,-1.6549,-1.6137,-1.5648,-1.5531,-1.5437,-1.5342,-1.5612,-1.5719,-1.5572,-1.567,-1.5622,-1.5412,-1.5437,-1.5336,-1.5017,-1.5062,-1.5176,-1.5289,-1.5221,-1.5221,-1.5424,-1.5244,-1.5153,-1.5289,-1.5824,-1.6284,-1.6509,-1.6842,-1.7094,-1.7081,-1.6786,-1.6392,-1.6122,-1.5893,-1.5559,-1.488,-1.4418,-1.421,-1.4326,-1.4373,-1.4407,-1.4407,-1.4407,-1.4488,-1.4719,-1.4799,-1.4845,-1.5028,-1.5356,-1.5558,-1.557,-1.5547,-1.5368,-1.5266,-1.5187,-1.5187,-1.5311,-1.5568,-1.6066,-1.6522,-1.6735,-1.6905,-1.7052,-1.7212,-1.7191,-1.7199,-1.7191,-1.7191,-2.6801,-2.6967,-2.6798,-2.7015,-2.7496,-2.8007,-2.8372,-2.8604,-2.8673,-2.8695,-2.859,-2.8059,-2.7811,-2.7758,-2.7581,-2.7503,-2.7503,-2.749,-2.7503,-2.7516,-2.7719,-2.7706,-2.7542,-2.7719,-2.7659,-2.7516,-2.7503,-2.7503,-2.7464,-2.7131,-2.6961,-2.6909,-2.6479,-2.6022,-2.546,-2.4937,-2.4142,-2.3139,-2.2157,-2.1478,-2.0954,-2.0363,-2.0021,-1.997,-1.9163,-1.8301,-1.77,-1.7348,-1.6879,-1.6285,-1.6045,-1.59,-1.5762,-1.5942,-1.6133,-1.6256,-1.6159,-1.6026,-1.5785,-1.5851,-1.5732,-1.5244,-1.5143,-1.5221,-1.5446,-1.5367,-1.558,-1.5824,-1.578,-1.5524,-1.5379,-1.5503,-1.5758,-1.6151,-1.6531,-1.6854,-1.7031,-1.6735,-1.6241,-1.5714,-1.557,-1.5255,-1.4673,-1.4255,-1.408,-1.4116,-1.421,-1.4255,-1.4267,-1.4278,-1.4337,-1.4604,-1.4753,-1.4937,-1.5255,-1.5669,-1.5979,-1.6013,-1.5792,-1.5614,-1.5491,-1.5379,-1.5356,-1.5479,-1.579,-1.6306,-1.665,-1.6876,-1.7044,-1.717,-1.7136,-1.7094,-1.7128,-1.7128,-1.7107,-2.7473,-2.7634,-2.7726,-2.7984,-2.832,-2.8749,-2.898,-2.9038,-2.9168,-2.9203,-2.9125,-2.8612,-2.8317,-2.8247,-2.784,-2.7561,-2.7548,-2.7561,-2.7594,-2.7654,-2.8098,-2.8085,-2.7712,-2.8098,-2.7994,-2.7516,-2.7503,-2.7503,-2.749,-2.7438,-2.7411,-2.7417,-2.7239,-2.6797,-2.633,-2.5673,-2.4821,-2.3604,-2.2811,-2.2084,-2.1264,-2.1272,-2.1072,-2.0633,-2.0685,-2.0064,-1.8532,-1.7797,-1.7274,-1.6847,-1.6662,-1.6473,-1.6149,-1.6005,-1.6258,-1.6885,-1.6466,-1.6144,-1.6157,-1.6297,-1.6183,-1.578,-1.5383,-1.5266,-1.5558,-1.5714,-1.6013,-1.6392,-1.6414,-1.6262,-1.5792,-1.5435,-1.5412,-1.5891,-1.6144,-1.6405,-1.665,-1.6586,-1.612,-1.53,-1.5085,-1.4754,-1.4244,-1.3962,-1.3962,-1.3962,-1.3949,-1.3949,-1.3997,-1.4007,-1.408,-1.4314,-1.4581,-1.4834,-1.5424,-1.6022,-1.6262,-1.6426,-1.6122,-1.5881,-1.5869,-1.5802,-1.5802,-1.5879,-1.5979,-1.6448,-1.6641,-1.6833,-1.7002,-1.7107,-1.7044,-1.6947,-1.6905,-1.6905,-1.6884,-2.8703,-2.8718,-2.8372,-2.8367,-2.8645,-2.899,-2.9193,-2.9353,-2.9426,-2.9413,-2.931,-2.8795,-2.8524,-2.8499,-2.8331,-2.8131,-2.7945,-2.7919,-2.7988,-2.8129,-2.8355,-2.8516,-2.8647,-2.8477,-2.8085,-2.7581,-2.7503,-2.7503,-2.7503,-2.7503,-2.7503,-2.7469,-2.7356,-2.6891,-2.6237,-2.5686,-2.4847,-2.366,-2.2571,-2.1969,-2.191,-2.138,-2.1248,-2.1606,-2.1257,-2.0637,-2.0137,-1.9251,-1.83,-1.7422,-1.7151,-1.6694,-1.614,-1.6272,-1.6609,-1.6873,-1.674,-1.6391,-1.6202,-1.6427,-1.6461,-1.6099,-1.5648,-1.5572,-1.5881,-1.6144,-1.6457,-1.6842,-1.6714,-1.6328,-1.5869,-1.5558,-1.5491,-1.5613,-1.577,-1.5903,-1.6044,-1.5546,-1.4983,-1.4709,-1.4605,-1.435,-1.3905,-1.3739,-1.3763,-1.3834,-1.3773,-1.3726,-1.375,-1.3879,-1.3868,-1.3905,-1.4267,-1.4673,-1.5153,-1.5702,-1.6132,-1.6349,-1.6231,-1.6122,-1.6144,-1.6175,-1.6197,-1.611,-1.6219,-1.6383,-1.6577,-1.674,-1.6854,-1.6918,-1.6833,-1.6735,-1.665,-1.6586,-1.6522,-2.9534,-2.9526,-2.9093,-2.9052,-2.9233,-2.9365,-2.9504,-2.9593,-2.9492,-2.9454,-2.934,-2.8736,-2.852,-2.8556,-2.8464,-2.8365,-2.8305,-2.8411,-2.8668,-2.8913,-2.8813,-2.8983,-2.9183,-2.8708,-2.8085,-2.7594,-2.7503,-2.7503,-2.7503,-2.7503,-2.7503,-2.7469,-2.7369,-2.7046,-2.6432,-2.59,-2.5133,-2.3968,-2.3072,-2.2547,-2.2483,-2.2053,-2.1977,-2.2355,-2.1957,-2.1431,-2.0956,-2.0154,-1.9247,-1.8198,-1.7603,-1.6951,-1.6288,-1.6571,-1.6761,-1.6676,-1.6751,-1.6669,-1.6431,-1.6738,-1.6804,-1.6553,-1.6622,-1.6764,-1.6895,-1.6853,-1.665,-1.682,-1.6693,-1.6349,-1.5991,-1.5736,-1.5558,-1.5368,-1.5379,-1.5446,-1.5401,-1.4869,-1.4466,-1.4419,-1.443,-1.4116,-1.3763,-1.361,-1.3621,-1.3692,-1.3668,-1.361,-1.3644,-1.3739,-1.3692,-1.3692,-1.3881,-1.4303,-1.4766,-1.5322,-1.5923,-1.6154,-1.6262,-1.6262,-1.6284,-1.6349,-1.6371,-1.5957,-1.5891,-1.611,-1.6318,-1.6426,-1.6513,-1.6534,-1.6534,-1.6439,-1.6287,-1.6098,-1.6032,-3.0024,-3.0147,-2.9967,-2.9955,-3.0075,-2.9883,-2.9755,-2.9715,-2.9445,-2.9291,-2.9102,-2.8502,-2.8332,-2.8449,-2.8263,-2.8309,-2.8594,-2.8849,-2.9297,-2.9673,-2.9549,-2.9353,-2.9244,-2.8708,-2.8085,-2.7568,-2.7503,-2.7503,-2.7503,-2.7503,-2.7503,-2.7503,-2.7335,-2.718,-2.6786,-2.6427,-2.5522,-2.4489,-2.3999,-2.3464,-2.3034,-2.3156,-2.3176,-2.2891,-2.2878,-2.2336,-2.123,-2.0613,-1.9848,-1.8789,-1.7813,-1.7158,-1.6849,-1.679,-1.662,-1.6459,-1.6658,-1.6733,-1.6825,-1.6985,-1.7153,-1.7115,-1.7883,-1.8634,-1.8179,-1.7538,-1.7036,-1.6926,-1.6945,-1.6763,-1.6493,-1.6142,-1.5804,-1.5234,-1.5063,-1.4994,-1.504,-1.4685,-1.4454,-1.4407,-1.4373,-1.421,-1.3692,-1.3621,-1.361,-1.361,-1.361,-1.361,-1.361,-1.3644,-1.361,-1.3681,-1.3776,-1.4069,-1.4558,-1.4777,-1.5367,-1.5724,-1.5923,-1.6088,-1.6132,-1.6197,-1.601,-1.5657,-1.5468,-1.5736,-1.5957,-1.6013,-1.6066,-1.6088,-1.6057,-1.6015,-1.5826,-1.5603,-1.5501,-3.11,-3.1393,-3.09,-3.073,-3.0672,-3.0088,-2.9689,-2.9431,-2.8934,-2.8645,-2.8438,-2.808,-2.8024,-2.8297,-2.8361,-2.853,-2.8787,-2.9034,-2.9503,-3.0025,-3.0006,-2.9653,-2.9235,-2.8686,-2.8098,-2.7568,-2.7542,-2.7503,-2.7503,-2.7503,-2.7503,-2.7503,-2.7248,-2.6998,-2.6726,-2.6267,-2.5615,-2.4777,-2.3904,-2.366,-2.3718,-2.3542,-2.3497,-2.348,-2.3496,-2.2978,-2.1907,-2.0803,-1.9549,-1.8208,-1.7412,-1.6948,-1.679,-1.662,-1.6488,-1.6431,-1.6459,-1.6516,-1.6591,-1.6864,-1.7141,-1.745,-1.812,-1.8591,-1.8471,-1.8772,-1.8457,-1.8166,-1.8392,-1.8519,-1.7789,-1.7203,-1.6563,-1.5647,-1.499,-1.4628,-1.4765,-1.4627,-1.4407,-1.4407,-1.4407,-1.414,-1.3787,-1.361,-1.361,-1.361,-1.361,-1.361,-1.361,-1.361,-1.361,-1.3752,-1.3894,-1.4069,-1.4291,-1.4443,-1.4754,-1.5187,-1.5491,-1.5736,-1.5714,-1.5669,-1.5277,-1.4834,-1.4754,-1.4937,-1.5255,-1.5446,-1.5501,-1.5546,-1.5457,-1.5345,-1.5187,-1.4983,-1.4926,-3.1582,-3.1963,-3.1458,-3.1198,-3.1011,-3.0126,-2.9509,-2.9028,-2.8275,-2.7857,-2.7603,-2.7255,-2.7296,-2.7655,-2.7966,-2.837,-2.8842,-2.9138,-2.9643,-3.0091,-2.9934,-2.9629,-2.933,-2.9065,-2.8582,-2.7594,-2.7696,-2.7611,-2.7442,-2.7403,-2.7436,-2.7403,-2.7214,-2.7045,-2.6841,-2.628,-2.5676,-2.5015,-2.4248,-2.4049,-2.4179,-2.4071,-2.4083,-2.4107,-2.4042,-2.3459,-2.2043,-2.0499,-1.9136,-1.8154,-1.7494,-1.702,-1.6641,-1.6488,-1.6402,-1.6402,-1.6402,-1.6402,-1.642,-1.6684,-1.6983,-1.7374,-1.7963,-1.835,-1.8636,-1.9248,-1.9295,-1.907,-1.951,-1.9233,-1.8461,-1.7691,-1.6964,-1.6128,-1.5097,-1.451,-1.4638,-1.4884,-1.4733,-1.4571,-1.4384,-1.421,-1.3681,-1.361,-1.361,-1.361,-1.361,-1.361,-1.361,-1.361,-1.3744,-1.3997,-1.4118,-1.4271,-1.4275,-1.4382,-1.4668,-1.5039,-1.536,-1.5554,-1.5401,-1.5266,-1.48,-1.4443,-1.4233,-1.421,-1.4593,-1.4857,-1.48,-1.48,-1.4731,-1.4742,-1.466,-1.4722,-1.464,-3.1643,-3.2169,-3.179,-3.1519,-3.1185,-3.0216,-2.9406,-2.8673,-2.7672,-2.7085,-2.6798,-2.6373,-2.6498,-2.6862,-2.7278,-2.7862,-2.8715,-2.902,-2.9679,-2.9974,-2.9919,-2.9591,-2.9392,-2.9555,-2.8982,-2.8009,-2.8053,-2.7885,-2.7626,-2.7424,-2.732,-2.7261,-2.7201,-2.71,-2.676,-2.6336,-2.5721,-2.5052,-2.4684,-2.4435,-2.4435,-2.4492,-2.4594,-2.4456,-2.4107,-2.3252,-2.1725,-2.0231,-1.9055,-1.8309,-1.7907,-1.7236,-1.6553,-1.6402,-1.6402,-1.6402,-1.6402,-1.6402,-1.642,-1.6552,-1.6768,-1.7162,-1.7507,-1.7986,-1.8578,-1.9107,-1.9373,-1.9507,-1.9734,-1.9408,-1.8747,-1.7822,-1.7209,-1.6602,-1.5458,-1.4719,-1.4677,-1.5339,-1.5589,-1.4777,-1.4635,-1.4116,-1.381,-1.3621,-1.361,-1.361,-1.361,-1.361,-1.361,-1.361,-1.3965,-1.4473,-1.4529,-1.4495,-1.4443,-1.4356,-1.4686,-1.5055,-1.5367,-1.5533,-1.5268,-1.5017,-1.4524,-1.4176,-1.3999,-1.3999,-1.4163,-1.4257,-1.4331,-1.451,-1.4763,-1.4553,-1.4365,-1.4575,-1.4587,-3.1508,-3.2169,-3.1963,-3.1817,-3.1582,-3.0457,-2.9496,-2.8712,-2.7482,-2.6768,-2.6354,-2.5937,-2.6021,-2.6354,-2.6663,-2.7244,-2.8223,-2.8621,-2.9172,-3.0101,-3.0241,-2.9869,-2.9516,-2.9432,-2.9051,-2.8614,-2.8718,-2.8463,-2.8001,-2.7717,-2.749,-2.7122,-2.6973,-2.6735,-2.6508,-2.6025,-2.5406,-2.4826,-2.4467,-2.4345,-2.437,-2.4661,-2.4706,-2.4349,-2.3632,-2.2698,-2.176,-2.0841,-1.99,-1.8889,-1.8052,-1.7355,-1.6605,-1.6433,-1.6475,-1.6506,-1.6464,-1.6444,-1.6441,-1.6566,-1.6722,-1.7065,-1.7395,-1.7799,-1.8344,-1.8813,-1.9158,-1.9408,-1.9604,-1.9556,-1.9178,-1.8581,-1.7908,-1.7224,-1.6415,-1.562,-1.5444,-1.6004,-1.6385,-1.6217,-1.5135,-1.3973,-1.3665,-1.3679,-1.3659,-1.3631,-1.361,-1.361,-1.361,-1.3634,-1.4232,-1.4876,-1.5448,-1.5446,-1.5023,-1.5107,-1.5595,-1.5637,-1.5759,-1.5707,-1.5439,-1.5072,-1.4719,-1.4266,-1.381,-1.3879,-1.4071,-1.4344,-1.4538,-1.4668,-1.4845,-1.4784,-1.4757,-1.4725,-1.4637,-3.1371,-3.2182,-3.2109,-3.2,-3.1706,-3.0646,-2.9613,-2.8673,-2.7563,-2.6715,-2.6229,-2.5864,-2.5864,-2.6074,-2.6302,-2.6869,-2.7701,-2.8474,-2.9106,-2.9715,-2.9973,-2.991,-2.9732,-2.9512,-2.9329,-2.8941,-2.9008,-2.8705,-2.8227,-2.7964,-2.7652,-2.7123,-2.6898,-2.6713,-2.6314,-2.5664,-2.5158,-2.4719,-2.4286,-2.4055,-2.4116,-2.4394,-2.4493,-2.4001,-2.32,-2.2307,-2.1507,-2.0756,-1.998,-1.9198,-1.8554,-1.7686,-1.6732,-1.6693,-1.685,-1.6995,-1.7015,-1.687,-1.6796,-1.6771,-1.6877,-1.7116,-1.7356,-1.7754,-1.8114,-1.848,-1.8694,-1.8987,-1.9251,-1.9422,-1.954,-1.9134,-1.8526,-1.8008,-1.7338,-1.6689,-1.6267,-1.6392,-1.6658,-1.6708,-1.5956,-1.4795,-1.4216,-1.4128,-1.3879,-1.3869,-1.3631,-1.361,-1.3752,-1.3884,-1.4636,-1.5357,-1.6258,-1.6431,-1.5844,-1.5993,-1.6725,-1.6678,-1.6452,-1.6226,-1.5875,-1.5491,-1.507,-1.4707,-1.4438,-1.4028,-1.4194,-1.4482,-1.4928,-1.5399,-1.556,-1.5362,-1.5154,-1.4992,-1.4873,-3.1071,-3.1986,-3.2023,-3.1963,-3.1693,-3.0709,-2.9716,-2.8791,-2.7701,-2.6951,-2.6385,-2.6104,-2.6052,-2.6052,-2.6188,-2.6674,-2.7429,-2.8395,-2.9157,-2.9392,-2.974,-2.9819,-2.9794,-2.9783,-2.9593,-2.8853,-2.9148,-2.8911,-2.8434,-2.8124,-2.7812,-2.7313,-2.6984,-2.6629,-2.614,-2.5382,-2.4695,-2.4335,-2.3875,-2.3641,-2.3666,-2.3861,-2.3863,-2.3604,-2.3008,-2.2185,-2.1388,-2.0596,-1.9881,-1.9398,-1.9206,-1.8268,-1.7439,-1.7252,-1.7667,-1.7874,-1.773,-1.742,-1.7182,-1.715,-1.7199,-1.7378,-1.7497,-1.7763,-1.8115,-1.8126,-1.826,-1.8662,-1.9012,-1.933,-1.9695,-1.9412,-1.9032,-1.8593,-1.8077,-1.7562,-1.6931,-1.6573,-1.6459,-1.6438,-1.6269,-1.5572,-1.5065,-1.4842,-1.4449,-1.4101,-1.3852,-1.3668,-1.381,-1.419,-1.4925,-1.591,-1.6853,-1.7184,-1.6671,-1.6658,-1.7425,-1.7433,-1.7156,-1.694,-1.6579,-1.6488,-1.6216,-1.5626,-1.5249,-1.4853,-1.4623,-1.4883,-1.5405,-1.6064,-1.6133,-1.5845,-1.5538,-1.5262,-1.5214,-3.0355,-3.1097,-3.1161,-3.136,-3.1445,-3.0495,-2.9678,-2.8924,-2.7943,-2.7319,-2.7021,-2.6622,-2.6445,-2.6456,-2.6479,-2.688,-2.7563,-2.8407,-2.8961,-2.9236,-2.9585,-2.9779,-2.983,-2.9856,-2.9693,-2.9668,-2.9591,-2.9264,-2.88,-2.8412,-2.7964,-2.7434,-2.6858,-2.636,-2.5792,-2.4916,-2.4242,-2.392,-2.3427,-2.3154,-2.3191,-2.3238,-2.3257,-2.3161,-2.2674,-2.2088,-2.1417,-2.0724,-2.0145,-1.9734,-1.9316,-1.8942,-1.8569,-1.86,-1.8704,-1.8621,-1.8175,-1.7781,-1.7616,-1.7585,-1.7677,-1.7789,-1.784,-1.7992,-1.8143,-1.7919,-1.8091,-1.8513,-1.9009,-1.9394,-1.9734,-1.9512,-1.9146,-1.8747,-1.8425,-1.7963,-1.706,-1.6602,-1.6402,-1.6402,-1.6407,-1.6384,-1.588,-1.5542,-1.5393,-1.4919,-1.4407,-1.4059,-1.3892,-1.4451,-1.5208,-1.6295,-1.7489,-1.7578,-1.745,-1.7589,-1.7947,-1.7939,-1.779,-1.7871,-1.7679,-1.776,-1.7466,-1.6852,-1.6214,-1.5713,-1.5577,-1.5472,-1.5887,-1.6532,-1.6423,-1.6251,-1.6043,-1.5862,-1.5936,-2.9537,-3.0292,-3.0533,-3.081,-3.0973,-3.0482,-2.9947,-2.9471,-2.8712,-2.8155,-2.7822,-2.7406,-2.704,-2.6899,-2.6757,-2.7044,-2.7603,-2.8299,-2.8816,-2.9131,-2.9546,-2.9779,-2.9767,-2.9767,-2.9779,-2.9689,-2.956,-2.9332,-2.8994,-2.8594,-2.8084,-2.7557,-2.688,-2.6352,-2.5866,-2.5043,-2.437,-2.3902,-2.353,-2.3232,-2.3189,-2.3144,-2.2907,-2.2579,-2.2344,-2.1897,-2.1313,-2.0995,-2.0441,-1.9855,-1.9347,-1.915,-1.9098,-1.9129,-1.9119,-1.9046,-1.8651,-1.8288,-1.8123,-1.8071,-1.8092,-1.8155,-1.8176,-1.827,-1.8437,-1.8391,-1.8254,-1.8414,-1.8877,-1.933,-1.9759,-1.9499,-1.9158,-1.8881,-1.8667,-1.81,-1.7256,-1.6676,-1.6459,-1.6402,-1.6371,-1.6389,-1.6371,-1.621,-1.6252,-1.5794,-1.5095,-1.4613,-1.4212,-1.4514,-1.5183,-1.667,-1.7755,-1.7783,-1.781,-1.7947,-1.8084,-1.8139,-1.8275,-1.8329,-1.8371,-1.8294,-1.8267,-1.802,-1.7395,-1.6722,-1.6223,-1.605,-1.6515,-1.6907,-1.6862,-1.6761,-1.6595,-1.6513,-1.6488,-2.8676,-2.9433,-2.9858,-3.0228,-3.0495,-3.0419,-3.0241,-2.9973,-2.947,-2.8988,-2.8661,-2.8211,-2.7822,-2.7482,-2.7237,-2.7249,-2.7603,-2.8271,-2.8697,-2.9094,-2.9372,-2.9591,-2.9591,-2.9515,-2.9415,-2.9465,-2.922,-2.9071,-2.8978,-2.8569,-2.8127,-2.7518,-2.6927,-2.6318,-2.576,-2.4837,-2.4651,-2.4313,-2.3966,-2.3708,-2.3551,-2.3203,-2.2762,-2.222,-2.2077,-2.1782,-2.1379,-2.1124,-2.0783,-2.0228,-1.972,-1.9292,-1.917,-1.9274,-1.9344,-1.9357,-1.9233,-1.8909,-1.8808,-1.8559,-1.86,-1.8778,-1.8611,-1.8634,-1.8697,-1.8784,-1.8722,-1.8289,-1.864,-1.9172,-1.9552,-1.9394,-1.917,-1.8999,-1.8721,-1.8263,-1.7396,-1.679,-1.6459,-1.6402,-1.6402,-1.6402,-1.6402,-1.642,-1.6381,-1.6497,-1.5844,-1.5376,-1.4942,-1.4387,-1.5095,-1.6849,-1.7838,-1.792,-1.7947,-1.8002,-1.8084,-1.8111,-1.8302,-1.8464,-1.856,-1.8602,-1.8614,-1.8598,-1.8447,-1.7782,-1.7186,-1.666,-1.7,-1.7224,-1.7295,-1.7155,-1.6892,-1.6637,-1.6506,-2.7874,-2.8331,-2.8949,-2.9548,-3.005,-3.0152,-3.0228,-3.0279,-2.9832,-2.9523,-2.9289,-2.904,-2.8697,-2.8219,-2.7644,-2.7615,-2.7909,-2.8311,-2.87,-2.8983,-2.906,-2.9051,-2.8963,-2.8499,-2.875,-2.8963,-2.8824,-2.8855,-2.8814,-2.8343,-2.7886,-2.7405,-2.6571,-2.5737,-2.5469,-2.4683,-2.3828,-2.3689,-2.3468,-2.3387,-2.3304,-2.2979,-2.2679,-2.2421,-2.2102,-2.1842,-2.1638,-2.1373,-2.1021,-2.0897,-2.0472,-1.9882,-1.9419,-1.9882,-2.0182,-2.0038,-1.9644,-1.922,-1.9461,-1.9295,-1.9181,-1.9326,-1.9212,-1.9067,-1.9017,-1.8988,-1.868,-1.7536,-1.8414,-1.925,-1.9591,-1.9387,-1.918,-1.902,-1.883,-1.8216,-1.7429,-1.7463,-1.7064,-1.6402,-1.6402,-1.6402,-1.6402,-1.6431,-1.6477,-1.6634,-1.6616,-1.617,-1.597,-1.5655,-1.5401,-1.7206,-1.7947,-1.8002,-1.803,-1.8084,-1.8084,-1.8084,-1.8329,-1.8572,-1.8614,-1.8721,-1.8881,-1.8854,-1.8801,-1.864,-1.799,-1.7616,-1.7584,-1.7462,-1.7418,-1.7267,-1.7022,-1.6825,-1.6609,-2.7237,-2.7661,-2.8315,-2.9,-2.969,-3.0101,-3.0444,-3.0634,-3.0406,-3.0165,-2.9934,-2.9611,-2.9155,-2.851,-2.795,-2.7869,-2.8111,-2.8486,-2.8621,-2.8713,-2.8748,-2.87,-2.8436,-2.8247,-2.831,-2.8399,-2.8525,-2.8596,-2.8531,-2.8338,-2.7898,-2.7366,-2.6542,-2.592,-2.5389,-2.4783,-2.4554,-2.4512,-2.448,-2.4384,-2.4076,-2.3674,-2.3292,-2.3027,-2.2391,-2.2077,-2.1897,-2.169,-2.1342,-2.1176,-2.0876,-2.0545,-2.0079,-2.0245,-2.054,-2.1098,-2.0358,-1.9996,-2.0069,-1.9924,-1.9841,-1.9741,-1.9585,-1.9388,-1.9202,-1.9079,-1.9174,-1.8986,-1.9495,-2.0017,-2.0245,-2.0119,-2.0067,-1.9808,-1.9221,-1.8299,-1.7838,-1.8085,-1.7885,-1.7107,-1.6402,-1.6402,-1.6444,-1.6558,-1.6784,-1.7143,-1.7262,-1.7148,-1.7424,-1.7832,-1.7629,-1.774,-1.8068,-1.8084,-1.8084,-1.8084,-1.8084,-1.8139,-1.8371,-1.856,-1.864,-1.8747,-1.8934,-1.8999,-1.8931,-1.8759,-1.8568,-1.8275,-1.7947,-1.7711,-1.7529,-1.7379,-1.7217,-1.7022,-1.6835,-2.6828,-2.7267,-2.7978,-2.8685,-2.938,-3.0088,-3.0596,-3.0874,-3.0736,-3.0571,-3.0343,-2.9921,-2.93,-2.8657,-2.8311,-2.8191,-2.8207,-2.8473,-2.8468,-2.847,-2.8363,-2.8211,-2.7921,-2.7783,-2.7795,-2.8109,-2.8337,-2.8574,-2.86,-2.8376,-2.8047,-2.736,-2.6483,-2.5913,-2.5527,-2.5041,-2.4745,-2.503,-2.5346,-2.5362,-2.512,-2.4574,-2.4189,-2.3638,-2.2966,-2.2289,-2.2176,-2.1977,-2.1645,-2.1292,-2.1273,-2.1104,-2.0819,-2.0876,-2.1124,-2.1476,-2.1021,-2.0793,-2.0674,-2.0534,-2.0276,-1.9996,-1.9658,-1.9367,-1.917,-1.9142,-1.9353,-1.9835,-2.0806,-2.1172,-2.1296,-2.1034,-2.0613,-2.0274,-1.9817,-1.8757,-1.8061,-1.8597,-1.8668,-1.7937,-1.7169,-1.6402,-1.6496,-1.6703,-1.7045,-1.7563,-1.7797,-1.7927,-1.8525,-1.9213,-1.9124,-1.8796,-1.8703,-1.856,-1.8203,-1.818,-1.8157,-1.8246,-1.8491,-1.8545,-1.8598,-1.8774,-1.896,-1.8999,-1.9006,-1.9308,-1.9349,-1.8791,-1.8263,-1.8084,-1.7865,-1.7629,-1.7462,-1.7228,-1.6948,-2.6775,-2.7267,-2.8139,-2.8749,-2.9209,-3.005,-3.0533,-3.0736,-3.0698,-3.0584,-3.0368,-2.996,-2.9417,-2.8922,-2.8764,-2.8526,-2.8235,-2.8098,-2.8139,-2.8013,-2.7752,-2.7473,-2.7197,-2.7082,-2.718,-2.7885,-2.8174,-2.86,-2.9031,-2.8775,-2.8035,-2.7015,-2.6362,-2.5653,-2.52,-2.4946,-2.4988,-2.5359,-2.5768,-2.6102,-2.5913,-2.5472,-2.4943,-2.4504,-2.3623,-2.2777,-2.2402,-2.2149,-2.1825,-2.1407,-2.1473,-2.1614,-2.1439,-2.1364,-2.1539,-2.1614,-2.1652,-2.1466,-2.1356,-2.0922,-2.0457,-2.0172,-1.9737,-1.9285,-1.9119,-1.9142,-1.944,-2.0237,-2.14,-2.2213,-2.2095,-2.1675,-2.1197,-2.0993,-2.074,-2.0176,-1.9568,-1.9497,-1.9447,-1.872,-1.804,-1.7325,-1.7138,-1.748,-1.7595,-1.8081,-1.829,-1.8437,-1.9165,-1.9791,-1.9867,-1.9726,-1.9588,-1.9221,-1.8467,-1.8455,-1.8845,-1.8775,-1.8793,-1.8659,-1.853,-1.8744,-1.8999,-1.9021,-1.9071,-1.963,-2.0103,-1.9849,-1.9408,-1.8643,-1.8209,-1.8002,-1.7684,-1.7407,-1.7043,-2.7568,-2.8063,-2.8752,-2.9079,-2.9182,-3.0011,-3.0444,-3.0533,-3.066,-3.0571,-3.0368,-2.996,-2.974,-2.9548,-2.9223,-2.9028,-2.873,-2.8334,-2.802,-2.7568,-2.7163,-2.6776,-2.6526,-2.6532,-2.6716,-2.7426,-2.7873,-2.825,-2.8605,-2.888,-2.8171,-2.7267,-2.6434,-2.5863,-2.5359,-2.5115,-2.5327,-2.5737,-2.6393,-2.6969,-2.7013,-2.6622,-2.6069,-2.5497,-2.4325,-2.3323,-2.2644,-2.2149,-2.1731,-2.1436,-2.131,-2.1415,-2.1578,-2.1502,-2.154,-2.1721,-2.1769,-2.1807,-2.1797,-2.1393,-2.1062,-2.0369,-1.9862,-1.9409,-1.917,-1.9274,-1.99,-2.0839,-2.1894,-2.2616,-2.2772,-2.2357,-2.2065,-2.1991,-2.171,-2.1242,-2.0938,-2.0701,-2.0138,-1.9383,-1.8899,-1.8372,-1.8341,-1.8392,-1.8485,-1.862,-1.8768,-1.8992,-1.9597,-2.0053,-2.0053,-2.0085,-1.9963,-2.013,-1.9481,-1.9524,-1.967,-1.9373,-1.9074,-1.8904,-1.8748,-1.881,-1.902,-1.9024,-1.9313,-1.9932,-2.0483,-2.084,-2.0479,-1.9535,-1.885,-1.8437,-1.803,-1.7662,-1.7342,-2.8251,-2.8752,-2.9341,-2.9482,-2.9404,-3.0088,-3.0355,-3.033,-3.0457,-3.0457,-3.0279,-3.0075,-3.0049,-3.0062,-2.9857,-2.9308,-2.8892,-2.8308,-2.7604,-2.7078,-2.6541,-2.6208,-2.6021,-2.6173,-2.6634,-2.7169,-2.7738,-2.8263,-2.8779,-2.8932,-2.8319,-2.7458,-2.6599,-2.5935,-2.5485,-2.5485,-2.5653,-2.6144,-2.6958,-2.7713,-2.7872,-2.7542,-2.7135,-2.639,-2.5314,-2.4104,-2.3205,-2.2478,-2.1635,-2.1129,-2.0838,-2.0867,-2.1021,-2.1185,-2.1272,-2.1502,-2.1693,-2.1769,-2.1787,-2.158,-2.1311,-2.0721,-2.0245,-1.972,-1.9352,-1.944,-2.0064,-2.1348,-2.2173,-2.2678,-2.2939,-2.2742,-2.2627,-2.2503,-2.2347,-2.1958,-2.1675,-2.1368,-2.07,-2.002,-1.9554,-1.9022,-1.8891,-1.8849,-1.8858,-1.8889,-1.8911,-1.9052,-1.9323,-1.9747,-1.9976,-2.0053,-2.0063,-2.0385,-2.0653,-2.023,-1.9826,-1.9512,-1.9283,-1.9218,-1.9101,-1.9195,-1.9725,-2.0392,-2.0646,-2.0606,-2.0914,-2.1437,-2.102,-2.0248,-1.9645,-1.9073,-1.8826,-1.8497,-1.8032,-2.8752,-2.917,-2.9805,-2.9972,-2.9856,-3.0228,-3.0292,-3.0152,-3.0126,-3.0164,-3.0177,-3.0267,-3.0406,-3.0432,-3.0406,-2.9796,-2.8799,-2.8151,-2.7275,-2.6372,-2.602,-2.5773,-2.5783,-2.5974,-2.6544,-2.7579,-2.8001,-2.8413,-2.9303,-2.8885,-2.8367,-2.7627,-2.6677,-2.5791,-2.5264,-2.5411,-2.5737,-2.6268,-2.7232,-2.7903,-2.8231,-2.8068,-2.7816,-2.7106,-2.6194,-2.498,-2.3732,-2.2724,-2.1763,-2.0742,-2.0323,-2.0177,-1.9981,-2.0557,-2.0838,-2.1118,-2.1578,-2.1769,-2.1787,-2.1393,-2.1176,-2.101,-2.0576,-2.01,-1.9487,-1.9538,-2.038,-2.183,-2.2265,-2.2511,-2.2745,-2.2939,-2.2934,-2.2917,-2.2758,-2.2586,-2.2297,-2.1686,-2.0946,-2.0488,-1.9965,-1.9494,-1.9283,-1.917,-1.9158,-1.9191,-1.9119,-1.9164,-1.9308,-1.9407,-1.9681,-1.9846,-1.9944,-2.0216,-2.0399,-2.0281,-1.9973,-1.9685,-1.9617,-1.9663,-1.9721,-1.9854,-2.0558,-2.1565,-2.1692,-2.1415,-2.1715,-2.2132,-2.1458,-2.0831,-2.0292,-1.979,-1.9575,-1.9206,-1.8618,-2.9534,-2.9805,-3.0305,-3.047,-3.0394,-3.0406,-3.0292,-3.0075,-2.9972,-3.0037,-3.0292,-3.0495,-3.0785,-3.0898,-3.0884,-3.0274,-2.9062,-2.8237,-2.7286,-2.5838,-2.5541,-2.5266,-2.5242,-2.5622,-2.6381,-2.7299,-2.778,-2.8547,-2.9687,-2.8987,-2.848,-2.7817,-2.6601,-2.5487,-2.5083,-2.52,-2.5737,-2.6321,-2.7203,-2.8011,-2.8435,-2.844,-2.8198,-2.7547,-2.6683,-2.5526,-2.4085,-2.3024,-2.1829,-2.0619,-2.0148,-1.9594,-1.9427,-1.9931,-2.0411,-2.0925,-2.1502,-2.1769,-2.1797,-2.1611,-2.1387,-2.1197,-2.0959,-2.0586,-2.0093,-1.9691,-2.0805,-2.2004,-2.2329,-2.2645,-2.3111,-2.2953,-2.2936,-2.3059,-2.3003,-2.2965,-2.2635,-2.1757,-2.1065,-2.0837,-2.0457,-2.0292,-2.0132,-1.9979,-1.9913,-1.9603,-1.9499,-1.9212,-1.9218,-1.9185,-1.9318,-1.9506,-1.9671,-1.9955,-2.0096,-2.0053,-2.0129,-2.0003,-2.0167,-2.0443,-2.0532,-2.0411,-2.0788,-2.1424,-2.1842,-2.2197,-2.2197,-2.2142,-2.1911,-2.1431,-2.0806,-2.0323,-2.0016,-1.956,-1.8977,-2.9643,-2.9923,-3.0469,-3.0619,-3.049,-3.0443,-3.0267,-3.0011,-2.9869,-3.0011,-3.0381,-3.0685,-3.1024,-3.1323,-3.1381,-3.0858,-2.9521,-2.8616,-2.7371,-2.5838,-2.5302,-2.5076,-2.5016,-2.5397,-2.6348,-2.7225,-2.7961,-2.8733,-2.9573,-2.8961,-2.831,-2.7531,-2.6527,-2.5744,-2.5342,-2.5466,-2.5695,-2.6268,-2.708,-2.7914,-2.8247,-2.8374,-2.8306,-2.7747,-2.6964,-2.5954,-2.4526,-2.3252,-2.208,-2.0953,-2.0031,-1.9491,-1.9423,-1.9592,-2.0127,-2.0838,-2.1464,-2.1731,-2.1797,-2.1787,-2.1611,-2.1435,-2.1362,-2.1207,-2.0917,-2.0671,-2.1303,-2.2141,-2.24,-2.2729,-2.3036,-2.2843,-2.3159,-2.3323,-2.3069,-2.3034,-2.2776,-2.1914,-2.1257,-2.1085,-2.107,-2.0984,-2.0933,-2.0881,-2.0772,-2.0338,-1.9924,-1.9582,-1.9313,-1.9301,-1.9373,-1.9578,-1.9637,-1.9786,-1.9963,-1.9965,-2.0063,-2.027,-2.0476,-2.0716,-2.0741,-2.0556,-2.0928,-2.1213,-2.1533,-2.1859,-2.2104,-2.2099,-2.2011,-2.1744,-2.1266,-2.0808,-2.0465,-2.0015,-1.9505,-2.9138,-2.9575,-3.03,-3.0384,-3.0147,-3.0237,-3.0101,-2.983,-2.9792,-2.9998,-3.0394,-3.0761,-3.1136,-3.1522,-3.178,-3.1189,-3.0127,-2.9057,-2.7678,-2.6469,-2.572,-2.5289,-2.5312,-2.5755,-2.6649,-2.7502,-2.8222,-2.8794,-2.9311,-2.9094,-2.8315,-2.7205,-2.6481,-2.5986,-2.5758,-2.5665,-2.5743,-2.6228,-2.6851,-2.7504,-2.7841,-2.8047,-2.7999,-2.7624,-2.7024,-2.6028,-2.485,-2.3794,-2.2597,-2.1441,-2.0411,-2.0121,-1.9918,-1.9771,-2.0214,-2.0828,-2.154,-2.1731,-2.1807,-2.1807,-2.1759,-2.1607,-2.1649,-2.1718,-2.1652,-2.1431,-2.1732,-2.2088,-2.2368,-2.2557,-2.2754,-2.3155,-2.356,-2.3344,-2.3027,-2.2873,-2.2749,-2.2189,-2.1543,-2.1332,-2.1395,-2.1396,-2.1408,-2.1392,-2.1644,-2.1256,-2.0822,-2.0379,-2.0097,-1.9813,-1.9889,-2.0043,-1.9978,-1.9735,-1.9796,-1.9972,-2.014,-2.0373,-2.0378,-2.0544,-2.0599,-2.0604,-2.0722,-2.0905,-2.1197,-2.1606,-2.2278,-2.2416,-2.2273,-2.1993,-2.1855,-2.1393,-2.1051,-2.0708,-2.0342,-2.8845,-2.9262,-2.9279,-2.9428,-2.9659,-2.9577,-2.9606,-2.9805,-2.9779,-2.9972,-3.0216,-3.0609,-3.0986,-3.1397,-3.1743,-3.115,-3.0364,-2.9402,-2.8175,-2.7139,-2.6307,-2.6071,-2.6093,-2.6336,-2.7186,-2.7891,-2.8542,-2.902,-2.9635,-2.9458,-2.8065,-2.6621,-2.6567,-2.6277,-2.6128,-2.5973,-2.5942,-2.6088,-2.6725,-2.6952,-2.7142,-2.7307,-2.7307,-2.7021,-2.6678,-2.5749,-2.4892,-2.3898,-2.2814,-2.2201,-2.1146,-2.0656,-2.0619,-1.9979,-1.9883,-2.1377,-2.1731,-2.1807,-2.1807,-2.1807,-2.1731,-2.1655,-2.1617,-2.1693,-2.1721,-2.1731,-2.1683,-2.1797,-2.1949,-2.2088,-2.2219,-2.2571,-2.2893,-2.2769,-2.2671,-2.2878,-2.2756,-2.2468,-2.1887,-2.1908,-2.1981,-2.1965,-2.1977,-2.2438,-2.2596,-2.2215,-2.1771,-2.1282,-2.0859,-2.0592,-2.0372,-2.0505,-2.0315,-2.0057,-2.005,-2.0197,-2.0341,-2.0474,-2.0466,-2.0414,-2.0423,-2.0446,-2.0433,-2.0884,-2.1686,-2.2304,-2.2839,-2.2839,-2.2645,-2.2871,-2.2754,-2.2185,-2.1614,-2.1211,-2.0973,-2.8212,-2.8551,-2.8584,-2.8773,-2.8966,-2.8691,-2.8848,-2.9301,-2.9563,-2.9728,-2.987,-3.0254,-3.0672,-3.1075,-3.1421,-3.1285,-3.0637,-2.9833,-2.881,-2.7914,-2.7043,-2.66,-2.6534,-2.6833,-2.7332,-2.8004,-2.8559,-2.9016,-2.9392,-2.8912,-2.7676,-2.6984,-2.6905,-2.6687,-2.6609,-2.6587,-2.6323,-2.6239,-2.6292,-2.6406,-2.6426,-2.6445,-2.6321,-2.6193,-2.5856,-2.5218,-2.4777,-2.3801,-2.3309,-2.2945,-2.2038,-2.1688,-2.1611,-2.097,-2.0556,-2.1786,-2.1769,-2.1807,-2.1807,-2.1807,-2.1655,-2.1578,-2.155,-2.1578,-2.154,-2.1502,-2.1272,-2.1195,-2.13,-2.1413,-2.1538,-2.169,-2.1843,-2.1993,-2.2396,-2.2849,-2.2764,-2.2615,-2.2572,-2.2584,-2.2611,-2.2601,-2.2868,-2.3383,-2.3519,-2.3029,-2.2604,-2.2158,-2.1728,-2.1347,-2.1047,-2.0903,-2.0672,-2.0387,-2.0427,-2.0404,-2.0442,-2.0488,-2.0452,-2.0424,-2.0347,-2.0625,-2.0944,-2.1648,-2.2533,-2.2914,-2.3152,-2.316,-2.3073,-2.329,-2.3339,-2.2771,-2.2089,-2.1477,-2.1305,-2.7384,-2.7662,-2.8083,-2.8236,-2.8185,-2.7746,-2.7885,-2.8461,-2.8929,-2.9303,-2.9433,-2.9819,-3.0254,-3.0685,-3.1048,-3.1235,-3.0738,-3.0056,-2.9415,-2.8712,-2.7822,-2.7272,-2.7227,-2.7317,-2.7801,-2.8084,-2.8363,-2.8781,-2.8363,-2.8154,-2.7919,-2.7584,-2.7342,-2.7143,-2.7092,-2.6946,-2.6593,-2.6048,-2.5941,-2.5937,-2.5763,-2.5622,-2.5516,-2.5525,-2.5006,-2.4399,-2.4355,-2.406,-2.3716,-2.3486,-2.3209,-2.2879,-2.2685,-2.219,-2.1973,-2.1799,-2.178,-2.1807,-2.1807,-2.1807,-2.1655,-2.1617,-2.1617,-2.1464,-2.13,-2.1425,-2.131,-2.0886,-2.0954,-2.0954,-2.1069,-2.075,-2.0709,-2.1212,-2.1759,-2.2146,-2.2237,-2.1999,-2.17,-2.1971,-2.274,-2.2852,-2.3629,-2.4116,-2.4261,-2.3813,-2.3519,-2.3113,-2.2537,-2.2113,-2.1565,-2.1231,-2.0984,-2.0752,-2.0722,-2.0639,-2.0514,-2.0491,-2.055,-2.0777,-2.0969,-2.1218,-2.1542,-2.219,-2.288,-2.3079,-2.3259,-2.3364,-2.3501,-2.3593,-2.3513,-2.3189,-2.267,-2.2164,-2.1837,-2.6961,-2.7387,-2.7526,-2.7243,-2.6789,-2.7014,-2.709,-2.7066,-2.7823,-2.8504,-2.9147,-2.9599,-2.996,-3.0177,-3.0647,-3.0836,-3.0683,-3.0227,-2.9834,-2.9375,-2.8677,-2.8171,-2.8225,-2.818,-2.8398,-2.8519,-2.8626,-2.848,-2.821,-2.8006,-2.7857,-2.7631,-2.7452,-2.7357,-2.7336,-2.7071,-2.6511,-2.593,-2.5618,-2.5343,-2.4987,-2.4999,-2.4978,-2.4629,-2.404,-2.3979,-2.3932,-2.3703,-2.3859,-2.4,-2.3773,-2.3594,-2.3553,-2.2625,-2.2072,-2.1834,-2.1769,-2.1769,-2.1807,-2.1769,-2.1655,-2.1464,-2.1349,-2.1108,-2.1098,-2.1415,-2.1377,-2.0876,-2.0615,-2.0615,-2.0411,-1.9981,-1.9775,-2.0479,-2.1108,-2.1425,-2.1693,-2.1317,-2.0891,-2.1591,-2.251,-2.3335,-2.4141,-2.4586,-2.4814,-2.4742,-2.4562,-2.4118,-2.3315,-2.2709,-2.1858,-2.1473,-2.1278,-2.109,-2.1042,-2.0964,-2.0853,-2.0893,-2.1005,-2.125,-2.1516,-2.1596,-2.1739,-2.247,-2.3033,-2.3198,-2.3455,-2.389,-2.3976,-2.3932,-2.405,-2.3875,-2.3933,-2.3607,-2.3075,-2.6675,-2.6952,-2.6952,-2.6649,-2.6288,-2.6441,-2.6371,-2.6351,-2.6888,-2.7579,-2.8267,-2.8956,-2.9443,-2.9703,-3.019,-3.0495,-3.0508,-3.0216,-2.9947,-2.9715,-2.9443,-2.9018,-2.891,-2.8803,-2.8491,-2.8485,-2.8341,-2.8139,-2.8184,-2.815,-2.8055,-2.7914,-2.7678,-2.741,-2.7369,-2.6879,-2.6345,-2.593,-2.5451,-2.4949,-2.445,-2.4421,-2.4272,-2.3839,-2.3582,-2.3594,-2.3699,-2.3596,-2.3912,-2.4192,-2.4112,-2.3854,-2.3569,-2.2857,-2.2177,-2.186,-2.1731,-2.1693,-2.179,-2.1762,-2.1675,-2.1474,-2.1282,-2.1118,-2.0915,-2.1185,-2.13,-2.0876,-2.0654,-2.0615,-2.0098,-1.9657,-1.9696,-2.0167,-2.0605,-2.0964,-2.1385,-2.1528,-2.1364,-2.1653,-2.2478,-2.3187,-2.3922,-2.4562,-2.4742,-2.4778,-2.4718,-2.4425,-2.3729,-2.2914,-2.2152,-2.1672,-2.1415,-2.1316,-2.1229,-2.1219,-2.1189,-2.1298,-2.1349,-2.1418,-2.1559,-2.1683,-2.1987,-2.2312,-2.2746,-2.3217,-2.3522,-2.3797,-2.4118,-2.4126,-2.4387,-2.4672,-2.4778,-2.4802,-2.4331,-2.6499,-2.6487,-2.6499,-2.6374,-2.6166,-2.5945,-2.5791,-2.5763,-2.62,-2.6591,-2.7105,-2.8134,-2.8706,-2.9248,-2.974,-3.0075,-3.0228,-3.0075,-2.9895,-2.9779,-2.956,-2.9236,-2.9,-2.8855,-2.8603,-2.8404,-2.8253,-2.8447,-2.8623,-2.8657,-2.8653,-2.843,-2.8049,-2.762,-2.739,-2.6827,-2.6173,-2.5868,-2.5427,-2.4998,-2.4482,-2.4031,-2.3911,-2.3587,-2.3269,-2.3315,-2.3649,-2.3854,-2.4016,-2.4098,-2.4239,-2.4024,-2.3649,-2.3004,-2.2473,-2.2084,-2.1968,-2.1924,-2.1917,-2.1983,-2.1747,-2.1533,-2.1331,-2.1244,-2.1069,-2.1223,-2.1377,-2.13,-2.1069,-2.0722,-2.0245,-1.9814,-1.9932,-1.9971,-2.0372,-2.0702,-2.1193,-2.1824,-2.2048,-2.2087,-2.2391,-2.3067,-2.3739,-2.4356,-2.4578,-2.4628,-2.4518,-2.419,-2.3711,-2.2782,-2.1921,-2.1644,-2.1484,-2.1425,-2.1423,-2.1443,-2.1471,-2.1482,-2.153,-2.1555,-2.1398,-2.1009,-2.1063,-2.1649,-2.2114,-2.2637,-2.3031,-2.3279,-2.3654,-2.4101,-2.4614,-2.4978,-2.5324,-2.5347,-2.5312,-2.6487,-2.6487,-2.6487,-2.6292,-2.598,-2.5758,-2.5445,-2.5138,-2.5364,-2.5693,-2.6283,-2.7191,-2.8132,-2.9118,-2.9624,-2.9908,-2.9972,-2.9895,-2.9856,-2.974,-2.9689,-2.9417,-2.9091,-2.8867,-2.8763,-2.8675,-2.8646,-2.8973,-2.9202,-2.9398,-2.9441,-2.9246,-2.8289,-2.7702,-2.7183,-2.6599,-2.5954,-2.5771,-2.5606,-2.5183,-2.5156,-2.4754,-2.4284,-2.4085,-2.3928,-2.4179,-2.4405,-2.4268,-2.4294,-2.4294,-2.411,-2.3884,-2.3531,-2.3115,-2.263,-2.2443,-2.2322,-2.2267,-2.2263,-2.2216,-2.1996,-2.1681,-2.1612,-2.1835,-2.1939,-2.2392,-2.2467,-2.2478,-2.2241,-2.1911,-2.1443,-2.0789,-2.0673,-2.0605,-2.0809,-2.0975,-2.1284,-2.2349,-2.3166,-2.267,-2.2241,-2.2974,-2.3731,-2.4159,-2.4316,-2.4435,-2.4676,-2.437,-2.4097,-2.2961,-2.1874,-2.1776,-2.1714,-2.1642,-2.1721,-2.1645,-2.1645,-2.1655,-2.1576,-2.1473,-2.0956,-1.983,-1.9979,-2.0874,-2.1457,-2.1966,-2.2329,-2.293,-2.327,-2.3781,-2.4604,-2.5159,-2.5581,-2.5908,-2.5873]},{"header":{"parameterUnit":"m.s-1","parameterCategory":1,"la1":31.0,"la2":29.5877,"lo1":-88.7671,"lo2":-86.6584,"dy":0.0162,"dx":0.0185,"nx":115,"ny":88,"refTime":"2023-09-05T06:00:00:Z","depth":0,"parameterNumber":3,"parameterNumberName":"V-component_of_WINDS"},"data":[0.0,0.0,0.0,0.0,0.0,0.0,0.0,0.0,0.0,0.0,0.0,0.0,0.0,0.0,0.0,0.0,0.0,0.0,0.0,0.0,0.0,0.0,0.0,0.0,0.0,0.0,0.0,0.0,0.0,0.0,0.0,0.0,0.0,0.0,0.0,0.0,0.0,0.0,0.0,0.0,0.0,0.0,0.0,0.0,0.0,0.0,0.0,0.0,0.0,0.0,0.0,0.0,0.0,0.0,0.0,0.0,0.0,0.0,0.0,0.0,0.0,0.0,0.0,0.0,0.0,0.0,0.0,0.0,0.0,0.0,0.0,0.0,0.0,0.0,0.0,0.0,0.0,0.0,0.0,0.0,0.0,0.0,0.0,0.0,0.0,0.0,0.0,0.0,0.0,0.0,0.0,0.0,0.0,0.0,0.0,0.0,0.0,0.0,0.0,0.0,0.0,0.0,0.0,0.0,0.0,0.0,0.0,0.0,0.0,0.0,0.0,0.0,0.0,0.0,0.0,0.0,0.0,0.0,0.0,0.0,0.0,0.0,0.0,0.0,0.0,0.0,0.0,0.0,0.0,0.0,0.0,0.0,0.0,0.0,0.0,0.0,0.0,0.0,0.0,0.0,0.0,0.0,0.0,0.0,0.0,0.0,0.0,0.0,0.0,0.0,0.0,0.0,0.0,0.0,0.0,0.0,0.0,0.0,0.0,0.0,0.0,0.0,0.0,0.0,0.0,0.0,0.0,0.0,0.0,0.0,0.0,0.0,0.0,0.0,0.0,0.0,0.0,0.0,0.0,0.0,0.0,0.0,0.0,0.0,0.0,0.0,0.0,0.0,0.0,0.0,0.0,0.0,0.0,0.0,0.0,0.0,0.0,0.0,0.0,0.0,0.0,0.0,0.0,0.0,0.0,0.0,0.0,0.0,0.0,0.0,0.0,0.0,0.0,0.0,0.0,0.0,0.0,0.0,0.0,0.0,0.0,0.0,0.0,0.0,0.0,0.0,0.0,0.0,0.0,0.0,0.0,0.0,0.0,0.0,0.0,0.0,0.0,0.0,0.0,0.0,0.0,0.0,0.0,0.0,0.0,0.0,0.0,0.0,0.0,0.0,0.0,0.0,0.0,0.0,0.0,0.0,0.0,0.0,0.0,0.0,0.0,0.0,0.0,0.0,0.0,0.0,0.0,0.0,0.0,0.0,0.0,0.0,0.0,0.0,0.0,0.0,0.0,0.0,0.0,0.0,0.0,0.0,0.0,0.0,0.0,0.0,0.0,0.0,0.0,0.0,0.0,0.0,0.0,0.0,0.0,0.0,0.0,0.0,0.0,0.0,0.0,0.0,0.0,0.0,0.0,0.0,0.0,0.0,0.0,0.0,0.0,0.0,0.0,0.0,0.0,0.0,0.0,0.0,0.0,0.0,0.0,0.0,0.0,0.0,0.0,0.0,0.0,0.0,0.0,0.0,0.0,0.0,0.0,0.0,0.0,0.0,0.0,0.0,0.0,0.0,0.0,0.0,0.0,0.0,0.0,0.0,0.0,0.0,0.0,0.0,0.0,0.0,0.0,0.0,0.0,0.0,0.0,0.0,0.0,0.0,0.0,0.0,0.0,0.0,0.0,0.0,0.0,0.0,0.0,0.0,0.0,0.0,0.0,0.0,0.0,0.0,0.0,0.0,0.0,0.0,0.0,0.0,0.0,0.0,0.0,0.0,0.0,0.0,0.0,0.0,0.0,0.0,0.0,0.0,0.0,0.0,0.0,0.0,0.0,0.0,0.0,0.0,0.0,0.0,0.0,0.0,0.0,0.0,0.0,0.0,0.0,0.0,0.0,0.0,0.0,0.0,0.0,0.0,0.0,0.0,0.0,0.0,0.0,0.0,0.0,0.0,0.0,0.0,0.0,0.0,0.0,0.0,0.0,0.0,0.0,0.0,0.0,0.0,0.0,0.0,0.0,0.0,0.0,0.0,0.0,0.0,0.0,0.0,0.0,0.0,0.0,0.0,0.0,0.0,0.0,0.0,0.0,0.0,0.0,0.0,0.0,0.0,0.0,0.0,0.0,0.0,0.0,0.0,0.0,0.0,0.0,0.0,0.0,0.0,0.0,0.0,0.0,0.0,0.0,0.0,0.0,0.0,0.0,0.0,0.0,0.0,0.0,0.0,0.0,0.0,0.0,0.0,0.0,0.0,0.0,0.0,0.0,0.0,0.0,0.0,0.0,0.0,0.0,0.0,0.0,0.0,0.0,0.0,0.0,0.0,0.0,0.0,0.0,0.0,0.0,0.0,0.0,0.0,0.0,0.0,0.0,0.0,0.0,0.0,0.0,0.0,0.0,0.0,0.0,0.0,0.0,0.0,0.0,0.0,0.0,0.0,0.0,0.0,0.0,0.0,0.0,0.0,0.0,0.0,0.0,0.0,0.0,0.0,0.0,0.0,0.0,0.0,0.0,0.0,0.0,0.0,0.0,0.0,0.0,0.0,0.0,0.0,0.0,0.0,0.0,0.0,0.0,0.0,0.0,0.0,0.0,0.0,0.0,0.0,0.0,0.0,0.0,0.0,0.0,0.0,0.0,0.0,0.0,0.0,0.0,0.0,0.0,0.0,0.0,0.0,0.0,0.0,0.0,0.0,0.0,0.0,0.0,0.0,0.0,0.0,0.0,0.0,0.0,0.0,0.0,0.0,0.0,0.0,0.0,0.0,0.0,0.0,0.0,0.0,0.0,0.0,0.0,0.0,0.0,0.0,0.0,0.0,0.0,0.0,0.0,0.0,0.0,0.0,0.0,0.0,0.0,0.0,0.0,0.0,0.0,0.0,0.0,0.0,0.0,0.0,0.0,0.0,0.0,0.0,0.0,0.0,0.0,0.0,0.0,0.0,0.0,0.0,0.0,0.0,0.0,0.0,0.0,0.0,0.0,0.0,0.0,0.0,0.0,0.0,0.0,0.0,0.0,0.0,0.0,0.0,0.0,0.0,0.0,0.0,0.0,0.0,0.0,0.0,0.0,0.0,0.0,0.0,0.0,0.0,0.0,0.0,0.0,0.0,0.0,0.0,0.0,0.0,0.0,0.0,0.0,0.0,0.0,0.0,0.0,0.0,0.0,0.0,0.0,0.0,0.0,0.0,0.0,0.0,0.0,0.0,0.0,0.0,0.0,0.0,0.0,0.0,0.0,0.0,0.0,0.0,0.0,0.0,0.0,0.0,0.0,0.0,0.0,0.0,0.0,0.0,0.0,0.0,0.0,0.0,0.0,0.0,0.0,0.0,0.0,0.0,0.0,0.0,0.0,0.0,0.0,0.0,0.0,0.0,0.0,0.0,0.0,0.0,0.0,0.0,0.0,0.0,0.0,0.0,0.0,0.0,0.0,0.0,0.0,0.0,0.0,0.0,0.0,0.0,0.0,0.0,0.0,0.0,0.0,0.0,0.0,0.0,0.0,0.0,0.0,0.0,0.0,0.0,0.0,0.0,0.0,0.0,0.0,0.0,0.0,0.0,0.0,0.0,0.0,0.0,0.0,0.0,0.0,0.0,0.0,0.0,0.0,0.0,0.0,0.0,0.0,0.0,0.0,0.0,0.0,0.0,0.0,0.0,0.0,0.0,0.0,0.0,0.0,0.0,0.0,0.0,0.0,0.0,0.0,0.0,0.0,0.0,0.0,0.0,0.0,0.0,0.0,0.0,0.0,0.0,0.0,0.0,0.0,0.0,0.0,0.0,0.0,0.0,0.0,0.0,0.0,0.0,0.0,0.0,0.0,0.0,0.0,0.0,0.0,0.0,0.0,0.0,0.0,0.0,0.0,0.0,0.0,0.0,0.0,0.0,0.0,0.0,0.0,0.0,0.0,0.0,0.0,0.0,0.0,0.0,0.0,0.0,0.0,0.0,0.0,0.0,0.0,0.0,0.0,0.0,0.0,0.0,0.0,0.0,0.0,0.0,0.0,0.0,0.0,0.0,0.0,0.0,0.0,0.0,0.0,0.0,0.0,0.0,0.0,0.0,0.0,0.0,0.0,0.0,0.0,0.0,0.0,0.0,0.0,0.0,0.0,0.0,0.0,0.0,0.0,0.0,0.0,0.0,0.0,0.0,0.0,0.0,0.0,0.0,0.0,0.0,0.0,0.0,0.0,0.0,0.0,0.0,0.0,0.0,0.0,0.0,0.0,0.0,0.0,0.0,0.0,0.0,0.0,0.0,0.0,0.0,0.0,0.0,0.0,0.0,0.0,0.0,0.0,0.0,0.0,0.0,0.0,0.0,0.0,0.0,0.0,0.0,0.4772,0.0,0.0,0.0,0.0,0.0,0.0,0.0,0.0,0.0,0.0,0.0,0.0,0.0,0.0,0.0,0.0,0.0,0.0,0.0,0.0,0.0,0.0,0.0,0.0,0.0,0.0,0.0,0.0,0.0,0.0,0.0,0.0,0.0,0.0,0.0,0.0,0.0,0.0,0.0,0.0,0.0,0.0,0.0,0.0,0.0,0.0,0.0,0.0,0.0,0.0,0.0,0.0,0.0,0.0,0.0,0.0,0.0,0.0,0.0,0.0,0.0,0.0,0.0,0.0,0.0,0.0,0.0,0.0,0.0,0.0,0.0,0.0,0.0,0.0,0.0,0.0,0.0,0.0,0.0,0.0,0.0,0.0,0.0,0.0,0.0,0.0,0.0,0.0,0.0,0.0,0.0,0.0,0.0,0.0,0.0,0.0,0.0,0.0,0.0,0.0,0.0,0.0,0.0,0.0,0.0,0.0,0.0,0.0,0.0,0.0,0.4481,0.4497,0.4617,0.4695,0.4788,0.0,0.0,0.0,0.0,0.0,0.0,0.0,0.0,0.0,0.0,0.0,0.0,0.0,0.0,0.0,0.0,0.0,0.0,0.0,0.0,0.0,0.0,0.0,0.0,0.0,0.0,0.0,0.0,0.0,0.0,0.0,0.0,0.0,0.0,0.0,0.0,0.0,0.0,0.0,0.0,0.0,0.0,0.0,0.0,0.0,0.0,0.0,0.0,0.0,0.0,0.0,0.0,0.0,0.0,0.0,0.0,0.0,0.0,0.0,0.0,0.0,0.0,0.0,0.0,0.0,0.0,0.0,0.0,0.0,0.0,0.0,0.0,0.0,0.0,0.0,0.0,0.0,0.0,0.0,0.0,0.0,0.0,0.0,0.0,0.0,0.0,0.0,0.0,0.0,0.0,0.0,0.0,0.0,0.0,0.0,0.0,0.0,0.0,0.0,0.0,0.0,0.0,0.0,0.0,0.0,0.0,0.0,0.0,0.0,0.0,0.0,0.0,0.4655,0.4753,0.4842,0.0,0.0,0.0,0.0,0.0,0.0,0.0,0.0,0.0,0.0,0.0,0.0,0.0,0.0,0.0,0.0,0.0,0.0,0.0,0.0,0.0,0.0,0.0,0.0,0.0,0.0,0.0,0.0,0.0,0.0,0.0,0.0,0.0,0.0,0.0,0.0,0.0,0.0,0.0,0.0,0.0,0.0,0.0,0.0,0.0,0.0,0.0,0.0,0.0,0.0,0.0,0.0,0.0,0.0,0.0,0.0,0.0,0.0,0.0,0.0,0.0,0.0,0.0,0.0,0.0,0.0,0.0,0.0,0.0,0.0,0.0,0.0,0.0,0.0,0.0,0.0,0.0,0.0,0.0,0.0,0.0,0.0,0.0,0.0,0.0,0.0,0.0,0.0,0.0,0.0,0.0,0.0,0.0,0.0,0.0,0.0,0.0,0.0,0.0,0.0,0.0,0.0,0.0,0.0,0.0,0.0,0.0,0.0,0.0,0.0,0.4522,0.4592,0.4711,0.0,0.4971,0.0,0.0,0.0,0.0,0.0,0.0,0.0,0.0,0.0,0.0,0.0,0.0,0.0,0.0,0.0,0.0,0.0,0.0,0.0,0.0,0.0,0.0,0.0,0.0,0.0,0.0,0.0,0.0,0.0,0.0,0.0,0.0,0.0,0.0,0.0,0.0,0.0,0.0,0.0,0.0,0.0,0.0,0.0,0.0,0.0,0.0,0.0,0.0,0.0,0.0,0.0,0.0,0.0,0.0,0.0,0.0,0.0,0.0,0.0,0.0,0.0,0.0,0.0,0.0,0.0,0.0,0.0,0.0,0.0,0.0,0.0,0.0,0.0,0.0,0.0,0.0,0.0,0.0,0.0,0.0,0.0,0.0,0.0,0.0,0.0,0.0,0.0,0.0,0.0,0.0,0.0,0.0,0.0,0.0,0.0,0.0,0.0,0.0,0.0,0.0,0.0,0.0,0.0,0.0,0.0,0.0,0.0,0.0,0.0,0.0,0.4528,0.4599,0.481,0.4968,0.0,0.0,0.0,0.0,0.0,0.0,0.0,0.0,0.0,0.0,0.0,0.0,0.0,0.0,0.0,0.0,0.0,0.0,0.0,0.0,0.0,0.0,0.0,0.0,0.0,0.0,0.0,0.0,0.0,0.0,0.0,0.0,0.0,0.0,0.0,0.0,0.0,0.0,0.0,0.0,0.0,0.0,0.0,0.0,0.0,0.0,0.0,0.0,0.0,0.0,0.0,0.0,0.0,0.0,0.0,0.0,0.0,0.0,0.0,0.0,0.0,0.0,0.0,0.0,0.0,0.0,0.0,0.0,0.0,0.0,0.0,0.0,0.0,0.0,0.0,0.0,0.0,0.0,0.0,0.0,0.0,0.0,0.0,0.0,0.0,0.0,0.0,0.0,0.0,0.0,0.0,0.0,0.0,0.0,0.0,0.0,0.0,0.0,0.0,0.0,0.0,0.0,0.0,0.0,0.0,0.0,0.0,0.0,0.0,0.0,0.4509,0.457,0.4675,0.4881,0.504,0.5099,0.0,0.0,0.0,0.0,0.0,0.0,0.0,0.0,0.0,0.0,0.0,0.0,0.0,0.0,0.0,0.0,0.0,0.0,0.0,0.0,0.0,0.0,0.0,0.0,0.0,0.0,0.0,0.0,0.0,0.0,0.0,0.0,0.0,0.0,0.0,0.0,0.0,0.0,0.0,0.0,0.0,0.0,0.0,0.0,0.0,0.0,0.0,0.0,0.0,0.0,0.0,0.0,0.0,0.0,0.0,0.0,0.0,0.0,0.0,0.0,0.0,0.0,0.0,0.0,0.0,0.0,0.0,0.0,0.0,0.0,0.0,0.0,0.0,0.0,0.0,0.0,0.0,0.0,0.0,0.0,0.0,0.0,0.0,0.0,0.0,0.0,0.0,0.0,0.0,0.0,0.0,0.0,0.0,0.0,0.0,0.0,0.0,0.0,0.0,0.0,0.0,0.0,0.0,0.0,0.0,0.0,0.0,0.0,0.4493,0.4562,0.4715,0.4905,0.4973,0.5029,0.0,0.0,0.0,0.0,0.0,0.0,0.0,0.0,0.0,0.0,0.0,0.0,0.0,0.0,0.0,0.0,0.0,0.0,0.0,0.0,0.0,0.0,0.0,0.0,0.0,0.0,0.0,0.0,0.0,0.0,0.0,0.0,0.0,0.0,0.0,0.0,0.0,0.0,0.0,0.0,0.0,0.0,0.0,0.0,0.0,0.0,0.0,0.0,0.0,0.0,0.0,0.0,0.0,0.0,0.0,0.0,0.0,0.0,0.0,0.0,0.0,0.0,0.0,0.0,0.0,0.0,0.0,0.0,0.0,0.0,0.0,0.0,0.0,0.0,0.0,0.0,0.0,0.0,0.0,0.0,0.0,0.0,0.0,0.0,0.0,0.0,0.0,0.0,0.0,0.0,0.0,0.0,0.0,0.0,0.0,0.0,0.0,0.0,0.0,0.0,0.0,0.0,0.0,0.0,0.0,0.0,0.0,0.0,0.0,0.4579,0.5231,0.563,0.5717,0.5787,0.56,0.0,0.0,0.0,0.0,0.0,0.0,0.0,0.0,0.0,0.0,0.0,0.0,0.0,0.0,0.0,0.0,0.0,0.0,0.0,0.0,0.0,0.0,0.0,0.0,0.0,0.0,0.0,0.0,0.0,0.0,0.0,0.0,0.0,0.0,0.0,0.0,0.0,0.0,0.0,0.0,0.0,0.0,0.0,0.0,0.0,0.0,0.0,0.0,0.0,0.0,0.0,0.0,0.0,0.0,0.0,0.0,0.0,0.0,0.0,0.0,0.0,0.0,0.0,0.0,0.0,0.0,0.0,0.0,0.0,0.0,0.0,0.0,0.0,0.0,0.0,0.0,0.0,0.0,0.0,0.0,0.0,0.0,0.0,0.0,0.0,0.0,0.0,0.0,0.0,0.0,0.0,0.0,0.0,0.0,0.0,0.0,0.0,0.0,0.0,0.0,0.0,0.0,0.0,0.0,0.0,0.0,0.0,0.0,0.0,0.5092,0.0,0.655,0.6614,0.6412,0.6042,0.0,0.0,0.0,0.0,0.0,0.0,0.0,0.0,0.0,0.0,0.0,0.0,0.0,0.0,0.0,0.0,0.0,0.0,0.0,0.0,0.0,0.0,0.0,0.0,0.0,0.0,0.0,0.0,0.0,0.0,0.0,0.0,0.0,0.0,0.0,0.0,0.0,0.0,0.0,0.0,0.0,0.0,0.0,0.0,0.0,0.0,0.0,0.0,0.0,0.0,0.0,0.0,0.0,0.0,0.0,0.0,0.0,0.0,0.0,0.0,0.0,0.0,0.0,0.0,0.0,0.0,0.0,0.0,0.0,0.0,0.0,0.0,0.0,0.0,0.0,0.0,0.0,0.0,0.0,0.0,0.0,0.0,0.0,0.0,0.0,0.0,0.0,0.0,0.0,0.0,0.0,0.0,0.0,0.0,0.0,0.0,0.0,0.0,0.0,0.0,0.0,0.0,0.0,0.0,0.0,0.0,0.0,0.0,0.5143,0.61,0.6968,0.7452,0.7506,0.6792,0.6371,0.0,0.0,0.0,0.0,0.0,0.0,0.0,0.0,0.0,0.0,0.0,0.0,0.0,0.0,0.0,0.0,0.0,0.0,0.0,0.0,0.0,0.0,0.0,0.0,0.0,0.0,0.0,0.0,0.0,0.0,0.0,0.0,0.0,0.0,0.0,0.0,0.0,0.0,0.0,0.0,0.0,0.0,0.0,0.0,0.0,0.0,0.0,0.0,0.0,0.0,0.0,0.0,0.0,0.0,0.0,0.0,0.0,0.0,0.0,0.0,0.0,0.0,0.0,0.0,0.0,0.0,0.0,0.0,0.0,0.0,0.0,0.0,0.0,0.0,0.0,0.0,0.0,0.0,0.0,0.0,0.0,0.0,0.0,0.0,0.0,0.0,0.0,0.0,0.0,0.0,0.0,0.0,0.0,0.0,0.0,0.0,0.0,0.0,0.0,0.0,0.0,0.0,0.0,0.0,0.0,0.0,0.0,0.0,0.0,0.7862,0.8202,0.8395,0.846,0.8225,0.7558,0.0,0.0,0.0,0.0,0.0,0.0,0.0,0.0,0.0,0.0,0.0,0.0,0.0,0.0,0.0,0.0,0.0,0.0,0.0,0.0,0.0,0.0,0.0,0.0,0.0,0.0,0.0,0.0,0.0,0.0,0.0,0.0,0.0,0.0,0.0,0.0,0.0,0.0,0.0,0.0,0.0,0.0,0.0,0.0,0.0,0.0,0.0,0.0,0.0,0.0,0.0,0.0,0.0,0.0,0.0,0.0,0.0,0.0,0.0,0.0,0.0,0.0,0.0,0.0,0.0,0.0,0.0,0.0,0.0,0.0,0.0,0.0,0.0,0.0,0.0,0.0,0.0,0.0,0.0,0.0,0.0,0.0,0.0,0.0,0.0,0.0,0.0,0.0,0.0,0.0,0.0,0.0,0.0,0.0,0.0,0.0,0.0,0.0,0.0,0.0,0.0,0.0,0.0,0.0,0.0,0.0,0.0,0.0,0.0,0.9674,0.9742,0.9954,1.0361,0.9719,0.8903,0.7902,0.0,0.0,0.0,0.0,0.0,0.0,0.0,0.0,0.0,0.0,0.0,0.0,0.0,0.0,0.0,0.0,0.0,0.0,0.0,0.0,0.0,0.0,0.0,0.0,0.0,0.0,0.0,0.0,0.0,0.0,0.0,0.0,0.0,0.0,0.0,0.0,0.0,0.0,0.0,0.0,0.0,0.0,0.0,0.0,0.0,0.0,0.0,0.0,0.0,0.0,0.0,0.0,0.0,0.0,0.0,0.0,0.0,0.0,0.0,0.0,0.0,0.0,0.0,0.0,0.0,0.0,0.0,0.0,0.0,0.0,0.0,0.0,0.0,0.0,0.0,0.0,0.0,0.0,0.0,0.0,0.0,0.0,0.0,0.0,0.0,0.0,0.0,0.0,0.0,0.0,0.0,0.0,0.0,0.0,0.0,0.0,0.0,0.0,0.0,0.0,0.0,0.0,0.0,0.0,0.0,0.0,0.0,0.0,1.1534,1.1584,1.1983,1.2711,1.1152,1.0285,0.0,0.0,0.0,0.0,0.0,0.0,0.0,0.0,0.0,0.0,0.0,0.0,0.0,0.0,0.0,0.0,0.0,0.0,0.0,0.0,0.0,0.0,0.0,0.0,0.0,0.0,0.0,0.0,0.0,0.0,0.0,0.0,0.0,0.0,0.0,0.0,0.0,0.0,0.0,0.0,0.0,0.0,0.0,0.0,0.0,0.0,0.0,0.0,0.0,0.0,0.0,0.0,0.0,0.0,0.0,0.0,0.0,0.0,0.0,0.0,0.0,0.0,0.0,0.0,0.0,0.0,0.0,0.0,0.0,0.0,0.0,0.0,0.0,0.0,0.0,0.0,0.0,0.0,0.0,0.0,0.0,0.0,0.0,0.0,0.0,0.0,0.0,0.0,0.0,0.0,0.0,0.0,0.0,0.0,0.0,0.0,0.0,0.0,0.0,0.0,0.0,0.0,0.0,0.0,0.0,0.0,0.0,0.0,0.0,1.3233,1.3945,1.3828,1.2828,1.1737,1.0898,0.0,0.0,0.0,0.0,0.0,0.0,0.0,0.0,0.0,0.0,0.0,0.0,0.0,0.0,0.0,0.0,0.0,0.0,0.0,0.0,0.0,0.0,0.0,0.0,0.0,0.0,0.0,0.0,0.0,0.0,0.0,0.0,0.0,0.0,0.0,0.0,0.0,0.0,0.0,0.0,0.0,0.0,0.0,0.0,0.0,0.0,0.0,0.0,0.0,0.0,0.0,0.0,0.0,0.0,0.0,0.0,0.0,0.0,0.0,0.0,0.0,0.0,0.0,0.0,0.0,0.0,0.0,0.0,0.0,0.0,0.0,0.0,0.0,0.0,0.0,0.0,0.0,0.0,0.0,0.0,0.0,0.0,0.0,0.0,0.0,0.0,0.0,0.0,0.0,0.0,0.0,0.0,0.0,0.0,0.0,0.0,0.0,0.0,0.0,0.0,0.0,0.0,0.0,0.0,0.0,0.0,0.0,0.0,1.2141,1.3963,1.5194,1.5553,1.4897,1.3758,1.2574,0.0,0.0,0.0,0.0,0.0,0.0,0.0,0.0,0.0,0.0,0.0,0.0,0.0,0.0,0.0,0.0,0.0,0.0,0.0,0.0,0.0,0.0,0.0,0.0,0.0,0.0,0.0,0.0,0.0,0.0,0.0,0.0,0.0,0.0,0.0,0.0,0.0,0.0,0.0,0.0,0.0,0.0,0.0,0.0,0.0,0.0,0.0,0.0,0.0,0.0,0.0,0.0,0.0,0.0,0.0,0.0,0.0,0.0,0.0,0.0,0.0,0.0,0.0,0.0,0.0,0.0,0.0,0.0,0.0,0.0,0.0,0.0,0.0,0.0,0.0,0.0,0.0,0.0,0.0,0.0,0.0,0.0,0.0,0.0,0.0,0.0,0.0,0.0,0.0,0.0,0.0,0.0,0.0,0.0,0.0,0.0,0.0,0.0,0.0,0.0,0.0,0.0,0.0,0.0,0.0,0.0,0.0,0.0,1.3105,1.399,1.5785,1.7017,1.758,1.6188,1.4628,0.0,0.0,0.0,0.0,0.0,0.0,0.0,0.0,0.0,0.0,0.0,0.0,0.0,0.0,0.0,0.0,0.0,0.0,0.0,0.0,0.0,0.0,0.0,0.0,0.0,0.0,0.0,0.0,0.0,0.0,0.0,0.0,0.0,0.0,0.0,0.0,0.0,0.0,0.0,0.0,0.0,0.0,0.0,0.0,0.0,0.0,0.0,0.0,0.0,0.0,0.0,0.0,0.0,0.0,0.0,0.0,0.0,0.0,0.0,0.0,0.0,0.0,0.0,0.0,0.0,0.0,0.0,0.0,0.0,0.0,0.0,0.0,0.0,0.0,0.0,0.0,0.0,0.0,0.0,0.0,0.0,0.0,0.0,0.0,0.0,0.0,0.0,0.0,0.0,0.0,0.0,0.0,0.0,0.0,0.0,0.0,0.0,0.0,0.0,0.0,0.0,0.0,0.0,0.0,0.0,0.0,0.0,0.0,1.3116,1.4032,1.6261,1.7261,1.6778,1.5837,1.4854,0.0,0.0,0.0,0.0,0.0,0.0,0.0,0.0,0.0,0.0,0.0,0.0,0.0,0.0,0.0,0.0,0.0,0.0,0.0,0.0,0.0,0.0,0.0,0.0,0.0,0.0,0.0,0.0,0.0,0.0,0.0,0.0,0.0,0.0,0.0,0.0,0.0,0.0,0.0,0.0,0.0,0.0,0.0,0.0,0.0,0.0,0.0,0.0,0.9458,0.0,0.0,0.0,0.0,0.0,0.0,0.0,0.0,0.0,0.0,0.0,0.0,0.0,0.0,0.0,0.0,0.0,0.0,0.0,0.0,0.0,0.0,0.0,0.0,0.0,0.0,0.0,0.0,0.0,0.0,0.0,0.0,0.0,0.0,0.0,0.0,0.0,0.0,0.0,0.0,0.0,0.0,0.0,0.0,0.0,0.0,0.0,0.0,0.0,0.0,0.0,0.0,0.0,0.0,0.0,0.0,0.0,0.0,0.0,1.3125,1.3974,1.6012,1.7087,1.7028,1.6292,1.5094,0.0,0.0,0.0,0.0,0.0,0.0,0.0,0.0,0.0,0.0,0.0,0.0,0.0,0.0,0.0,0.0,0.0,0.0,0.0,0.0,0.0,0.0,0.0,0.0,0.0,0.0,0.0,0.0,0.0,0.0,0.0,0.0,0.0,0.0,0.0,0.0,0.0,0.0,0.0,0.0,0.0,0.0,0.0,0.0,0.0,0.0,0.0,0.0,0.0,0.0,0.0,0.0,0.0,0.0,0.0,0.0,0.0,0.0,0.0,0.0,0.0,0.0,0.0,0.0,0.0,0.0,0.0,0.0,0.0,0.0,0.0,0.0,0.0,0.0,0.0,0.0,0.0,0.0,0.0,0.0,0.0,0.0,0.0,0.0,0.0,0.0,0.0,0.0,0.0,0.0,0.0,0.0,0.0,0.0,0.0,0.0,0.0,0.0,0.0,0.0,0.0,0.0,0.0,0.0,0.0,0.0,0.0,1.1968,1.3122,1.3717,1.5443,1.6675,1.7295,1.6786,1.5329,1.2924,0.0,0.0,0.0,0.0,0.0,0.0,0.0,0.0,0.0,0.0,0.0,0.0,0.0,0.0,0.0,0.0,0.0,0.0,0.0,0.0,0.0,0.0,0.0,0.0,0.0,0.0,0.0,0.0,0.0,0.0,0.0,0.0,0.0,0.0,0.0,0.0,0.0,0.0,1.0094,1.0006,0.0,0.0,0.0,0.0,0.0,0.0,0.0,0.0,0.9996,0.0,0.0,0.0,0.0,0.0,0.0,0.0,0.0,0.0,0.0,0.0,0.0,0.0,0.0,0.0,0.0,0.0,0.0,0.0,0.0,0.0,0.0,0.0,0.0,0.0,0.0,0.0,0.0,0.0,0.0,0.0,0.0,0.0,0.0,0.0,0.0,0.0,0.0,0.0,0.0,0.0,0.0,0.0,0.0,0.0,0.0,0.0,0.0,0.0,0.0,0.0,0.0,0.0,0.0,0.0,0.0,1.0191,1.2469,1.3328,1.2788,1.5068,1.6077,1.5639,1.6193,1.5328,1.2968,0.0,0.0,0.0,0.0,0.0,0.0,0.0,0.0,0.0,0.0,0.0,0.0,0.0,0.0,0.0,0.0,0.0,0.0,0.0,0.0,0.0,0.0,0.0,0.0,0.0,0.0,0.0,0.0,0.0,0.0,0.0,0.0,0.0,0.0,0.0,0.0,0.0,0.0,0.0,1.0128,1.0138,0.0,0.0,0.0,0.0,0.0,0.0,0.0,0.0,1.0199,0.0,0.0,0.0,0.0,0.0,0.0,0.0,0.0,0.0,0.0,0.0,0.0,0.0,0.0,0.0,0.0,0.0,0.0,0.0,0.0,0.0,0.0,0.0,0.0,0.0,0.0,0.0,0.0,0.0,0.0,0.0,0.0,0.0,0.0,0.0,0.0,0.0,0.0,0.0,0.0,0.0,0.0,0.0,0.0,0.0,0.0,0.0,0.0,0.0,0.0,0.0,0.0,0.0,0.0,0.0,1.0219,1.2097,1.2912,1.2566,1.4551,1.5489,1.5218,1.5208,1.446,0.0,0.0,0.0,0.0,0.0,0.0,0.0,0.0,0.0,0.0,0.0,0.0,0.0,0.0,0.0,0.0,0.0,0.0,0.0,0.0,0.0,0.0,0.0,0.0,0.0,0.0,0.0,0.0,0.0,0.0,0.0,0.0,0.0,0.0,0.0,0.0,0.0,0.0,0.0,0.0,1.0049,1.0097,1.016,0.0,0.0,0.0,0.0,0.0,0.0,1.0181,1.0253,0.0,0.0,0.0,0.0,0.0,0.0,0.0,0.0,0.0,0.0,0.0,0.0,0.0,0.0,0.0,0.0,0.0,0.0,0.0,0.0,0.0,0.0,0.0,0.0,0.0,0.0,0.0,0.0,0.0,0.0,0.0,0.0,0.0,0.0,0.0,0.0,0.0,0.0,0.0,0.0,0.0,0.0,0.0,0.0,0.0,0.0,0.0,0.0,0.0,0.0,0.0,0.0,0.0,0.0,0.0,1.0135,1.1836,1.2582,1.233,1.3879,1.4717,1.4678,1.4223,1.353,0.0,0.0,0.0,0.0,0.0,0.0,0.0,0.0,0.0,0.0,0.0,0.0,0.0,0.0,0.0,0.0,0.0,0.0,0.0,0.0,0.0,0.0,0.0,0.0,0.0,0.0,0.0,0.0,0.0,0.0,0.0,0.0,0.0,0.0,0.0,0.0,0.0,0.0,0.0,0.0,0.0,0.9906,1.0094,0.9939,0.0,0.0,0.0,0.0,1.0183,1.082,0.0,0.0,0.0,0.0,0.0,0.0,0.0,0.0,0.0,0.0,0.0,0.0,0.0,0.0,0.0,0.0,0.0,0.0,0.0,0.0,0.0,0.0,0.0,0.0,0.0,0.0,0.0,0.0,0.0,0.0,0.0,0.0,0.0,0.0,0.0,0.0,0.0,0.0,0.0,0.0,0.0,0.0,0.0,0.0,0.0,0.0,0.0,0.0,0.0,0.0,0.0,0.0,0.0,0.0,0.0,0.0,1.0191,1.24,1.2835,1.152,1.2981,1.3558,1.2942,1.3615,1.3262,0.0,0.0,0.0,0.0,0.0,0.0,0.0,0.0,0.0,0.0,0.0,0.0,0.0,0.0,0.0,0.0,0.0,0.0,0.0,0.0,0.0,0.0,0.0,0.0,0.0,0.0,0.0,0.0,0.0,0.0,0.0,0.0,0.0,0.0,0.0,0.0,0.0,0.0,0.0,0.0,0.0,0.9424,0.9788,0.9573,0.9939,0.0,0.0,1.0187,1.019,1.2735,0.0,0.0,0.0,0.0,0.0,0.0,0.0,0.0,0.0,0.0,0.0,0.0,0.0,0.0,0.0,0.0,0.0,0.0,0.0,0.0,0.0,0.0,0.0,0.0,0.0,0.0,0.0,0.0,0.0,0.0,0.0,0.0,0.0,0.0,0.0,0.0,0.0,0.0,0.0,0.0,0.0,0.0,0.0,0.0,0.0,0.0,0.0,0.0,0.0,0.0,0.0,0.0,0.0,0.0,0.0,0.907,0.9997,1.1428,1.1798,1.115,1.23,1.2839,1.2605,1.2599,1.2229,0.0,0.0,0.0,0.0,0.0,0.0,0.0,0.0,0.0,0.0,0.0,0.0,0.0,0.0,0.0,0.0,0.0,0.0,0.0,0.0,0.0,0.0,0.0,0.0,0.0,0.0,0.0,0.0,0.0,0.0,0.0,0.0,0.0,0.0,0.0,0.0,0.0,0.0,0.0,0.0,0.0,0.0,0.925,0.9539,0.0,0.0,0.0,1.0402,1.1171,0.0,0.0,0.0,0.0,0.0,0.0,0.0,0.0,0.0,0.0,0.0,0.0,0.0,0.0,0.0,0.0,0.0,0.0,0.0,0.0,0.0,0.0,0.0,0.0,0.0,0.0,0.0,0.0,0.0,0.0,0.0,0.0,0.0,0.0,0.0,0.0,0.0,0.0,0.0,0.0,0.0,0.0,0.0,0.0,0.0,0.0,0.0,0.0,0.0,0.0,0.0,0.0,0.0,0.0,0.0,0.0,0.0,0.9857,1.0798,1.1086,1.0722,1.1783,1.2338,1.2279,1.1967,0.0,0.0,0.0,0.0,0.0,0.0,0.0,0.0,0.0,0.0,0.0,0.0,0.0,0.0,0.0,0.0,0.0,0.0,0.0,0.0,0.0,0.0,0.0,0.0,0.0,0.0,0.0,0.5123,0.0,0.0,0.0,0.0,0.0,0.0,0.0,0.0,0.0,0.0,0.0,0.0,0.0,0.0,0.9291,0.8994,0.9461,1.0171,0.0,0.0,1.0468,1.2194,1.3596,1.3486,0.0,0.0,0.0,0.0,0.0,0.0,0.0,0.0,0.0,0.0,0.0,0.0,0.0,0.0,0.0,0.0,0.0,0.0,0.0,0.0,0.0,0.0,0.0,0.0,0.0,0.0,0.0,0.0,0.0,0.0,0.0,0.0,0.0,0.0,0.0,0.0,0.0,0.0,0.0,0.0,0.0,0.0,0.0,0.0,0.0,0.0,0.0,0.0,0.0,0.0,0.0,0.0,0.0,0.0,0.9019,0.9825,1.1261,1.1295,0.9909,1.1445,1.2012,1.1424,1.2192,1.2256,0.0,0.0,0.0,0.0,0.0,0.0,0.0,0.0,0.0,0.0,0.0,0.0,0.0,0.0,0.0,0.0,0.0,0.0,0.0,0.0,0.0,0.0,0.0,0.0,0.0,0.0,0.0,0.0,0.0,0.0,0.0,0.0,0.0,0.0,0.0,0.0,0.0,0.0,0.0,0.0,0.0,0.9462,0.9372,0.9319,0.9905,0.0,1.0406,1.0223,1.299,1.3701,1.3,1.0275,0.0,0.0,0.0,0.0,0.0,0.0,0.0,0.0,0.0,0.0,0.0,0.0,0.0,0.0,0.0,0.0,0.0,0.0,0.0,0.0,0.0,0.0,0.0,0.0,0.0,0.0,0.0,0.0,0.0,0.0,0.0,0.0,0.0,0.0,0.0,0.0,0.0,0.0,0.0,0.0,0.0,0.0,0.0,0.0,0.0,0.0,0.0,0.0,0.0,0.0,0.0,0.0,0.0,0.9201,1.0339,1.1382,1.1628,1.114,1.2281,1.2638,1.2047,1.2456,1.2576,0.0,0.0,0.0,0.0,0.0,0.0,0.0,0.0,0.0,0.0,0.0,0.0,0.0,0.0,0.0,0.0,0.0,0.0,0.0,0.0,0.0,0.0,0.0,0.0,0.0,0.0,0.0,0.0,0.6406,0.5702,0.5176,0.0,0.0,0.0,0.0,0.0,0.0,0.0,0.0,0.0,0.0,0.9753,0.9925,1.0051,0.0,0.0,1.1079,1.1544,1.3724,1.3794,1.2939,1.0977,1.0749,0.0,0.0,0.0,0.0,0.0,0.0,0.0,0.0,0.0,0.0,0.0,0.0,0.0,0.0,0.0,0.0,0.0,0.0,0.0,0.0,0.0,0.0,0.0,0.0,0.0,0.0,0.0,0.0,0.0,0.0,0.0,0.0,0.0,0.0,0.0,0.0,0.0,0.0,0.0,0.0,0.0,0.0,0.0,0.0,0.0,0.0,0.0,0.0,0.0,0.0,0.0,0.0,0.9445,1.0605,1.1805,1.224,1.1848,1.3015,1.3398,1.2897,1.3233,1.3473,0.0,0.0,0.0,0.0,0.0,0.0,0.0,0.0,0.0,0.0,0.0,0.0,0.0,0.0,0.0,0.0,0.0,0.0,0.0,0.0,0.0,0.0,0.0,0.0,0.0,0.0,0.0,0.0,0.6927,0.5762,0.5149,0.0,0.0,0.0,0.0,0.0,0.0,0.0,0.0,0.0,0.0,1.008,1.0172,1.0349,1.0582,1.0946,1.1313,1.2067,1.3417,1.335,1.278,1.1709,0.0,0.0,0.0,0.0,0.0,0.0,0.0,0.0,0.0,0.0,0.0,0.0,0.0,0.0,0.0,0.0,0.0,0.0,0.0,0.0,0.0,0.0,0.0,0.0,0.0,0.0,0.0,0.7403,0.0,0.0,0.7471,0.0,0.0,0.0,0.0,0.0,0.0,0.0,0.0,0.0,0.0,0.0,0.0,0.0,0.0,0.0,0.0,0.0,0.0,0.0,0.0,0.0,0.0,0.9798,1.0456,1.2693,1.3171,1.1872,1.3466,1.4217,1.3777,1.4649,1.5177,1.5208,0.0,0.0,0.0,0.0,0.0,0.0,0.0,0.0,0.0,0.0,0.0,0.0,0.0,0.0,0.0,0.0,0.0,0.0,0.0,0.0,0.0,0.0,0.0,0.0,0.0,0.0,0.9803,0.7093,0.52,0.0,0.0,0.0,0.0,0.0,0.0,0.0,0.0,0.0,0.9891,1.021,1.0422,0.9983,0.9919,1.0123,1.0659,1.0988,1.1325,1.1829,1.2241,1.2469,0.0,0.0,0.0,0.0,0.0,0.0,0.0,0.0,0.0,0.0,0.0,0.0,0.0,0.0,0.0,0.0,0.0,0.0,0.0,0.0,0.0,0.0,0.0,0.0,0.0,0.0,0.0,1.0046,1.0068,0.0,0.0,0.0,0.0,0.0,0.0,0.0,0.0,0.0,0.0,0.0,1.6316,1.6953,0.0,0.0,0.0,0.0,0.0,0.0,0.0,0.0,0.0,0.0,0.0,0.0,1.091,1.2505,1.3818,1.4568,1.4707,1.6023,1.649,1.5996,1.6506,1.6595,1.6162,0.0,0.0,0.0,0.0,0.0,0.0,0.0,0.0,0.0,0.0,0.0,0.0,0.0,0.0,0.0,0.0,0.0,0.0,0.0,0.0,0.0,0.0,0.0,0.0,0.0,1.1794,0.0,0.0,0.0,0.0,0.0,0.0,0.0,0.0,0.0,0.0,1.1154,1.1272,1.1528,1.0969,1.0411,1.0072,0.9944,1.0288,0.0,0.0,0.0,0.0,0.0,0.0,0.0,0.0,0.0,0.0,0.0,0.0,0.0,0.0,1.1591,1.1242,1.108,1.1116,1.1575,0.0,0.0,0.0,0.0,0.0,0.0,0.0,0.0,0.0,0.0,0.0,0.0,0.0,0.0,1.3304,1.3022,1.2714,0.0,0.0,0.0,0.0,0.0,0.0,0.0,0.0,1.6809,1.7604,1.7968,1.8544,1.8563,1.8075,1.7226,1.6294,0.0,0.0,0.0,0.0,0.0,0.0,0.0,0.0,1.2099,1.3443,1.4822,1.5704,1.6159,1.7222,1.7563,1.7107,1.7729,1.7904,1.7483,1.6952,1.6125,0.0,0.0,0.0,0.0,0.0,0.0,0.0,0.0,0.0,0.0,0.0,0.0,0.0,0.0,0.0,0.0,0.0,0.0,0.0,0.0,0.0,0.0,0.0,1.3298,0.0,0.0,0.0,0.0,0.0,0.0,0.0,0.0,0.0,1.2131,1.2266,1.2332,1.2483,1.175,1.1123,1.0899,0.0,0.0,0.0,0.0,0.0,0.0,0.0,1.214,1.28,1.2748,1.2681,1.2899,1.2435,1.2066,1.2173,0.0,0.0,1.1852,1.163,1.1679,1.2405,1.1669,1.0969,1.1092,1.1116,1.1213,0.0,0.0,0.0,0.0,1.3938,0.0,0.0,0.0,1.7019,1.6873,0.0,1.5287,0.0,0.0,0.0,0.0,1.4471,1.5759,0.0,0.0,1.8367,1.8812,1.8581,1.9199,1.9459,1.9379,1.8608,1.8236,1.8173,1.551,0.0,0.0,0.0,0.0,0.0,0.0,1.3312,1.3411,1.5588,1.6531,1.614,1.7117,1.7483,1.7163,1.8355,1.9057,1.9115,1.9116,1.8394,1.6749,1.5854,0.0,0.0,0.0,0.0,0.0,0.0,0.0,0.0,0.0,0.0,0.0,0.0,0.0,0.0,0.0,0.0,0.0,0.0,0.0,0.0,1.4145,0.0,0.0,0.0,0.0,0.0,0.0,0.0,0.0,0.0,1.0832,1.188,1.3387,1.4025,1.274,0.0,0.0,0.0,0.0,1.3791,1.3795,1.3804,1.346,1.2421,1.2521,1.2898,1.3371,0.0,0.0,1.2344,1.2072,1.2109,1.262,1.2679,1.2589,1.22,1.2588,1.2888,1.2458,1.2138,1.1841,1.1592,1.1662,1.1896,1.893,0.0,0.0,0.0,0.0,1.7122,1.7652,1.8818,1.9044,1.8721,1.8023,1.7668,0.0,0.0,0.0,0.0,0.0,0.0,1.8165,1.8629,1.9833,2.0497,2.0671,2.0829,2.0557,1.9892,1.9295,1.8695,1.8171,1.7581,1.6681,1.5556,0.0,0.0,0.0,0.0,1.4173,1.5253,1.614,1.6868,1.7429,1.8029,1.8461,1.878,1.9335,1.9719,1.9887,1.9385,1.8921,1.8473,1.8022,0.0,0.0,0.0,0.0,0.0,0.0,0.0,0.0,0.0,0.0,0.0,0.0,0.0,0.0,0.0,0.0,0.0,0.0,0.0,1.626,1.5677,1.4719,0.0,0.0,0.0,0.0,0.0,0.0,0.0,0.0,0.0,1.3841,1.4242,1.4314,0.0,0.0,1.2806,1.3616,1.3971,1.4092,1.3964,1.3874,0.0,1.3392,1.3419,1.3396,1.3123,1.3099,1.3034,1.276,1.2647,1.2625,1.2708,1.2692,1.2658,1.2558,1.2359,1.2417,1.2622,1.2768,1.2552,1.1848,1.1752,1.1768,2.2307,2.103,1.9597,1.9376,1.9939,1.9677,2.0188,2.1252,2.1252,2.0831,2.0116,1.9585,1.8936,1.8171,1.7181,0.0,0.0,0.0,1.9774,1.9971,2.085,2.139,2.1559,2.1435,2.0936,2.0143,1.9806,1.9297,1.8601,1.8912,1.8482,1.74,0.0,1.594,1.5612,1.5352,1.5731,1.6743,1.7326,1.7995,1.8784,1.8951,1.9246,1.9667,1.9688,1.98,2.0038,1.9729,1.9554,1.9617,1.9195,1.8426,0.0,0.0,0.0,0.0,0.0,0.0,0.0,0.0,0.0,0.0,0.0,0.9027,1.0345,0.0,0.0,0.0,1.2794,1.5473,1.6417,1.6,0.0,0.0,0.0,0.0,0.0,0.0,0.0,1.5506,1.5053,1.4679,1.4788,1.47,1.4547,1.4401,1.3707,1.3486,1.4205,0.0,1.4254,1.4144,1.4029,1.3954,1.3821,1.3725,1.3506,1.2983,1.303,1.306,1.2855,1.282,1.2803,1.2745,1.2762,1.275,1.2709,1.2435,1.2327,1.2726,1.2908,1.2697,1.1845,1.1576,1.1384,2.4896,2.4081,2.1831,2.113,2.1533,2.2,2.2643,2.3357,2.3325,2.2906,2.2163,2.1064,2.0072,1.921,1.9576,0.0,1.9482,2.0771,2.1227,2.1129,2.1538,2.1709,2.1628,2.1395,2.0956,2.0337,2.0221,1.9943,1.9465,1.9578,1.9307,1.8644,1.7961,1.7194,1.6388,1.7046,1.7559,1.7856,1.8757,1.9484,1.9959,1.9829,1.98,1.9944,1.962,1.9556,1.9733,2.0007,2.0213,2.0256,1.9587,1.9588,2.0335,0.0,0.0,0.0,0.0,0.0,0.0,0.0,0.0,0.0,0.0,0.0,0.0,0.0,0.0,1.2209,1.4916,0.0,1.5452,1.5747,0.0,0.0,0.0,1.4957,1.4707,1.5233,1.5588,1.5618,0.0,0.0,1.4886,1.4893,1.4886,1.4701,1.447,1.4316,1.4316,1.4316,1.4327,1.4477,1.4368,1.4203,1.3908,1.3725,1.3463,1.3138,1.3154,1.3169,1.2851,1.2884,1.283,1.2739,1.2838,1.2908,1.2768,1.2749,1.2739,1.2918,1.2799,1.2516,1.1851,1.1478,1.1159,2.6386,2.6555,2.5382,2.4227,2.3089,2.2392,2.2801,2.387,2.3695,2.3205,2.2463,2.1625,2.0177,1.8361,1.9491,1.9863,1.9667,2.0427,2.1263,2.2053,2.2138,2.2346,2.2673,2.2197,2.177,2.1382,2.0532,2.0001,1.9759,1.9522,1.9251,1.8998,1.8909,1.8323,1.7328,1.7559,1.7853,1.8188,1.8642,1.9135,1.9759,1.9926,1.9837,1.9556,1.9712,1.9636,1.9365,1.9652,1.9893,2.0061,1.9994,2.0139,2.0527,1.781,0.0,0.0,0.0,0.0,0.0,0.0,0.0,0.0,0.0,1.1887,1.3356,0.0,1.5105,0.0,1.6208,1.7313,1.7576,1.7547,0.0,0.0,1.633,1.613,1.6969,1.7739,1.8201,1.8201,1.6568,1.5253,1.4855,1.5637,1.6241,1.6162,1.5186,1.4429,1.4303,1.4316,1.4639,1.5395,1.4938,1.4298,1.4187,1.4013,1.3878,1.3739,1.3873,1.3715,1.2981,1.3459,1.37,1.3033,1.2995,1.3134,1.3215,1.3047,1.3275,1.4027,1.3503,1.2603,1.2277,1.2168,1.181,2.6772,2.6988,2.6519,2.569,2.4602,2.3847,2.4045,2.4807,2.371,2.3159,2.2987,2.2213,2.1235,2.0258,2.0995,2.1268,2.1178,2.1471,2.1989,2.2607,2.2593,2.2717,2.3,2.2673,2.2287,2.1852,2.1236,2.0764,2.037,2.0176,1.9856,1.9464,1.9522,1.9122,1.8276,1.8406,1.8699,1.9049,1.95,1.9928,2.0383,2.0361,2.0234,2.0069,1.9765,1.9524,1.9397,1.9413,1.9513,1.969,1.9877,2.0141,2.0462,1.8506,1.688,0.0,0.0,0.0,0.0,0.0,0.0,0.0,0.0,0.0,0.0,0.0,1.5836,1.6241,1.7421,1.8123,1.8052,1.7913,1.7811,1.7732,1.7072,1.6876,1.7525,1.8493,1.9116,1.9101,1.6849,1.5237,1.5098,1.6624,1.7751,1.7751,1.6479,1.5249,1.4667,1.521,1.6145,1.6756,1.6322,1.5471,1.4517,1.4883,1.5263,1.5104,1.5087,1.4836,1.4071,1.4331,1.4536,1.411,1.3729,1.3617,1.399,1.3663,1.3826,1.5146,1.5343,1.4505,1.3162,1.283,1.2462,2.7022,2.6925,2.6681,2.6497,2.6317,2.5757,2.5598,2.5538,2.3535,2.298,2.3458,2.2707,2.2586,2.2873,2.2815,2.2815,2.2888,2.2815,2.283,2.2888,2.2888,2.2888,2.2888,2.2888,2.2635,2.212,2.2033,2.172,2.1154,2.1032,2.0671,2.0056,2.0041,1.9753,1.919,1.9378,1.9649,1.9973,2.0598,2.1039,2.123,2.0888,2.074,2.0785,1.9877,1.9439,1.9486,1.9264,1.9141,1.9217,1.9456,1.9803,2.0215,1.9102,1.8019,0.0,1.6275,0.0,0.0,0.0,0.0,0.0,0.0,0.0,0.0,1.5746,1.5941,1.7344,1.8448,1.8742,1.787,1.7798,1.7749,1.7621,1.7607,1.7571,1.7522,1.847,1.9157,1.9101,1.7125,1.5776,1.595,1.7801,1.9161,1.9016,1.8003,1.6724,1.5561,1.6491,1.7526,1.7874,1.7922,1.7055,1.5637,1.6252,1.7096,1.6784,1.6472,1.6127,1.5408,1.5452,1.5452,1.5162,1.4441,1.4125,1.4818,1.4426,1.4696,1.625,1.7172,1.6798,1.4349,1.3488,1.3162,2.9045,2.9338,2.8505,2.8417,2.8708,2.7429,2.5976,2.4458,2.3325,2.2906,2.3008,2.2862,2.2831,2.2859,2.2374,2.2432,2.2859,2.2388,2.2432,2.2888,2.2888,2.2888,2.2888,2.2888,2.283,2.2707,2.2236,2.1931,2.1786,2.1249,2.093,2.0793,2.0793,2.0469,1.9938,0.0,0.0,0.0,2.0359,2.0696,2.0909,2.1069,2.0945,2.0504,2.0445,0.0,1.911,1.9173,1.9104,1.8753,1.8945,0.0,0.0,0.0,0.0,0.0,0.0,0.0,0.0,0.0,0.0,0.0,1.7379,1.7019,1.6753,1.6994,1.7642,1.8648,1.897,1.9018,1.8822,1.8812,1.8808,1.876,1.876,1.8757,1.8786,1.9266,1.9472,1.9124,1.8666,1.8361,1.8353,1.9115,1.9566,1.9584,1.9192,1.8702,1.8037,1.7264,1.7093,1.7928,1.8129,1.8064,1.7767,1.8092,1.8401,1.844,1.7749,1.6987,1.6396,1.6694,1.6332,1.505,1.4424,1.4387,1.4479,1.507,1.5725,1.6512,1.7544,1.7589,1.5034,1.4283,1.4028,2.9733,2.9731,2.9107,2.8978,0.0,2.77,2.6495,2.5384,2.401,2.3215,2.2917,2.3244,2.3389,2.3389,2.3389,2.3563,2.3876,2.3519,2.3586,2.3867,2.3853,2.3829,2.3815,2.3829,2.367,2.3374,2.3078,2.2773,2.2432,2.2113,2.1779,2.1496,2.1496,2.1177,2.0538,2.0248,1.9981,1.9708,2.0063,2.0373,2.061,2.0893,2.0942,2.076,2.0566,0.0,0.0,0.0,0.0,0.0,0.0,0.0,0.0,1.9306,0.0,1.9867,1.9194,1.873,1.8552,1.8421,1.8444,1.8727,1.8804,1.8494,1.7715,1.767,1.81,1.8993,1.9116,1.9116,1.9116,1.9116,1.9116,1.9116,1.9116,1.9116,1.9176,1.98,2.0013,1.9493,1.9398,1.9398,1.9417,1.9729,2.001,2.008,1.9851,1.9632,1.9354,1.8366,1.7843,1.8263,1.8149,1.8189,1.8581,1.8817,1.8955,1.8987,1.8621,1.8119,1.7646,1.7887,1.7705,1.6559,1.6013,1.5494,1.4745,1.5057,1.5733,1.6553,1.7338,1.7301,1.5575,1.5087,1.4742,3.0228,2.9879,2.9548,2.9367,2.9125,2.7986,2.7205,2.6675,2.4849,0.0,0.0,2.3992,2.4297,2.4413,2.481,2.5023,2.5038,2.4868,2.4839,2.4892,2.4824,2.4824,2.4824,2.4824,2.4534,2.408,2.4065,2.3731,2.3099,2.3062,2.278,2.2222,2.2164,2.183,2.1177,2.0567,2.0079,1.9749,1.9891,2.0096,2.0373,2.0644,2.0892,2.1055,2.0572,2.0323,2.0328,1.9981,1.9764,1.9701,1.9858,1.9757,1.9311,1.9718,2.0003,2.009,1.9913,1.9743,1.963,1.9515,1.9414,1.934,1.9702,1.961,1.8967,1.848,1.8474,1.9144,1.9139,1.9101,1.912,1.9101,1.9116,1.9116,1.9116,1.9116,1.9157,2.0048,2.046,1.9977,1.9815,1.9762,1.9815,2.0113,2.039,2.0477,2.0272,2.0078,1.9973,1.9306,1.8755,1.8639,1.8347,1.8228,1.8721,1.9068,1.918,1.9232,1.9217,1.9105,1.8917,1.8841,1.8765,1.8469,1.7821,1.6711,1.5284,1.4921,1.531,1.6522,1.6934,1.6807,1.6018,1.5692,1.5322,3.1691,3.1368,3.0938,3.0646,3.047,2.961,2.8303,2.6718,2.5288,2.4926,2.5386,2.5498,2.5861,2.6358,2.5865,2.5647,2.5643,2.5056,2.4839,2.4892,2.4839,2.4824,2.4878,2.4824,2.4781,2.4747,2.4747,2.4413,2.3818,2.376,2.3441,2.2844,2.2757,2.2446,2.1844,2.1191,2.0688,2.0292,1.9977,1.9995,2.0304,2.0592,2.0777,2.091,2.0846,2.0575,2.0152,2.0143,1.9859,1.9316,1.9378,1.9539,1.986,2.0121,2.0415,2.0815,2.091,2.0925,2.0846,2.0815,2.0767,2.0655,2.0703,2.0638,2.0493,2.0263,1.997,1.9672,1.9325,1.9139,1.9232,1.9157,1.9116,1.9116,1.9116,1.9116,1.912,1.9869,2.046,2.0578,2.0237,2.0043,2.0185,2.0357,2.0544,2.0678,2.0561,2.0375,2.0202,1.9708,1.9284,1.9021,1.8678,1.862,1.8988,1.9365,1.9566,1.9617,1.9599,1.949,1.9176,1.9082,1.903,1.9026,1.8797,1.7831,1.5857,1.5134,1.552,1.6276,1.6581,1.65,1.6117,1.5872,1.5494,3.2135,3.184,3.1437,3.1117,3.0837,2.9973,2.8956,2.7902,2.729,2.6334,2.5328,2.5633,2.5977,2.6268,2.6326,2.6341,2.6341,2.6025,2.5894,2.5934,2.5894,2.5894,2.5934,2.5894,2.5705,2.5425,2.5396,2.5038,2.4404,2.4051,2.3746,2.3441,2.3084,2.2743,2.2461,2.1859,2.152,2.1403,2.0646,2.0252,2.0302,2.0492,2.0678,2.0828,2.0844,2.075,2.0512,2.0543,2.043,2.0125,2.0232,2.0344,2.0492,2.0557,2.0687,2.0877,2.0957,2.0957,2.0925,2.0941,2.0925,2.0844,2.0844,2.0844,2.0826,2.0712,2.0494,2.0063,1.9672,1.9398,1.9358,1.9195,1.9116,1.9116,1.9116,1.9139,1.9321,1.994,2.0526,2.0728,2.0595,2.0477,2.0561,2.0628,2.0728,2.0892,2.0778,2.0645,2.0561,2.034,2.001,1.9617,1.9082,1.8898,1.9254,1.9711,1.994,1.9899,1.9904,1.9815,1.9599,1.9435,1.9325,1.9384,1.9339,1.8804,1.7425,1.6533,1.6315,1.6586,1.699,1.6927,1.6362,1.5837,1.5384,3.2373,3.2066,3.1768,3.135,3.0896,3.0032,2.942,2.9067,2.892,2.7669,2.5923,2.6265,2.6497,2.653,2.6982,2.7227,2.72,2.707,2.6997,2.6982,2.6878,2.6794,2.6794,2.6794,2.6544,2.6079,2.601,2.5676,2.5027,2.4544,2.4254,2.408,2.3606,2.3273,2.3128,2.2672,2.2411,2.2294,2.1501,2.0895,2.0514,2.0676,2.0801,2.0794,2.081,2.081,2.0811,2.0844,2.0877,2.0893,2.0974,2.099,2.0877,2.0861,2.086,2.0811,2.081,2.081,2.081,2.081,2.081,2.081,2.081,2.081,2.081,2.081,2.0695,2.0424,2.0063,1.9744,1.949,1.9232,1.9116,1.9116,1.9116,1.9153,1.9358,1.9957,2.051,2.0728,2.081,2.081,2.081,2.081,2.0876,2.0973,2.0909,2.0826,2.081,2.081,2.0611,2.0185,1.9548,1.9273,1.9603,2.0028,2.0233,2.0111,2.0148,2.015,2.0045,1.9815,1.969,1.98,1.9722,1.9471,1.9178,1.803,1.7212,1.7236,1.7359,1.7328,1.6646,1.5833,1.531,3.2648,3.2358,3.2051,3.1496,3.0778,3.0148,2.9755,2.9493,2.9111,2.8747,2.8317,2.8528,2.85,2.8447,2.8447,2.8476,2.8418,2.7869,2.7608,2.755,2.7055,2.6794,2.6852,2.6849,2.6765,2.6733,2.6747,2.6431,2.5836,2.5647,2.5313,2.4873,2.4733,2.437,2.3862,2.3746,2.3309,2.2509,2.2553,2.2122,2.1216,2.1428,2.1322,2.0826,2.081,2.081,2.081,2.0811,2.0811,2.0811,2.0827,2.0843,2.0811,2.0811,2.0811,2.081,2.081,2.081,2.081,2.081,2.081,2.081,2.081,2.081,2.081,2.081,2.0794,2.0678,2.0441,2.008,1.9723,1.9325,1.9101,1.9134,1.9101,1.9116,1.9213,1.9672,2.0252,2.0729,2.0778,2.081,2.081,2.0811,2.0844,2.0942,2.0909,2.0859,2.0843,2.0859,2.0827,2.0645,2.0237,1.994,2.0048,2.0289,2.0424,2.0373,2.0424,2.0443,2.0409,2.0392,2.0375,2.0202,2.0202,2.003,1.9596,1.8852,1.8047,1.7656,1.7529,1.7272,1.6982,1.6226,1.5543,3.2496,3.2468,3.2135,3.1597,3.097,3.0573,3.0382,3.0294,3.009,3.0017,2.9944,3.0002,2.9536,2.8709,2.8694,2.8694,2.868,2.8405,2.8289,2.8274,2.8013,2.7939,2.7939,2.7911,2.7924,2.7939,2.7924,2.7808,2.7445,2.6791,2.6054,2.5444,2.5067,2.4747,2.4525,2.4553,2.4449,2.4238,2.4173,2.384,2.3114,2.2196,2.1623,2.1426,2.1048,2.081,2.081,2.081,2.081,2.081,2.081,2.081,2.081,2.081,2.081,2.081,2.081,2.081,2.081,2.081,2.081,2.081,2.081,2.081,2.081,2.081,2.081,2.0778,2.0662,2.0392,1.9919,1.9431,1.9134,1.9176,1.9172,1.9116,1.9116,1.9527,2.001,2.0441,2.0678,2.081,2.0827,2.0909,2.099,2.1022,2.1055,2.1071,2.1006,2.1038,2.1039,2.0957,2.0677,2.0443,2.0357,2.051,2.0595,2.0577,2.061,2.0678,2.0662,2.0678,2.0645,2.0578,2.0477,2.0289,1.9937,1.9558,1.8963,1.8476,1.801,1.7777,1.7809,1.7069,1.6474,3.2093,3.2358,3.2038,3.1568,3.1087,3.0881,3.0762,3.0762,3.0791,3.0762,3.0762,3.0762,3.0221,2.9305,2.9203,2.9217,2.9203,2.9029,2.8956,2.8913,2.8796,2.8694,2.8694,2.8694,2.8694,2.8694,2.8665,2.868,2.8607,2.7837,2.7082,2.6588,2.6141,2.5749,2.5469,2.5574,2.5565,2.5437,2.5425,2.5192,2.4617,2.3288,2.2371,2.2085,2.1441,2.1062,2.1045,2.0888,2.081,2.081,2.081,2.0811,2.0827,2.0811,2.081,2.0811,2.0827,2.0811,2.0826,2.081,2.081,2.081,2.081,2.081,2.081,2.081,2.081,2.081,2.081,2.0595,2.02,1.9563,1.925,1.9321,1.9195,1.9101,1.912,1.9472,1.9833,2.0131,2.0426,2.0744,2.0876,2.1038,2.1167,2.1135,2.1215,2.1278,2.1183,2.1215,2.1246,2.1119,2.0973,2.081,2.0611,2.0663,2.0745,2.0712,2.0745,2.0778,2.081,2.0794,2.0794,2.0678,2.0595,2.0325,1.994,1.969,1.949,1.9233,1.8793,1.8401,1.843,1.7983,1.7679,3.143,3.1951,3.1682,3.1365,3.1087,3.091,3.0746,3.0715,3.0776,3.0746,3.0671,3.0732,3.0688,3.0452,3.0394,3.0496,3.0394,2.9827,2.9552,2.9523,2.9015,2.8738,2.8694,2.8694,2.8752,2.8869,2.8883,2.884,2.8796,2.8623,2.8622,2.852,2.836,2.781,2.6849,2.6791,2.6463,2.583,2.6024,2.5951,2.5484,2.4813,2.3842,2.2841,2.2065,2.1686,2.1604,2.1107,2.0842,2.0826,2.0874,2.0875,2.0909,2.0891,2.0921,2.0906,2.0924,2.0892,2.089,2.089,2.0842,2.0811,2.0826,2.0794,2.0778,2.081,2.0794,2.0794,2.0794,2.0712,2.051,1.9887,1.9435,1.9413,1.9232,1.912,1.9101,1.9472,1.9687,1.9848,2.0148,2.0575,2.1021,2.1199,2.1246,2.123,2.1262,2.1294,2.1294,2.1294,2.1247,2.1151,2.107,2.107,2.0973,2.0761,2.0728,2.0712,2.0662,2.0794,2.081,2.081,2.081,2.0744,2.0527,2.0222,1.9871,1.9636,1.9472,1.9277,1.9128,1.8941,1.8821,1.8999,1.8738,3.0769,3.1538,3.164,3.1482,3.1161,3.1425,3.1436,3.1177,3.1208,3.1208,3.1105,3.0831,3.0628,3.0612,3.0612,3.0612,3.0583,3.0351,3.0219,3.0234,3.0031,2.9915,2.9929,2.9929,2.9929,2.9915,2.9929,2.9929,2.9871,2.9493,2.929,2.9189,2.8855,2.8231,2.7588,2.768,2.755,2.7079,2.7031,2.6986,2.6772,2.5856,2.4973,2.4277,2.2832,2.2084,2.2136,2.2012,2.1808,2.144,2.1525,2.1592,2.1708,2.2091,2.2398,2.25,2.2432,2.2156,2.1706,2.1592,2.1352,2.0908,2.0827,2.0745,2.0662,2.0712,2.0712,2.0561,2.0695,2.0761,2.0662,2.0254,1.9887,1.9675,1.9417,1.9195,1.918,1.9439,1.9797,2.0043,2.025,2.0508,2.1006,2.1325,2.1418,2.134,2.1309,2.1309,2.1309,2.1309,2.1278,2.1119,2.1087,2.1054,2.0876,2.0611,2.046,2.0475,2.0492,2.0627,2.0678,2.076,2.076,2.0645,2.0427,2.0063,1.969,1.9508,1.9362,1.9232,1.9116,1.9134,1.9101,1.9134,1.9134,3.0763,3.1575,3.1795,3.1841,3.1841,3.2148,3.2139,3.1907,3.1845,3.1799,3.1683,3.1163,3.0887,3.0829,3.0699,3.0612,3.0612,3.0598,3.0612,3.0627,3.0785,3.0771,3.0656,3.0785,3.0786,3.0627,3.0612,3.0612,3.0569,3.0132,2.9943,2.9885,2.9537,2.9028,2.8588,2.8813,2.8771,2.8258,2.817,2.8054,2.7619,2.6718,2.5799,2.4994,2.3612,2.2752,2.2655,2.2558,2.2399,2.2159,2.2237,2.2342,2.2511,2.298,2.3584,2.4044,2.3566,2.2994,2.2543,2.2377,2.2005,2.1274,2.0938,2.0712,2.0544,2.0579,2.0443,2.0254,2.0289,2.0461,2.0595,2.0526,2.0306,1.9945,1.9657,1.9431,1.925,1.9508,1.9922,2.034,2.0475,2.0711,2.1151,2.1435,2.1527,2.148,2.1418,2.1435,2.1403,2.1419,2.1356,2.1199,2.1119,2.0989,2.0711,2.0375,2.0133,2.0131,2.0304,2.0441,2.051,2.0595,2.0611,2.0495,2.0256,1.9869,1.9581,1.9413,1.9265,1.9153,1.9157,1.9195,1.9191,1.9191,1.9209,3.1396,3.2212,3.2107,3.2478,3.3013,3.2926,3.2828,3.275,3.2608,3.2576,3.2489,3.1847,3.1587,3.144,3.1123,3.0744,3.0729,3.0744,3.0714,3.0713,3.1206,3.1192,3.0845,3.1206,3.109,3.0627,3.0612,3.0612,3.0598,3.0539,3.051,3.0584,3.0586,3.0222,2.9826,3.006,2.991,2.9214,2.9196,2.8845,2.7775,2.7226,2.6314,2.5085,2.438,2.3754,2.3143,2.2728,2.2614,2.2716,2.2828,2.2988,2.317,2.3506,2.416,2.5033,2.4184,2.3435,2.3236,2.3113,2.274,2.1971,2.1222,2.0678,2.046,2.034,2.0131,1.9797,1.978,1.9904,2.0304,2.0577,2.0545,2.0202,2.0025,1.9812,1.9581,1.9636,1.9995,2.0629,2.0811,2.1023,2.1419,2.1603,2.1603,2.1603,2.1635,2.1635,2.1604,2.1621,2.1527,2.1372,2.1215,2.1038,2.0561,2.0098,1.9904,1.9795,2.0043,2.0235,2.022,2.0272,2.0272,2.0187,2.0133,1.9777,1.9614,1.945,1.9302,1.9209,1.9265,1.9325,1.9362,1.9362,1.938,3.2159,3.246,3.271,3.2921,3.3171,3.357,3.3731,3.3618,3.3554,3.3539,3.3422,3.2834,3.2526,3.2496,3.2306,3.1936,3.1448,3.1419,3.1358,3.1309,3.1422,3.1671,3.1816,3.1627,3.1192,3.0699,3.0612,3.0612,3.0612,3.0612,3.0612,3.0642,3.0717,3.0529,3.0115,3.0408,3.0344,2.9945,2.9283,2.8957,2.8879,2.7365,2.6297,2.5978,2.4944,2.4216,2.3999,2.3667,2.3476,2.3384,2.3607,2.3622,2.365,2.4526,2.5334,2.5674,2.5411,2.4823,2.4362,2.4069,2.3619,2.2727,2.1488,2.0571,2.0235,2.0025,1.9744,1.9417,1.9527,1.9851,2.022,2.046,2.051,2.0393,2.0321,2.0218,2.008,2.0444,2.086,2.1055,2.1151,2.1324,2.1617,2.1723,2.1708,2.1663,2.1724,2.1754,2.1739,2.168,2.1664,2.1617,2.1403,2.1151,2.0761,2.0325,2.001,1.9833,1.9955,2.0043,2.0025,1.9975,1.9957,2.0028,1.994,1.983,1.9669,1.9556,1.9431,1.9376,1.945,1.9508,1.9581,1.9636,1.969,3.2515,3.2864,3.3248,3.3568,3.3851,3.4458,3.4622,3.4572,3.4607,3.4639,3.4505,3.4019,3.3689,3.3583,3.3327,3.2846,3.2276,3.2183,3.219,3.2181,3.193,3.2118,3.2411,3.1814,3.1192,3.0714,3.0612,3.0612,3.0612,3.0612,3.0612,3.0642,3.0732,3.0705,3.0541,3.0866,3.0967,3.0746,3.0204,2.9989,2.9768,2.8227,2.7139,2.6879,2.5708,2.4872,2.4482,2.4341,2.4197,2.4095,2.4341,2.4491,2.4492,2.5335,2.5934,2.5989,2.5917,2.5668,2.524,2.4991,2.445,2.3531,2.2566,2.17,2.1051,2.0354,1.9581,1.9435,1.9545,1.9833,2.0148,2.0323,2.046,2.0627,2.0595,2.0544,2.0578,2.0942,2.1246,2.1277,2.1294,2.148,2.1708,2.1781,2.1797,2.1753,2.1768,2.1781,2.1783,2.1723,2.1753,2.1753,2.1632,2.1356,2.1039,2.0613,2.0152,1.9993,1.9904,1.9904,1.9887,1.9833,1.9815,2.015,2.0202,2.0028,1.9884,1.9795,1.9723,1.9705,1.9705,1.981,1.9935,2.0013,2.0065,3.2622,3.3409,3.3649,3.4233,3.4981,3.5299,3.5382,3.5492,3.564,3.5691,3.5619,3.5276,3.4987,3.4665,3.421,3.3663,3.3112,3.2968,3.3042,3.31,3.2817,3.26,3.2408,3.1814,3.1192,3.0685,3.0612,3.0612,3.0612,3.0612,3.0612,3.0612,3.0762,3.0925,3.1087,3.1495,3.1658,3.1628,3.156,3.1279,3.0917,2.9571,2.8556,2.7831,2.6668,2.5639,2.4967,2.495,2.4841,2.4652,2.5031,2.5438,2.576,2.5915,2.6025,2.615,2.6023,2.5952,2.5846,2.5601,2.5134,2.4329,2.4112,2.3958,2.2449,2.1181,2.0303,2.0038,2.015,2.02,2.0321,2.0476,2.069,2.0823,2.0923,2.0876,2.0844,2.1119,2.1278,2.1309,2.1309,2.1418,2.1753,2.1797,2.1781,2.1781,2.1781,2.1781,2.1781,2.1783,2.1781,2.1736,2.1676,2.151,2.1183,2.1007,2.0579,2.0308,2.0152,2.0045,2.001,1.9957,2.0083,2.0359,2.0527,2.0323,2.015,2.0131,2.0063,2.0045,2.0096,2.0179,2.0302,2.0426,2.0478,3.357,3.3591,3.4018,3.4355,3.4668,3.5228,3.5539,3.5703,3.6132,3.6336,3.6399,3.643,3.6276,3.6138,3.5814,3.5153,3.4307,3.3919,3.3642,3.3493,3.3325,3.2933,3.2469,3.1859,3.1206,3.0685,3.0656,3.0612,3.0612,3.0612,3.0612,3.0612,3.0866,3.1058,3.1292,3.1653,3.2059,3.2145,3.1436,3.1327,3.1332,2.9863,2.8823,2.8484,2.745,2.6608,2.6108,2.6153,2.5767,2.5061,2.5454,2.5789,2.5915,2.6025,2.6132,2.6168,2.615,2.6114,2.6043,2.5844,2.5473,2.5096,2.4713,2.4065,2.3117,2.2772,2.2094,2.165,2.1919,2.2119,2.1532,2.153,2.1683,2.1586,2.1358,2.1135,2.1087,2.1183,2.1309,2.1309,2.1309,2.1464,2.1693,2.1781,2.1781,2.1781,2.1781,2.1781,2.1781,2.1781,2.1781,2.1691,2.1601,2.151,2.1388,2.1262,2.1023,2.0712,2.051,2.0323,2.034,2.0375,2.0646,2.099,2.1023,2.0893,2.0663,2.0544,2.0478,2.0444,2.0512,2.0644,2.076,2.086,2.0925,3.3868,3.3536,3.3957,3.4196,3.4366,3.5118,3.5638,3.6006,3.66,3.6968,3.7134,3.7342,3.7312,3.7119,3.6861,3.623,3.5301,3.4956,3.4555,3.4087,3.3835,3.327,3.2646,3.228,3.1743,3.0714,3.0963,3.0935,3.0746,3.0702,3.0672,3.0702,3.0895,3.1043,3.122,3.1668,3.2135,3.2381,3.196,3.1914,3.2159,3.074,3.0007,2.9637,2.8779,2.8019,2.7588,2.7203,2.6582,2.5986,2.6059,2.6208,2.6058,2.6132,2.6185,2.6185,2.6185,2.6185,2.6151,2.5937,2.5719,2.5457,2.5068,2.4518,2.3907,2.377,2.3303,2.2778,2.3251,2.2972,2.2345,2.229,2.2359,2.225,2.1712,2.131,2.1199,2.1859,2.1843,2.1552,2.1325,2.1418,2.1736,2.1781,2.1781,2.1781,2.1781,2.1781,2.1781,2.1781,2.1835,2.1813,2.1688,2.1612,2.1516,2.1373,2.1392,2.1132,2.1045,2.0829,2.0578,2.0678,2.099,2.1262,2.1402,2.1418,2.1135,2.0974,2.099,2.099,2.1039,2.1103,2.1231,2.1521,2.1552,3.3785,3.3312,3.3646,3.3874,3.4182,3.499,3.5672,3.629,3.7058,3.7537,3.7743,3.8017,3.7931,3.7746,3.7373,3.6891,3.6181,3.5837,3.537,3.4863,3.4342,3.3668,3.2931,3.2969,3.2329,3.1313,3.1639,3.1449,3.1157,3.0997,3.088,3.088,3.0881,3.0969,3.1263,3.1596,3.2048,3.2574,3.2756,3.2797,3.2797,3.1847,3.1198,3.0884,3.0239,2.9495,2.8896,2.8297,2.7596,2.6828,2.6864,2.6604,2.6298,2.6185,2.6185,2.6185,2.6185,2.6185,2.6151,2.6045,2.5883,2.5624,2.5413,2.51,2.4542,2.4183,2.387,2.3507,2.3623,2.3284,2.2894,2.2709,2.2786,2.2799,2.2128,2.1617,2.1811,2.2848,2.3221,2.1908,2.1697,2.148,2.1678,2.1797,2.1781,2.1781,2.1781,2.1781,2.1781,2.1781,2.1973,2.218,2.2003,2.1744,2.1615,2.1485,2.1569,2.1551,2.1594,2.1379,2.0823,2.086,2.1182,2.1417,2.1556,2.1556,2.1449,2.1387,2.1549,2.1922,2.2199,2.1987,2.1807,2.223,2.2409,3.3937,3.3312,3.3536,3.3675,3.3868,3.4806,3.5623,3.6258,3.7224,3.7788,3.8078,3.8363,3.8307,3.8078,3.7815,3.7326,3.6616,3.6305,3.5864,3.5166,3.4865,3.436,3.3657,3.334,3.2764,3.2343,3.246,3.2242,3.1789,3.1675,3.1485,3.1132,3.1235,3.1234,3.1452,3.1853,3.2299,3.2722,3.3065,3.3203,3.316,3.2652,3.2052,3.1661,3.1078,3.0535,3.0157,3.0112,2.9643,2.8673,2.7797,2.7177,2.6381,2.6235,2.6301,2.6351,2.6285,2.6252,2.6184,2.6129,2.5936,2.5782,2.5608,2.5185,2.4791,2.4462,2.4193,2.3967,2.3782,2.3618,2.3525,2.3204,2.3285,2.3384,2.3173,2.2941,2.3388,2.4469,2.4873,2.4328,2.2867,2.162,2.1816,2.1945,2.1912,2.1814,2.1781,2.1781,2.1781,2.1766,2.2127,2.2476,2.301,2.2846,2.2378,2.2345,2.2532,2.2384,2.2298,2.2071,2.1495,2.1229,2.1617,2.1708,2.1678,2.168,2.1719,2.2194,2.244,2.2914,2.3358,2.3095,2.2997,2.3225,2.3142,3.4011,3.3326,3.3396,3.3501,3.3779,3.4639,3.5527,3.629,3.7164,3.7801,3.8164,3.8436,3.8436,3.8294,3.8091,3.7669,3.7012,3.6445,3.5943,3.5492,3.5249,3.502,3.4735,3.41,3.3665,3.3147,3.3296,3.3094,3.2759,3.2598,3.2377,3.1827,3.1915,3.1765,3.164,3.212,3.2492,3.2803,3.3198,3.3414,3.3346,3.3118,3.2875,3.251,3.2079,3.1637,3.1219,3.1138,3.062,2.9847,2.9123,2.7962,2.6647,2.6649,2.6965,2.7197,2.723,2.6998,2.6814,2.6645,2.6556,2.6356,2.6222,2.5954,2.5512,2.5031,2.4528,2.4302,2.4094,2.3931,2.3809,2.3787,2.3819,2.4116,2.4195,2.434,2.4811,2.5545,2.6023,2.5666,2.457,2.3112,2.2531,2.2609,2.2212,2.2195,2.1814,2.1781,2.1691,2.1793,2.2377,2.293,2.3877,2.4019,2.3379,2.3325,2.372,2.349,2.3171,2.2853,2.2359,2.2176,2.2134,2.2167,2.2179,2.2072,2.2174,2.2732,2.349,2.4347,2.4661,2.4348,2.4017,2.3819,2.3686,3.4206,3.3486,3.3452,3.3536,3.3764,3.4558,3.5415,3.6196,3.7012,3.761,3.8033,3.825,3.8262,3.8262,3.8193,3.7831,3.7238,3.6507,3.5926,3.5735,3.5522,3.5379,3.5272,3.5026,3.4572,3.356,3.4053,3.4075,3.3737,3.3666,3.3366,3.2841,3.2734,3.252,3.2137,3.2342,3.2846,3.3113,3.3471,3.3684,3.3642,3.3529,3.3455,3.3399,3.3244,3.2813,3.2313,3.1944,3.1358,3.0669,3.0513,2.9165,2.7841,2.7543,2.8205,2.8674,2.8442,2.7945,2.7564,2.7446,2.7392,2.7278,2.7202,2.7029,2.6606,2.5767,2.5191,2.4822,2.4555,2.403,2.3681,2.3813,2.4142,2.4507,2.4938,2.5375,2.5824,2.6078,2.615,2.6117,2.5599,2.4562,2.3935,2.3752,2.3123,2.2511,2.2114,2.1768,2.1678,2.1851,2.2443,2.3476,2.4464,2.4829,2.4257,2.3957,2.4373,2.4271,2.3941,2.3639,2.3297,2.3385,2.3266,2.2842,2.2768,2.2655,2.2734,2.3194,2.4182,2.5521,2.5755,2.5174,2.4745,2.4365,2.4348,3.4843,3.4235,3.423,3.4074,3.3942,3.4773,3.5447,3.6039,3.683,3.7344,3.7535,3.7844,3.7943,3.796,3.7992,3.7685,3.7164,3.6523,3.6085,3.5863,3.5651,3.5489,3.5472,3.5424,3.523,3.52,3.5188,3.4876,3.4551,3.4543,3.4379,3.3803,3.3465,3.3213,3.3236,3.3291,3.352,3.3846,3.4166,3.4327,3.4302,3.4129,3.3998,3.4016,3.4014,3.3769,3.3297,3.2766,3.2161,3.1427,3.0837,3.0241,2.9645,2.9694,2.986,2.9728,2.9085,2.8525,2.826,2.821,2.8152,2.8059,2.8003,2.7905,2.7411,2.6503,2.6078,2.5539,2.4828,2.4003,2.3674,2.3882,2.4177,2.4487,2.4731,2.5068,2.5715,2.6059,2.6185,2.6185,2.6067,2.5966,2.5291,2.4812,2.4397,2.3588,2.2779,2.2121,2.1649,2.1937,2.2442,2.371,2.5093,2.5221,2.5096,2.4831,2.4815,2.4748,2.4543,2.4484,2.4334,2.4613,2.4487,2.3845,2.3481,2.335,2.3534,2.3767,2.4522,2.564,2.5779,2.5819,2.5488,2.5141,2.5441,3.5514,3.4924,3.4739,3.452,3.4399,3.4835,3.5219,3.5593,3.6258,3.6693,3.6921,3.7207,3.7474,3.7623,3.7772,3.7567,3.7134,3.6631,3.6226,3.5973,3.5683,3.5489,3.5474,3.5474,3.5489,3.5539,3.5621,3.5582,3.5329,3.5628,3.5386,3.4956,3.4716,3.4654,3.4482,3.4627,3.4723,3.5023,3.5298,3.5518,3.5453,3.5132,3.4774,3.4521,3.4488,3.4288,3.3779,3.3518,3.2713,3.1697,3.0886,3.0572,3.0489,3.0539,3.0522,3.0406,2.9847,2.9268,2.9003,2.892,2.8883,2.8844,2.8808,2.8748,2.8664,2.8252,2.7384,2.5875,2.5051,2.403,2.3653,2.3919,2.4193,2.4385,2.4549,2.497,2.5584,2.5989,2.615,2.6185,2.6136,2.6101,2.6136,2.5753,2.5634,2.4791,2.3638,2.2718,2.1884,2.1825,2.2246,2.3973,2.524,2.522,2.5201,2.5103,2.5005,2.4966,2.4866,2.4826,2.4771,2.4779,2.4799,2.452,2.4274,2.3937,2.3995,2.4135,2.4951,2.5605,2.5658,2.5748,2.5924,2.6046,2.6132,3.6212,3.5625,3.527,3.5004,3.485,3.4916,3.5019,3.5249,3.5671,3.6038,3.6274,3.66,3.6921,3.7224,3.7403,3.7419,3.7134,3.6677,3.632,3.5928,3.5473,3.5265,3.5265,3.5175,3.5055,3.5192,3.5446,3.582,3.5946,3.6321,3.6245,3.6024,3.6225,3.614,3.57,3.5803,3.612,3.6301,3.6555,3.677,3.6615,3.6073,3.5473,3.4962,3.4822,3.4523,3.413,3.3806,3.3259,3.2293,3.1482,3.0874,3.0605,3.077,3.0957,3.0903,3.0704,3.0261,3.0026,2.9628,2.9694,2.9906,2.9711,2.9604,2.9633,2.9486,2.8899,2.5939,2.4569,2.4156,2.3824,2.4003,2.4208,2.4317,2.4508,2.4851,2.5489,2.5915,2.615,2.6185,2.6185,2.6185,2.6185,2.6151,2.5899,2.5709,2.4573,2.362,2.2737,2.1582,2.2117,2.4063,2.5182,2.5123,2.5103,2.5064,2.5005,2.4985,2.4846,2.4726,2.463,2.4574,2.4589,2.4625,2.4592,2.4307,2.4374,2.4525,2.5144,2.5535,2.5581,2.5675,2.5826,2.599,2.6097,3.6906,3.6508,3.607,3.5606,3.5184,3.5148,3.5082,3.4986,3.5317,3.5576,3.5769,3.6022,3.632,3.6693,3.7104,3.715,3.6953,3.6647,3.6243,3.5791,3.5097,3.4698,3.4517,3.3963,3.4262,3.4593,3.4811,3.5316,3.5902,3.6523,3.6922,3.6867,3.6825,3.6842,3.6885,3.6853,3.6692,3.6828,3.7015,3.7067,3.6934,3.6331,3.5943,3.5621,3.5199,3.4785,3.4544,3.4203,3.364,3.3442,3.2762,3.1818,3.1002,3.1818,3.2299,3.2067,3.1437,3.0758,3.1068,3.0803,3.0621,3.0853,3.0671,3.0439,3.0286,3.0166,2.9181,2.5937,2.4885,2.4418,2.4246,2.421,2.4275,2.44,2.4596,2.4958,2.5537,2.7085,2.7177,2.6185,2.6185,2.6185,2.6185,2.6168,2.6115,2.5923,2.5586,2.4664,2.4071,2.3318,2.2357,2.4289,2.5103,2.5064,2.5045,2.5005,2.5005,2.5005,2.4826,2.4645,2.4589,2.4508,2.4385,2.4405,2.4446,2.4569,2.4591,2.4812,2.5288,2.5467,2.5521,2.56,2.5717,2.5846,2.6008,3.7403,3.7042,3.6569,3.6053,3.5462,3.5166,3.4868,3.4702,3.4902,3.5085,3.5282,3.5604,3.6004,3.6492,3.6923,3.6984,3.68,3.6461,3.5982,3.5457,3.4797,3.4279,3.3964,3.3664,3.3739,3.3995,3.445,3.4922,3.5629,3.6353,3.6938,3.7237,3.747,3.7713,3.7908,3.7981,3.799,3.8017,3.7968,3.7728,3.7252,3.6629,3.6038,3.5628,3.5062,3.4822,3.4704,3.4627,3.4154,3.3889,3.3408,3.2878,3.2133,3.2398,3.295,3.3846,3.258,3.2,3.2116,3.1885,3.1752,3.1515,3.1267,3.0952,3.0654,3.0385,3.0025,2.8281,2.6466,2.5505,2.5224,2.535,2.5341,2.5296,2.4936,2.5187,2.6015,2.7915,2.8552,2.7311,2.6185,2.6185,2.6252,2.6434,2.673,2.7104,2.6773,2.6031,2.62,2.6562,2.5471,2.4699,2.5041,2.5005,2.5005,2.5005,2.5005,2.4966,2.4771,2.463,2.4569,2.4487,2.4343,2.4317,2.4395,2.4503,2.4697,2.4866,2.5103,2.5294,2.5445,2.5524,2.5586,2.5717,2.5862,3.7698,3.7358,3.6877,3.6305,3.572,3.5151,3.4735,3.4515,3.4664,3.4783,3.4983,3.5344,3.5861,3.6352,3.6647,3.6739,3.6677,3.6199,3.5629,3.5001,3.433,3.3695,3.3275,3.311,3.3125,3.3499,3.3996,3.4663,3.5397,3.6076,3.68,3.7314,3.7822,3.8238,3.8567,3.8745,3.8842,3.8636,3.8476,3.8137,3.7595,3.6691,3.6032,3.5461,3.4945,3.457,3.4643,3.4747,3.4471,3.4323,3.4127,3.3773,3.3398,3.3408,3.3806,3.4369,3.364,3.3276,3.3166,3.2862,3.2448,3.2,3.1383,3.0919,3.0605,3.0485,3.0305,2.9545,2.7926,2.6857,2.6534,2.6444,2.603,2.5775,2.5537,2.5699,2.6217,2.8164,2.9374,2.8635,2.741,2.6185,2.6334,2.6665,2.7212,2.8039,2.7868,2.7343,2.779,2.8551,2.8022,2.6657,2.598,2.5722,2.5112,2.508,2.5049,2.5056,2.4876,2.4666,2.4625,2.4467,2.4323,2.4317,2.4436,2.4993,2.5502,2.5164,2.4851,2.5005,2.5162,2.5352,2.5467,2.5602,2.5789,3.7711,3.7358,3.6754,3.6304,3.591,3.5184,3.4817,3.4664,3.4698,3.4798,3.4935,3.5311,3.5765,3.6116,3.6242,3.643,3.6631,3.5723,3.5217,3.4516,3.3517,3.2886,3.2556,3.2347,3.2392,3.3305,3.3726,3.4464,3.5374,3.5933,3.6784,3.7612,3.8001,3.8483,3.8805,3.8969,3.8942,3.8678,3.8383,3.8157,3.7528,3.6717,3.5872,3.5653,3.4859,3.425,3.4497,3.4683,3.4842,3.4848,3.4785,3.4674,3.4392,3.4439,3.4721,3.4674,3.4651,3.4352,3.426,3.3564,3.2818,3.2282,3.1586,3.0787,3.0522,3.0485,3.0295,2.9792,2.8334,2.7801,2.7346,2.7006,2.6589,2.6451,2.6427,2.6714,2.7307,2.8501,2.9522,2.9527,2.8801,2.7659,2.7361,2.7907,2.8158,2.8936,2.9128,2.8595,2.8818,2.941,2.9524,2.8769,2.7652,2.6762,2.5476,2.546,2.5998,2.5783,2.5455,2.5044,2.4701,2.4539,2.4317,2.4622,2.4854,2.5582,2.6081,2.5636,2.5236,2.4909,2.489,2.5064,2.5314,2.5505,2.5749,3.7087,3.6738,3.6227,3.599,3.5957,3.5216,3.4868,3.4817,3.4731,3.4783,3.4935,3.5311,3.5522,3.5606,3.5847,3.6006,3.6119,3.5461,3.4912,3.4273,3.3394,3.2626,3.225,3.2043,3.2194,3.2976,3.3366,3.4043,3.5167,3.5824,3.6631,3.7358,3.7927,3.8343,3.8678,3.886,3.8722,3.8427,3.7956,3.7549,3.718,3.6474,3.5717,3.5336,3.5064,3.4496,3.4456,3.4683,3.4947,3.5152,3.5205,3.5118,3.5041,3.5088,3.5065,3.493,3.4923,3.4899,3.4883,3.4237,3.3707,3.2597,3.1785,3.0986,3.0605,3.0401,2.9995,2.935,2.8597,2.8054,2.7625,2.7485,2.737,2.7278,2.7354,2.762,2.8168,2.9089,2.9647,2.9634,2.9737,2.933,2.9281,2.9433,2.9582,2.9798,2.9889,2.9955,2.9961,2.994,2.994,2.9918,2.8844,2.8417,2.7248,2.7121,2.7136,2.6604,2.6073,2.5664,2.5221,2.4513,2.44,2.4792,2.5456,2.6212,2.6454,2.6024,2.5688,2.5459,2.5071,2.4746,2.5045,2.5519,2.5832,3.6569,3.6227,3.5752,3.5686,3.575,3.5151,3.492,3.4968,3.4883,3.4883,3.4986,3.5213,3.5261,3.5198,3.5347,3.5475,3.5362,3.488,3.4394,3.3739,3.3069,3.2509,3.2133,3.2034,3.2237,3.2885,3.3351,3.4058,3.5302,3.5808,3.6492,3.7193,3.7812,3.827,3.8595,3.8595,3.8483,3.8128,3.7533,3.7028,3.6737,3.6055,3.5604,3.5261,3.5082,3.4908,3.4811,3.5029,3.5305,3.5427,3.5464,3.5424,3.5333,3.5258,3.5228,3.5088,3.497,3.4923,3.4866,3.4535,3.4104,3.316,3.2398,3.1482,3.0745,3.0295,2.9886,2.8982,2.8381,2.8005,2.7765,2.765,2.7694,2.7542,2.7719,2.7979,2.8248,2.8943,2.9425,2.9751,2.9896,3.0075,3.0158,3.0092,3.0179,3.0228,3.0191,3.0195,3.0185,3.0119,2.9968,2.994,2.9674,2.9454,2.9291,2.8824,2.8249,2.7418,2.691,2.6451,2.5932,2.53,2.5361,2.6277,2.6846,2.7098,2.7133,2.7071,2.6604,2.6092,2.5718,2.5368,2.5794,2.6294,2.6237,3.6227,3.5941,3.5442,3.5326,3.5424,3.5082,3.5001,3.5148,3.5195,3.5162,3.51,3.5049,3.4902,3.4854,3.4902,3.4887,3.4704,3.415,3.3757,3.3453,3.2785,3.2257,3.2124,3.2146,3.2488,3.3382,3.3742,3.4314,3.5706,3.6071,3.6554,3.7335,3.8187,3.8508,3.881,3.8667,3.8427,3.8042,3.731,3.686,3.6461,3.5845,3.5522,3.5405,3.548,3.5345,3.5351,3.5498,3.5776,3.5926,3.5829,3.5844,3.5954,3.5605,3.5464,3.5321,3.5041,3.4923,3.4866,3.4237,3.3889,3.3624,3.2928,3.2166,3.096,3.0302,3.0285,2.984,2.8755,2.8363,2.8025,2.7765,2.7821,2.7986,2.8166,2.8079,2.8284,2.8779,2.9298,2.981,3.0093,3.0307,3.0488,3.0605,3.0659,3.0638,3.0522,3.0447,3.038,3.0316,3.0162,3.0055,2.9989,2.983,2.9681,2.9786,2.9334,2.8442,2.7822,2.7503,2.7268,2.6954,2.7281,2.7914,2.7889,2.7783,2.8045,2.8264,2.7651,2.7025,2.6625,2.6442,2.6819,2.6988,2.69,3.5668,3.5442,3.5016,3.4898,3.4964,3.4902,3.5001,3.5213,3.5326,3.5246,3.5001,3.485,3.4568,3.4467,3.4375,3.4369,3.4254,3.38,3.3471,3.3596,3.2764,3.2631,3.2527,3.2502,3.2796,3.3561,3.3925,3.4862,3.6578,3.6688,3.7623,3.8551,3.9069,3.9247,3.909,3.8805,3.8427,3.803,3.7356,3.6753,3.6476,3.6075,3.5769,3.5657,3.5896,3.6035,3.5961,3.6141,3.6329,3.6537,3.6442,3.6277,3.6345,3.6048,3.5711,3.5435,3.5088,3.4923,3.4883,3.4584,3.431,3.3922,3.3541,3.2945,3.2078,3.0761,3.0917,3.1134,2.9835,2.9645,3.0051,2.8535,2.8197,2.8475,2.847,2.7921,2.8014,2.8677,2.9261,2.9758,3.0115,3.1396,3.1984,3.1896,3.1868,3.1371,3.1205,3.0671,3.0459,3.048,3.0396,3.0253,3.0146,3.0006,2.9935,3.0011,2.9913,2.9172,2.8868,2.8793,2.8586,2.8288,2.8352,2.8561,2.8465,2.8411,2.8411,2.8405,2.8362,2.7992,2.7486,2.7092,2.7174,2.736,2.7483,3.5016,3.4804,3.4743,3.4533,3.4386,3.4714,3.5049,3.5294,3.5439,3.5294,3.4949,3.4683,3.438,3.4108,3.3948,3.3898,3.3885,3.3505,3.3426,3.3596,3.2974,3.2753,3.2749,3.2875,3.3272,3.3922,3.4683,3.5641,3.7096,3.7403,3.8433,3.9686,4.0364,4.0313,3.9875,3.9308,3.8455,3.8042,3.7445,3.6876,3.6646,3.6399,3.623,3.6242,3.644,3.6809,3.6793,3.6852,3.7021,3.7223,3.7084,3.6753,3.6723,3.6367,3.5939,3.5464,3.5111,3.4947,3.4883,3.4866,3.4584,3.4303,3.4187,3.3938,3.3475,3.2683,3.2882,3.2749,3.1404,3.107,3.0989,2.9369,2.9643,2.9986,2.8743,2.8193,2.8252,2.895,2.994,3.0323,3.1092,3.239,3.3257,3.3336,3.3243,3.2547,3.1885,3.1338,3.0907,3.1191,3.1307,3.1179,3.0749,3.0467,3.0304,3.0163,3.0027,2.977,2.9723,2.9723,2.9348,2.8952,2.9071,2.913,2.8967,2.8746,2.8484,2.8414,2.8556,2.8466,2.8093,2.7802,2.7595,2.7803,2.8116,3.4267,3.4097,3.4475,3.4193,3.3777,3.4479,3.5088,3.5472,3.5504,3.5279,3.4887,3.4616,3.4278,3.3951,3.3709,3.3593,3.3532,3.3279,3.3427,3.3426,3.3218,3.3106,3.3212,3.3413,3.3956,3.4575,3.5401,3.6443,3.7601,3.8873,3.9972,4.0524,4.107,4.1085,4.0628,3.99,3.8986,3.852,3.7993,3.7426,3.703,3.68,3.6738,3.6826,3.7196,3.752,3.7633,3.7803,3.8077,3.8091,3.7789,3.7546,3.7167,3.6603,3.6002,3.5447,3.5065,3.4947,3.4899,3.4899,3.4906,3.4748,3.4814,3.484,3.4651,3.4213,3.4277,3.4258,3.3397,3.244,3.1607,3.1871,3.2132,3.0978,2.9275,2.8949,2.8922,2.9647,3.0766,3.1551,3.2402,3.3264,3.3604,3.3822,3.3731,3.3446,3.2842,3.2613,3.2398,3.2892,3.2937,3.2707,3.2127,3.1127,3.0925,3.0975,3.0866,3.0853,3.0498,3.0386,2.9971,2.9563,2.9457,2.9375,2.931,2.9132,2.8967,2.8885,2.8896,2.8792,2.9068,2.8584,2.8449,2.8699,2.8984,3.3773,3.411,3.3682,3.363,3.3894,3.425,3.4818,3.5442,3.5489,3.5326,3.5067,3.475,3.4414,3.404,3.3744,3.355,3.3502,3.36,3.3877,3.3891,3.39,3.4131,3.4237,3.4322,3.4874,3.5538,3.6368,3.748,3.915,4.0546,4.1026,4.1189,4.1803,4.1848,4.1411,4.0769,4.0139,3.9414,3.8795,3.8136,3.7617,3.7328,3.7328,3.7535,3.7661,3.7995,3.8422,3.8337,3.8538,3.8647,3.8345,3.7945,3.7007,3.6512,3.5963,3.5142,3.4947,3.4899,3.4899,3.4899,3.4947,3.4994,3.5018,3.497,3.493,3.4947,3.4954,3.4883,3.4787,3.3769,3.3332,3.3542,3.3466,3.2292,3.0919,3.0498,3.0613,3.1427,3.2449,3.2788,3.3606,3.3663,3.4004,3.382,3.3738,3.3803,3.3766,3.3568,3.3626,3.4019,3.4242,3.3957,3.3478,3.2491,3.2243,3.2243,3.2083,3.1906,3.1516,3.099,3.0421,3.0028,2.98,2.9964,3.0402,3.0073,2.9496,2.9496,2.9645,3.0283,3.0541,2.9845,2.9344,2.9396,2.9471,3.3105,3.3355,3.3173,3.3319,3.3617,3.3519,3.4077,3.5075,3.5467,3.5507,3.5362,3.5034,3.4668,3.4361,3.3991,3.377,3.3729,3.3794,3.4032,3.4395,3.4614,3.4587,3.4736,3.5048,3.5379,3.6168,3.7219,3.8418,4.0086,4.1676,4.2414,4.2255,4.2745,4.2605,4.2377,4.2138,4.1519,4.0598,3.9723,3.8965,3.8361,3.7943,3.803,3.8023,3.8064,3.8373,3.8891,3.865,3.8698,3.9051,3.8853,3.8333,3.7432,3.6876,3.5876,3.512,3.4923,3.4899,3.4899,3.4899,3.4994,3.5041,3.5081,3.5041,3.5065,3.5088,3.5228,3.5274,3.5188,3.5028,3.4975,3.488,3.4369,3.3785,3.3048,3.2331,3.2891,3.3607,3.3941,3.4121,3.4243,3.4227,3.4143,3.3864,3.3745,3.3822,3.399,3.412,3.4188,3.4496,3.477,3.4789,3.4404,3.3846,3.3662,3.3378,3.3195,3.2868,3.2337,3.1752,3.1034,3.1014,3.1271,3.1572,3.1884,3.1322,3.0585,3.0456,3.0619,3.1189,3.1397,3.0773,2.9989,2.9493,2.9594,3.2348,3.2317,3.2882,3.306,3.3,3.263,3.3305,3.468,3.5407,3.5706,3.5625,3.5379,3.5034,3.4683,3.4332,3.4162,3.4138,3.4196,3.4441,3.4676,3.482,3.4906,3.5164,3.544,3.5905,3.66,3.7639,3.8984,4.032,4.1839,4.3094,4.3402,4.3439,4.3333,4.3251,4.3019,4.2249,4.1184,4.0233,3.9373,3.8739,3.8528,3.8551,3.8381,3.8232,3.8206,3.8788,3.888,3.8702,3.9184,3.9303,3.8841,3.832,3.7114,3.5945,3.5226,3.4939,3.4899,3.4899,3.4899,3.4994,3.5018,3.5018,3.5111,3.5188,3.5135,3.5205,3.5458,3.5396,3.5396,3.5327,3.5492,3.5245,3.4785,3.4237,3.3778,3.3998,3.4037,3.3416,3.3752,3.4275,3.4201,3.3668,3.3346,3.324,3.3539,3.3745,3.4025,3.4292,3.4544,3.4934,3.5161,3.4923,3.4538,3.4488,3.4264,3.4225,3.3851,3.3289,3.3009,3.2679,3.2751,3.2936,3.2975,3.2905,3.2431,3.1868,3.1719,3.1544,3.1524,3.1632,3.141,3.0847,3.0297,3.0125,3.1989,3.2422,3.2587,3.2467,3.221,3.248,3.3379,3.472,3.5293,3.5675,3.5834,3.5589,3.5311,3.51,3.4716,3.4549,3.4528,3.4695,3.5008,3.5242,3.5335,3.5416,3.5723,3.5907,3.643,3.725,3.8247,3.947,4.095,4.2313,4.3204,4.3372,4.3509,4.3568,4.3535,4.3218,4.2324,4.1397,4.0601,3.9781,3.9128,3.8958,3.8925,3.8846,3.8754,3.8655,3.8959,3.887,3.8935,3.9261,3.9467,3.9461,3.9394,3.7377,3.593,3.5112,3.4923,3.4923,3.4899,3.4923,3.4994,3.5111,3.5182,3.5304,3.5287,3.5118,3.5142,3.5441,3.5616,3.5616,3.5711,3.5954,3.6045,3.565,3.5304,3.5135,3.497,3.4031,3.303,3.3487,3.417,3.3873,3.3303,3.3,3.2854,3.2908,3.3043,3.3272,3.353,3.3826,3.4475,3.4785,3.5065,3.4927,3.4933,3.4889,3.4705,3.4772,3.4362,3.4257,3.4183,3.4063,3.3879,3.3868,3.3749,3.3207,3.2883,3.2882,3.2699,3.2343,3.2133,3.2045,3.2196,3.183,3.147,3.172,3.2049,3.2049,3.1971,3.189,3.2219,3.3079,3.4187,3.4883,3.5459,3.5938,3.5838,3.5718,3.5477,3.5115,3.485,3.4865,3.5067,3.5219,3.5492,3.5718,3.5914,3.6101,3.6211,3.6631,3.7375,3.8653,4.0,4.1394,4.2429,4.3099,4.319,4.3342,4.3443,4.3376,4.2808,4.2059,4.1397,4.0729,4.0121,3.9511,3.9369,3.9415,3.9382,3.9149,3.9074,3.9055,3.8981,3.8926,3.9189,3.9444,3.9601,3.9225,3.7853,3.6278,3.5326,3.4947,3.497,3.4956,3.4996,3.5027,3.5128,3.5245,3.5321,3.5418,3.5258,3.5188,3.5441,3.5594,3.5616,3.5888,3.611,3.6088,3.5827,3.56,3.5412,3.5068,3.4452,3.4024,3.4235,3.4448,3.3975,3.3461,3.3043,3.2908,3.2881,3.2951,3.2413,3.2661,3.3262,3.3868,3.4431,3.4775,3.5041,3.5071,3.5054,3.5004,3.5098,3.5182,3.4865,3.4502,3.47,3.4763,3.4113,3.3802,3.386,3.3672,3.3286,3.3272,3.2903,3.2808,3.2741,3.2881,3.2839,3.2289,3.1511,3.1496,3.1511,3.1641,3.1813,3.1968,3.2716,3.3727,3.4377,3.5208,3.597,3.6091,3.6089,3.5878,3.5522,3.5213,3.5082,3.5213,3.5392,3.5489,3.5621,3.5863,3.6053,3.6195,3.6692,3.7608,3.8886,3.9974,4.1163,4.2088,4.268,4.2852,4.2986,4.3147,4.2993,4.2518,4.1683,4.1297,4.079,4.0298,3.9951,3.9699,3.9795,3.9647,3.9404,3.9286,3.9359,3.9213,3.8999,3.9132,3.9458,3.959,3.9359,3.838,3.7126,3.6037,3.5673,3.5516,3.5245,3.5181,3.5143,3.5138,3.5238,3.5268,3.5327,3.5234,3.5142,3.5188,3.5327,3.5532,3.5783,3.6023,3.5958,3.5937,3.5734,3.5588,3.5184,3.5096,3.537,3.5346,3.4644,3.4198,3.414,3.3678,3.3444,3.3359,3.2759,3.2028,3.1826,3.2688,3.3435,3.4056,3.4549,3.4792,3.5045,3.5078,3.5038,3.5055,3.5048,3.4918,3.4579,3.3786,3.3383,3.3496,3.3331,3.3404,3.3276,3.2864,3.2933,3.2946,3.2516,3.2187,3.2413,3.237,3.2398,3.1496,3.1496,3.1496,3.1683,3.194,3.2094,3.2937,3.405,3.4199,3.5121,3.6093,3.6002,3.5845,3.5958,3.5619,3.5407,3.5326,3.5392,3.5424,3.5522,3.5539,3.5765,3.6005,3.621,3.6815,3.7795,3.8889,3.9787,4.0658,4.1502,4.2045,4.2157,4.1842,4.1952,4.2058,4.1551,4.1036,4.0943,4.0978,4.0597,4.0751,4.0494,4.0117,3.9986,3.9921,4.0043,4.0021,3.9601,3.9355,3.9355,3.9537,3.9651,3.9453,3.895,3.7944,3.7259,3.6876,3.6337,3.6065,3.5726,3.5632,3.5207,3.5181,3.4859,3.4771,3.448,3.4431,3.4448,3.4578,3.4811,3.5078,3.547,3.5538,3.56,3.5503,3.5519,3.5335,3.647,3.7435,3.6456,3.525,3.5546,3.6195,3.5817,3.5545,3.5059,3.3808,3.316,3.3166,3.3253,3.3443,3.4018,3.475,3.4634,3.493,3.4977,3.4977,3.4994,3.4951,3.4785,3.3865,3.1966,3.1665,3.2531,3.2572,3.249,3.2337,3.2823,3.2102,3.1992,3.1563,3.1348,3.166,3.1923,3.1951]}]]